     2              OBSERVATION DATA    GPS                 RINEX VERSION / TYPE
ASHTORIN MIT 05 - JUN - 97 21:00                            PGM / RUN BY / DATE
                                                            COMMENT
China Lake 97 #1 Ashtech Z12                                COMMENT
Original Marker Name: GS19                                  COMMENT
Campaign Name: China Lake May 1997                          COMMENT
4-Character Station Name: GS19                              COMMENT
6-Character Antenna Code: ASHGD3                            COMMENT
Vertical Measurement Point: TGP                             COMMENT
Vertical Offset to Rinex Ref. Point: 0.0640                 COMMENT
Radial Measurement Point: OOH                               COMMENT
Radial Offset to Rinex Ref. Point: 0.1737                   COMMENT
Antenna Height from Field Measurement: 1.1150 m             COMMENT
Additional Antenna Identification Info.:                    COMMENT
The Whopper (700718AB)                                      COMMENT
Original XYZ: -2435897.9000 -4555584.6800 3731282.9400      COMMENT
New XYZ position is based on association with SCEC monument COMMENT
E1F4D6R5+0011. Position of that monument is believed to be  COMMENT
valid to within 1 m horizontally; vertical accuracy         COMMENT
should be no worse than 3-times this value.                 COMMENT
                                                            COMMENT
Revised Rinex header created by UCSD GPS archive for        COMMENT
GSAC on 01-Aug-2000 (2000:214) 04:27:09 GMT                 COMMENT
For assistance contact dagnew@ucsd.edu                      COMMENT
or anderson@python.ucsd.edu                                 COMMENT
                                                            COMMENT
SNORT A 1950                                                MARKER NAME
gs19                                                        MARKER NUMBER
LCS US DEFENSE MAPPING AGENCY                               OBSERVER / AGENCY
452 ASHTECH Z-XII3 1G001C7                                  REC # / TYPE / VERS
808 ASHTECH GEODETIC III                                    ANT # / TYPE
 -2415084.7300 -4592334.8302  3697983.7270                  APPROX POSITION XYZ
        1.0374        0.0000        0.0000                  ANTENNA: DELTA H/E/N
     1     1     0                                          WAVELENGTH FACT L1/2
     7    L1    L2    C1    P1    P2    D1    D2            # / TYPES OF OBSERV
    30                                                      INTERVAL
  1997     4    29    14    48   30.000000                  TIME OF FIRST OBS
  1997     4    29    21    29   60.000000                  TIME OF LAST OBS
                                                            END OF HEADER
 97  4 29 14 48 30.0000000  0  6 31 27 19  2 10 18                   0.000109969
     22392.74019     14352.27258  16906948.989           0.0005   16906953.1085
      -709.576        -552.916
    -69541.52319    -44545.89256  15949556.933           0.0005          0.0005
      2176.448        1695.934
      5260.45219      3375.84958  15714731.841           0.0005   15714735.5185
      -169.756        -132.277
    -73191.82219    -49200.23058  17201291.039           0.0005   17201296.2265
      2392.442        1864.241
      3465.14119      2198.72956  18791133.801           0.0005   18791140.5365
       -98.732         -76.934
     77388.48119     48018.32558  16701585.144           0.0005   16701590.8185
     -2346.209       -1828.215
 97  4 29 14 49 30.0000000  0  7 31 27 19  3  2 10 18                0.000310489
     66065.880 9     48383.27048  22011730.320    22011731.3335   22011735.7374
      -744.858        -580.409
   -199766.930 9   -145222.31654  21021247.588           0.0004          0.0005
      2166.688        1688.328
     15990.904 9     11737.21248  20813244.055    20813244.4415   20813249.1884
      -186.391        -145.240
    207520.09719    150079.11256  24812957.837    24812957.7805   24812963.8655
     -2246.310       -1750.371
   -216148.503 9   -160595.02048  22270559.355    22270559.0165   22270564.4054
      2375.649        1851.155
     10305.555 9      7528.87956  23888907.643    23888908.0925   23888914.2845
      -127.935         -99.690
    218773.362 9    158188.31348  21824962.323    21824961.9445   21824967.4094
     -2366.847       -1844.296
 97  4 29 14 50  0.0000000  0  7 31 27 19  3  2 10 18                0.000299005
     88654.379 9     65984.69358  22016028.885    22016029.8045   22016034.2265
      -761.545        -593.412
   -264704.075 9    -40977.88958  21008890.578           0.0005   21008896.1295
      2162.128        1684.775
     21681.414 9     16171.36258  20814328.392    20814327.3115   20814332.0955
      -193.290        -150.615
    275028.441 9    202682.94956  24825806.206    24825804.3155   24825810.0055
     -2254.419       -1756.690
   -287313.381 9   -216048.15958  22257015.591    22257016.7975   22257022.2015
      2368.494        1845.580
     14350.981 9     10681.14146  23889676.086    23889677.8534   23889684.2094
      -141.966        -110.623
    289924.203 9    213630.50858  21838499.592    21838501.4985   21838507.0075
     -2376.886       -1852.119
 97  4 29 14 50 30.0000000  0  7 31 27 19  3  2 10 18                0.000287534
    111777.042 9     84002.34848  22020429.624    22020429.9114   22020434.3654
      -780.122        -607.887
   -329484.585 9    -91456.21348  20996563.548    20996563.9095   20996568.7654
      2156.705        1680.549
     27600.564 9     20783.66948  20815454.064    20815453.6734   20815458.5414
      -201.122        -156.718
    342793.509 9    255486.85746  24838700.299    24838699.6544   24838705.2674
     -2263.248       -1763.570
   -358248.340 9   -271322.14348  22243517.645    22243518.2874   22243523.7644
      2360.659        1839.475
     18837.864 9     14177.40546  23890530.901    23890531.6994   23890538.1114
      -156.895        -122.256
    361401.675 9    269327.21048  21852102.253    21852103.2244   21852108.7634
     -2388.146       -1860.893
 97  4 29 14 51  0.0000000  0  7 31 27 19  3  2 10 18                0.000276046
    135465.961 9    102461.23748  22024937.561    22024937.7994   22024942.2964
      -798.992        -622.591
   -394096.465 9   -141803.13048  20984268.350    20984268.7424   20984273.5544
      2150.857        1675.992
     33757.185 9     25581.02148  20816625.404    20816625.2444   20816630.1744
      -209.161        -162.983
    410828.633 9    308501.19446  24851646.604    24851646.1594   24851651.8194
     -2272.241       -1770.577
   -428946.807 9   -326411.83948  22230064.441    22230064.8434   22230070.3544
      2352.677        1833.255
     23759.511 9     18012.43446  23891467.942    23891468.2544   23891474.6764
      -171.003        -133.249
    433212.627 9    325283.77648  21865767.792    21865768.4444   21865773.9824
     -2399.113       -1869.439
 97  4 29 14 51 30.0000000  0  8 31 27 19  3  7  2 10 18             0.000264556
    159764.962 9    121395.51948  22029561.517    22029561.7114   22029566.2844
      -819.431        -638.518
   -458487.394 9   -191977.88648  20972015.240    20972015.6104   20972020.4024
      2143.589        1670.329
     40189.198 9     30592.95448  20817849.320    20817849.2774   20817854.2204
      -217.837        -169.743
    479162.055 9    361747.96845  24864650.201    24864649.4534   24864655.2654
     -2281.657       -1777.915
   -318907.10819   -221817.78055  25039288.289           0.0005          0.0005
      4171.323        3250.381
   -499363.590 9   -381282.05048  22216664.746    22216664.9644   22216670.5214
      2343.471        1826.081
     29144.703 9     22208.66146  23892492.965    23892493.0524   23892499.4484
      -186.395        -145.243
    505397.351 9    381531.58348  21879504.265    21879504.7724   21879510.3384
     -2411.379       -1878.997
 97  4 29 14 52  0.0000000  0  8 31 27 19  3  7  2 10 18             0.000253074
    184663.785 9    140797.20148  22034299.681    22034299.8074   22034304.4364
      -839.937        -654.496
   -522685.094 9   -242002.06948  20959798.919    20959799.1814   20959803.9564
      2136.712        1664.970
     46870.609 9     35799.23448  20819120.673    20819120.7514   20819125.6934
      -227.219        -177.054
    547758.983 8    415200.07545  24877703.968    24877702.9724   24877708.8764
     -2291.365       -1785.479
   -444050.149 9   -319331.65555  25015481.100           0.0005   25015487.8185
      4171.927        3250.852
   -569516.536 9   -435946.66348  22203315.124    22203315.2944   22203320.9044
      2334.025        1818.721
     34970.282 9     26748.05846  23893601.789    23893601.7074   23893608.1174
      -201.620        -157.106
    577918.811 9    438041.79348  21893304.769    21893305.1994   21893310.7534
     -2422.819       -1887.911
 97  4 29 14 52 30.0000000  0  8 31 27 19  3  7  2 10 18             0.000241576
    210134.745 9    160644.70048  22039146.749    22039146.7384   22039151.3994
      -859.273        -669.563
   -586708.876 9   -291890.73248  20947615.608    20947615.9104   20947620.6884
      2130.394        1660.047
     53804.446 9     41202.21148  20820440.083    20820440.2814   20820445.1774
      -236.020        -183.912
    616633.318 8    468868.33445  24890809.902    24890809.1984   24890815.1824
     -2301.429       -1793.321
   -569233.848 8   -416877.37445  24991657.035    24991658.5125   24991666.5494
      4172.441        3251.253
   -639420.820 9   -490417.51548  22190012.908    22190012.9604   22190018.5934
      2325.226        1811.864
     41226.956 9     31623.36746  23894792.600    23894792.3544   23894798.7924
      -216.668        -168.832
    650749.381 9    494792.85348  21907164.183    21907164.4194   21907169.9674
     -2433.626       -1896.332
 97  4 29 14 53  0.0000000  0  8 31 27 19  3  7  2 10 18             0.000230071
    236192.206 9    180949.20748  22044105.308    22044105.3144   22044109.9654
      -877.461        -683.736
   -650520.922 9   -341614.40948  20935472.755    20935472.8904   20935477.6904
      2124.050        1655.104
     61010.724 9     46817.47448  20821811.380    20821811.6374   20821816.4914
      -244.054        -190.172
    685823.804 8    522782.93045  24903975.846    24903975.7234   24903981.8314
     -2310.877       -1800.683
   -694421.268 9   -514426.02855  24967834.537    24967836.5854   24967843.6405
      4173.723        3252.252
   -709051.727 9   -544675.35048  22176762.635    22176762.6664   22176768.3134
      2317.240        1805.642
     47950.228 9     36862.25446  23896071.958    23896071.7594   23896078.2974
      -231.306        -180.238
    723916.340 9    551806.03948  21921087.278    21921087.6594   21921093.2304
     -2443.926       -1904.358
 97  4 29 14 53 30.0000000  0  8 31 27 19  3  7  2 10 18             0.000218542
    262788.988 9    201673.96248  22049166.601    22049166.5664   22049171.2024
      -895.738        -697.978
   -714142.787 9   -391189.89448  20923365.951    20923366.0694   20923370.8664
      2117.405        1649.926
     68453.221 9     52616.80348  20823227.632    20823227.9204   20823232.7704
      -252.018        -196.378
    755297.340 8    576918.09545  24917196.202    24917196.0844   24917202.2334
     -2320.686       -1808.327
   -819645.383 9   -612003.24546  24944005.138    24944007.0845   24944014.1774
      4174.679        3252.997
   -778452.868 9   -598754.14448  22163556.079    22163556.0944   22163561.7304
      2309.579        1799.672
     55117.243 9     42446.91846  23897435.946    23897435.6574   23897442.1954
      -246.533        -192.104
    797390.473 9    609058.57448  21935069.051    21935069.3334   21935074.9654
     -2454.124       -1912.304
 97  4 29 14 54  0.0000000  0  8 31 27 19  3  7  2 10 18             0.000206997
    289928.854 9    222821.90248  22054331.408    22054331.1464   22054335.7574
      -913.220        -711.600
   -777572.975 9   -440616.01948  20911295.398    20911295.7134   20911300.5244
      2111.560        1645.371
     76134.777 9     58602.41448  20824689.321    20824689.7054   20824694.5674
      -259.698        -202.362
    825069.959 8    631286.31945  24930473.485    24930473.4054   24930479.5994
     -2330.549       -1816.012
   -944905.547 9   -709608.53946  24920169.126    24920171.0734   24920178.1664
      4176.427        3254.359
   -847629.590 9   -652658.06648  22150392.189    22150392.2164   22150397.8574
      2302.597        1794.231
     62738.955 9     48385.89746  23898886.420    23898886.0284   23898892.5974
      -261.260        -203.579
    871161.403 9    666542.37648  21949107.163    21949107.4934   21949113.1814
     -2463.710       -1919.774
 97  4 29 14 54 30.0000000  0  8 31 27 19  3  7  2 10 18             0.000195418
    317578.117 9    244366.77748  22059592.813    22059592.6414   22059597.3014
      -929.161        -724.022
   -840835.877 9   -489911.79048  20899257.022    20899257.2284   20899262.0264
      2107.073        1641.875
     84025.635 9     64751.11548  20826190.849    20826191.3294   20826196.1994
      -265.247        -206.686
    895119.341 8    685870.20145  24943803.758    24943803.5574   24943809.6074
     -2338.152       -1821.937
  -1070233.715 9   -807266.82346  24896320.077    24896321.9684   24896328.9784
      4180.091        3257.214
   -916615.626 9   -706413.40848  22137264.707    22137264.6864   22137270.2924
      2297.558        1790.305
     70790.711 9     54659.96746  23900418.658    23900418.3154   23900424.8714
      -274.155        -213.627
    945217.276 9    724248.21548  21963199.480    21963199.9264   21963205.6164
     -2472.130       -1926.335
 97  4 29 14 55  0.0000000  0  8 31 27 19  3  7  2 10 18             0.000183812
    345749.420 9    266318.43548  22064953.686    22064953.4714   22064958.1014
      -948.202        -738.859
   -903927.142 9   -539073.81148  20887251.372    20887251.3884   20887256.1664
      2099.774        1636.188
     92129.095 9     71065.47948  20827732.962    20827733.4134   20827738.3164
      -274.354        -213.782
    965436.037 8    740662.37745  24957184.407    24957184.4804   24957190.5584
     -2348.835       -1830.261
  -1195646.359 9   -904990.93646  24872455.313    24872456.8694   24872463.7474
      4181.343        3258.189
   -985405.200 9   -760015.66248  22124174.590    22124174.5054   22124180.0804
      2289.057        1783.681
     79260.580 9     61259.83146  23902030.321    23902030.1064   23902036.6744
      -289.863        -225.867
   1019563.433 9    782180.25448  21977347.124    21977347.5934   21977353.2674
     -2483.573       -1935.252
 97  4 29 14 55 30.0000000  0  8 31 27 19  3  7  2 10 18             0.000172189
    374444.302 9    288678.07548  22070414.163    22070413.9424   22070418.5424
      -965.541        -752.370
   -966855.995 9   -588109.28448  20875276.098    20875276.4504   20875281.2524
      2094.994        1632.463
    100461.870 9     77558.53048  20829318.705    20829319.1414   20829324.0784
      -281.680        -219.491
   1036025.301 8    795666.93245  24970617.320    24970617.4154   24970623.3654
     -2357.457       -1836.979
  -1321137.387 9  -1002776.10846  24848575.202    24848576.6794   24848583.5824
      4184.242        3260.448
  -1053982.623 9   -813452.60648  22111124.745    22111124.6594   22111130.1724
      2282.109        1778.267
     88158.717 9     68193.43346  23903723.714    23903723.3814   23903729.8774
      -303.798        -236.726
   1094203.487 9    840341.29848  21991550.700    21991551.1494   21991556.8504
     -2492.909       -1942.526
 97  4 29 14 56  0.0000000  0  8 31 27 19  3  7  2 10 18             0.000160559
    403679.590 9    311458.80248  22075977.487    22075977.2784   22075981.8604
      -983.170        -766.106
  -1029638.254 9   -637030.52548  20863329.110    20863329.4004   20863334.2364
      2090.823        1629.213
    109032.643 9     84237.03148  20830949.755    20830950.1604   20830955.1324
      -289.426        -225.527
   1106878.118 9    850876.85346  24984100.136    24984100.5704   24984106.3084
     -2365.675       -1843.383
  -1446708.341 8  -1100623.54546  24824680.667    24824681.4064   24824688.3534
      4187.557        3263.031
  -1122331.872 9   -866711.76348  22098118.358    22098118.2674   22098123.7064
      2274.891        1772.642
     97477.346 9     75454.68146  23905497.137    23905496.6184   23905503.1014
      -317.022        -247.030
   1169143.229 9    898735.86348  22005811.388    22005811.7614   22005817.4624
     -2502.831       -1950.258
 97  4 29 14 56 30.0000000  0  8 31 27 19  3  7  2 10 18             0.000148930
    433463.928 9    334667.35848  22081645.249    22081645.0874   22081649.6894
     -1002.493        -781.163
  -1092277.163 9   -685840.07148  20851409.485    20851409.6704   20851414.4994
      2085.122        1624.770
    117862.480 9     91117.40148  20832630.121    20832630.4724   20832635.4734
      -299.236        -233.171
   1177986.780 9    906286.14046  24997631.616    24997632.1924   24997637.9034
     -2374.940       -1850.603
  -1572362.132 8  -1198535.52046  24800770.038    24800770.1974   24800777.1824
      4189.419        3264.482
  -1190448.828 9   -919789.90648  22085156.104    22085156.0894   22085161.4944
      2266.179        1765.854
    107214.554 9     83042.08946  23907350.117    23907349.5824   23907355.9644
      -331.886        -258.612
   1244400.433 9    957377.80948  22020132.468    22020132.7794   22020138.4504
     -2514.143       -1959.072
 97  4 29 14 57  0.0000000  0  8 31 27 19  3  7  2 10 18             0.000137299
    463799.709 9    358305.60548  22087417.895    22087417.8284   22087422.4494
     -1019.564        -794.465
  -1154770.700 9   -734536.33648  20839517.567    20839517.6084   20839522.4394
      2081.273        1621.771
    126966.395 9     98211.33648  20834362.610    20834362.9384   20834367.9774
      -307.249        -239.415
   1249355.094 9    961897.75746  25011213.235    25011213.3074   25011218.9784
     -2382.541       -1856.525
  -1698097.522 8  -1296511.06046  24776843.505    24776843.5894   24776850.4584
      4193.055        3267.316
  -1258320.297 9   -972676.76848  22072240.650    22072240.6044   22072246.0174
      2258.985        1760.248
    117370.663 9     90955.92446  23909282.966    23909282.2584   23909288.5314
      -344.898        -268.752
   1319969.277 9   1016262.58048  22034512.869    22034513.1414   22034518.8094
     -2523.497       -1966.361
 97  4 29 14 57 30.0000000  0  8 31 27 19  3  7  2 10 18             0.000125648
    494657.055 9    382350.28648  22093289.976    22093289.8164   22093294.4334
     -1037.589        -808.511
  -1217129.846 9   -783127.87948  20827651.077    20827651.0514   20827655.9364
      2076.056        1617.706
    136317.684 9    105498.03748  20836142.066    20836142.4604   20836147.5324
      -315.837        -246.107
   1320956.796 9   1017691.23646  25024838.709    25024838.6894   25024844.4744
     -2390.648       -1862.843
  -1823924.202 8  -1394557.73846  24752899.505    24752899.5874   24752906.3694
      4195.688        3269.367
  -1325971.719 9  -1025392.16148  22059367.036    22059366.9724   22059372.3454
      2251.343        1754.293
    127926.022 9     99180.87046  23911291.375    23911290.8494   23911297.1104
      -358.405        -279.277
   1395826.903 9   1075372.38348  22048948.208    22048948.3924   22048954.1044
     -2533.374       -1974.058
 97  4 29 14 58  0.0000000  0  8 31 27 19  3  7  2 10 18             0.000113977
    526066.394 9    406825.08848  22099266.948    22099266.8594   22099271.5074
     -1057.093        -823.709
  -1279307.448 9   -831577.95648  20815818.950    20815819.0334   20815823.9524
      2068.100        1611.506
    145934.310 9    112991.49248  20837972.056    20837972.4904   20837977.5604
      -326.077        -254.086
   1392815.935 9   1073685.32946  25038513.028    25038512.9444   25038518.9484
     -2400.815       -1870.765
  -1949826.493 8  -1492663.34946  24728941.762    24728941.3294   24728947.9014
      4196.757        3270.200
  -1393387.526 9  -1077923.95848  22046538.258    22046538.1904   22046543.5324
      2242.303        1747.249
    138880.601 9    107716.88746  23913376.064    23913375.5474   23913381.7114
      -373.073        -290.706
   1471984.600 9   1134716.00448  22063440.644    22063440.7794   22063446.4794
     -2544.676       -1982.864
 97  4 29 14 58 30.0000000  0  8 31 27 19  3  7  2 10 18             0.000102294
    558037.922 9    431737.95448  22105350.971    22105350.8304   22105355.5834
     -1073.778        -836.710
  -1341245.261 9   -879841.18248  20804032.284    20804032.6344   20804037.6044
      2061.729        1606.542
    155840.625 9    120710.67748  20839857.238    20839857.6134   20839862.6694
      -333.533        -259.896
   1464971.241 8   1129910.17946  25052243.557    25052243.6264   25052249.6194
     -2409.036       -1877.171
  -2075760.393 8  -1590793.56046  24704976.961    24704976.9174   24704983.4604
      4199.224        3272.122
  -1460542.914 9  -1130252.82648  22033759.014    22033758.9644   22033764.3024
      2235.190        1741.706
    150281.833 9    116600.95846  23915545.676    23915545.2134   23915551.3014
      -386.278        -300.996
   1548459.800 9   1194307.03548  22077993.415    22077993.5644   22077999.3104
     -2553.037       -1989.379
 97  4 29 14 59  0.0000000  0  8 31 27 19  3  7  2 10 18             0.000090542
    590482.255 9    457019.24248  22111524.918    22111524.7734   22111529.5984
     -1089.376        -848.864
  -1403019.197 9   -927976.71848  20792276.968    20792277.4394   20792282.4494
      2056.473        1602.446
    165927.640 9    128570.67448  20841776.798    20841777.1914   20841782.2154
      -339.039        -264.186
   1537352.807 8   1186311.34246  25066017.026    25066017.3634   25066023.4504
     -2416.299       -1882.830
  -2201789.445 8  -1688997.94146  24680994.166    24680994.4844   24681000.9164
      4202.640        3274.784
  -1527509.223 9  -1182434.36048  22021015.782    22021015.7274   22021021.0204
      2229.308        1737.123
    162046.538 9    125768.24046  23917784.460    23917784.0234   23917790.1294
      -398.191        -310.279
   1625154.209 9   1254068.87248  22092587.859    22092588.0554   22092593.8474
     -2560.072       -1994.861
 97  4 29 14 59 30.0000000  0  8 31 27 19  3  7  2 10 18             0.000078757
    623441.846 9    482702.03548  22117796.921    22117796.7994   22117801.6654
     -1107.232        -862.778
  -1464593.035 9   -975956.33148  20780559.867    20780560.3154   20780565.3564
      2049.409        1596.942
    176222.546 9    136592.65548  20843735.886    20843736.3004   20843741.2964
      -346.520        -270.016
   1609989.158 9   1242911.03546  25079839.373    25079839.6084   25079845.7204
     -2425.302       -1889.846
  -2327874.518 8  -1787245.98546  24657000.897    24657001.1504   24657007.6384
      4204.030        3275.868
  -1594263.607 9  -1234450.76448  22008312.850    22008312.7584   22008318.0544
      2221.715        1731.206
    174211.032 9    135247.04746  23920099.413    23920098.9214   23920105.0524
      -411.991        -321.032
   1702093.842 9   1314021.80348  22107229.088    22107229.2514   22107235.0474
     -2568.536       -2001.457
 97  4 29 15  0  0.0000000  0  8 31 27 19  3  7  2 10 18             0.000066969
    656952.051 9    508813.87748  22124173.719    22124173.5704   22124178.4544
     -1126.188        -877.549
  -1525948.693 9  -1023765.93648  20768884.321    20768884.7064   20768889.7594
      2041.762        1590.983
    186757.837 9    144801.95748  20845740.687    20845741.1084   20845746.1114
      -355.350        -276.896
   1682906.437 9   1299729.64746  25093715.126    25093715.4084   25093721.6264
     -2435.140       -1897.512
  -2453990.296 8  -1885518.00146  24633001.743    24633002.1414   24633008.6204
      4204.253        3276.041
  -1660768.015 9  -1286272.37348  21995657.471    21995657.3774   21995662.6934
      2212.596        1724.101
    186810.566 9    145064.84446  23922497.024    23922496.6004   23922502.7524
      -427.677        -333.255
   1779306.985 9   1374187.85348  22121922.281    22121922.4774   22121928.2574
     -2578.596       -2009.296
 97  4 29 15  0 30.0000000  0  8 31 27 19  3  7  2 10 18             0.000055199
    691000.573 9    535345.18148  22130652.866    22130652.8074   22130657.6774
     -1143.710        -891.202
  -1587123.547 9  -1071434.65448  20757243.261    20757243.5184   20757248.5824
      2036.790        1587.109
    197530.804 9    153196.45748  20847790.774    20847791.1874   20847796.1794
      -362.643        -282.579
   1756079.231 8   1356747.35045  25107639.638    25107639.8024   25107645.9354
     -2442.812       -1903.490
  -2580143.121 9  -1983818.87346  24608995.861    24608996.0314   24609002.7184
      4206.156        3277.524
  -1727027.023 9  -1337902.75948  21983048.734    21983048.7034   21983054.0634
      2204.747        1717.985
    199860.166 9    155233.34046  23924980.274    23924979.9314   23924986.1864
      -441.866        -344.311
   1856791.914 9   1434565.68148  22136667.345    22136667.4184   22136673.1704
     -2586.921       -2015.783
 97  4 29 15  1  0.0000000  0  8 31 27 19  3  7  2 10 18             0.000043426
    725561.037 9    562275.39448  22137229.594    22137229.4674   22137234.3384
     -1160.639        -904.394
  -1648170.785 9  -1119003.93448  20745626.452    20745626.6164   20745631.6404
      2032.595        1583.840
    208506.729 9    161749.10948  20849879.429    20849879.8724   20849884.8594
      -369.619        -288.015
   1829453.864 9   1413922.33945  25121602.493    25121602.4904   25121608.8954
     -2449.065       -1908.362
  -2706378.655 9  -2082184.23146  24584973.893    24584974.1354   24584980.8564
      4209.355        3280.017
  -1793075.115 9  -1389368.79948  21970480.212    21970480.1914   21970485.5434
      2198.220        1712.899
    213300.710 9    165706.46246  23927537.888    23927537.7024   23927543.9334
      -454.600        -354.234
   1934511.000 9   1495125.97548  22151456.904    22151456.9594   22151462.6954
     -2594.666       -2021.818
 97  4 29 15  1 30.0000000  0  8 31 27 19  3  7  2 10 18             0.000031653
    760645.483 9    589613.90648  22143905.937    22143905.8604   22143910.6874
     -1177.791        -917.759
  -1709068.688 9  -1166456.84348  20734038.009    20734038.1394   20734043.1634
      2027.838        1580.134
    219720.359 9    170486.98848  20852013.362    20852013.8154   20852018.8274
      -377.297        -293.998
   1903027.815 9   1471252.63845  25135602.999    25135603.1934   25135609.6384
     -2455.433       -1913.324
  -2832691.627 9  -2180609.95046  24560937.179    24560937.6234   24560944.3484
      4211.949        3282.038
  -1858901.698 9  -1440662.23148  21957953.844    21957953.8264   21957959.1784
      2190.684        1707.026
    227144.674 9    176493.95647  23930172.255    23930172.1524   23930178.4034
      -467.705        -364.445
   2012486.738 9   1555886.25647  22166295.178    22166295.2834   22166301.0374
     -2603.177       -2028.450
 97  4 29 15  2  0.0000000  0  8 31 27 19  3  7  2 10 18             0.000019873
    796240.076 9    617349.92648  22150679.269    22150679.3124   22150684.1394
     -1195.236        -931.353
  -1769827.666 9  -1213801.50648  20722475.961    20722476.0964   20722481.0804
      2022.551        1576.014
    231155.405 9    179397.39448  20854189.417    20854189.8684   20854194.9054
      -385.244        -300.190
   1976787.546 9   1528727.72445  25149638.983    25149639.1174   25149645.7294
     -2462.094       -1918.515
  -2959079.287 9  -2279093.86646  24536886.489    24536886.8894   24536893.6324
      4213.665        3283.375
  -1924503.739 9  -1491780.69048  21945470.186    21945470.1474   21945475.5624
      2182.776        1700.864
    241376.341 9    187583.53547  23932880.625    23932880.3674   23932886.7174
      -481.215        -374.973
   2090713.355 9   1616842.02547  22181181.315    22181181.3434   22181187.1244
     -2612.023       -2035.343
 97  4 29 15  2 30.0000000  0  8 31 27 19  3  7  2 10 18             0.000008066
    832329.583 9    645471.59148  22157546.852    22157546.9094   22157551.7144
     -1212.006        -944.420
  -1830436.723 9  -1261029.33948  20710942.491    20710942.6344   20710947.5794
      2016.628        1571.398
    242809.760 9    188478.69548  20856407.193    20856407.6614   20856412.7094
      -392.938        -306.185
   2050729.147 9   1586344.51245  25163709.427    25163709.7264   25163716.3034
     -2468.791       -1923.733
  -3085526.999 9  -2377624.60946  24512824.396    24512824.7714   24512831.4344
      4214.827        3284.281
  -1989891.154 9  -1542731.91148  21933027.307    21933027.3024   21933032.7994
      2175.114        1694.894
    255981.440 9    198964.11147  23935659.934    23935659.6504   23935666.0924
      -493.579        -384.607
   2169180.664 9   1677985.34347  22196113.206    22196113.2024   22196118.9974
     -2620.409       -2041.877
 97  4 29 15  3  0.0000000  0  8 31 27 19  3  7  2 10 18            -0.000003840
    868909.765 9    673975.61548  22164507.745    22164507.9294   22164512.7014
     -1227.251        -956.299
  -1890865.397 9  -1308116.62148  20699443.323    20699443.4854   20699448.3984
      2011.324        1567.265
    254687.738 9    197734.24848  20858667.551    20858668.0004   20858673.0344
      -399.607        -311.382
   2124872.678 9   1644118.66445  25177818.372    25177818.7864   25177825.3564
     -2474.731       -1928.362
  -3212008.510 9  -2476181.68745  24488755.739    24488756.0064   24488762.8264
      4216.767        3285.792
  -2055064.592 9  -1593516.39248  21920625.229    21920625.2114   21920630.7554
      2169.209        1690.293
    270945.602 9    210624.46747  23938507.443    23938507.2594   23938513.8084
      -504.708        -393.279
   2247895.459 9   1739321.51947  22211091.952    22211092.1334   22211097.9234
     -2627.776       -2047.618
 97  4 29 15  3 29.9990000  0  7 31 27 19  7  2 10 18               -0.000015753
    905964.838 9    702849.65748  22171559.210    22171559.2984   22171564.0434
     -1242.492        -968.176
  -1951109.062 9  -1355059.73848  20687979.318    20687979.5514   20687984.4334
      2005.906        1563.044
    266788.688 9    207163.54448  20860970.295    20860970.7584   20860975.8114
      -406.244        -316.554
  -3338513.166 9  -2574756.80646  24464682.954    24464682.9524   24464689.7674
      4217.967        3286.727
  -2120031.402 9  -1644139.86748  21908262.465    21908262.4614   21908267.9844
      2162.883        1685.363
    286275.147 9    222569.54347  23941424.742    23941424.4404   23941431.0444
      -516.323        -402.330
   2326849.637 9   1800844.21847  22226116.539    22226116.6624   22226122.4124
     -2635.106       -2053.329
 97  4 29 15  3 59.9990000  0  7 31 27 19  7  2 10 18               -0.000027721
    943474.446 9    732077.89948  22178697.120    22178697.1624   22178701.8674
     -1257.751        -980.066
  -2011188.933 9  -1401875.22448  20676546.410    20676546.7824   20676551.6254
      1999.692        1558.202
    279092.657 9    216751.03848  20863311.678    20863312.1434   20863317.2064
      -413.847        -322.478
  -3465064.198 9  -2673368.04346  24440600.742    24440601.0484   24440607.9074
      4219.169        3287.664
  -2184819.515 9  -1694624.09748  21895933.680    21895933.6814   21895939.2274
      2156.637        1680.496
    301945.229 9    234779.97547  23944406.720    23944406.3894   23944412.9324
      -528.099        -411.506
   2406015.836 9   1862532.13447  22241181.357    22241181.5144   22241187.2274
     -2642.310       -2058.943
 97  4 29 15  4 29.9990000  0  7 31 27 19  7  2 10 18               -0.000039741
    981447.185 9    761667.00748  22185923.067    22185923.1494   22185927.7984
     -1273.801        -992.572
  -2071067.192 9  -1448533.60748  20665151.923    20665152.3864   20665157.2074
      1992.482        1552.583
    291646.366 9    226533.12948  20865700.528    20865701.0454   20865706.1454
      -422.764        -329.426
  -3591645.200 9  -2772002.62746  24416512.851    24416513.4444   24416520.2914
      4219.828        3288.178
  -2249406.408 9  -1744951.53248  21883643.189    21883643.1904   21883648.7504
      2149.319        1674.794
    317980.221 9    247274.75247  23947458.154    23947457.7694   23947464.3364
      -540.589        -421.238
   2485409.632 9   1924397.39247  22256289.518    22256289.6964   22256295.4044
     -2650.490       -2065.317
 97  4 29 15  4 59.9990000  0  7 31 27 19  7  2 10 18               -0.000051805
   1019897.816 9    791628.50248  22193240.042    22193240.0814   22193244.6884
     -1290.305       -1005.432
  -2130749.945 9  -1495039.65448  20653794.635    20653795.1614   20653800.0034
      1985.756        1547.342
    304455.954 9    236514.60848  20868138.084    20868138.6344   20868143.7204
      -431.782        -336.454
  -3718268.659 9  -2870670.24746  24392417.418    24392417.7534   24392424.7404
      4221.321        3289.341
  -2313784.374 9  -1795116.16448  21871392.502    21871392.4954   21871398.0704
      2141.842        1668.968
    334380.032 9    260053.80747  23950579.029    23950578.5784   23950585.1394
      -553.413        -431.231
   2565037.439 9   1986445.00647  22271442.269    22271442.4574   22271448.1344
     -2658.661       -2071.684
 97  4 29 15  5 29.9990000  0  7 31 27 19  7  2 10 18               -0.000063910
   1058837.399 9    821971.00548  22200650.003    22200650.1144   22200654.6584
     -1307.149       -1018.558
  -2190242.618 9  -1541397.58048  20642473.632    20642474.0704   20642478.9704
      1979.110        1542.164
    317524.846 9    246698.14148  20870625.035    20870625.5634   20870630.6494
      -440.773        -343.459
  -3844954.067 9  -2969386.12946  24368309.925    24368310.2964   24368317.4514
      4222.969        3290.625
  -2377939.300 9  -1845107.00048  21859184.312    21859184.2524   21859189.8254
      2133.899        1662.778
    351151.401 9    273122.37647  23953770.617    23953770.1224   23953776.6404
      -565.938        -440.991
   2644901.783 9   2048676.94147  22286640.012    22286640.1524   22286645.8944
     -2667.138       -2078.289
 97  4 29 15  5 59.9990000  0  7 31 27 19  7  2 10 18               -0.000076046
   1098289.346 9    852712.75848  22208157.531    22208157.5834   22208162.1584
     -1322.640       -1030.629
  -2249528.058 9  -1587594.03148  20631192.189    20631192.4574   20631197.3384
      1973.806        1538.031
    330875.487 9    257101.21948  20873165.589    20873166.1044   20873171.1934
      -448.838        -349.744
  -3971686.220 8  -3068138.41946  24344193.271    24344193.7614   24344201.1584
      4226.102        3293.066
  -2441849.712 9  -1894907.31248  21847022.556    21847022.5174   21847028.0904
      2127.249        1657.597
    368303.222 9    286487.40547  23957034.349    23957034.0454   23957040.5664
      -577.103        -449.691
   2725037.184 9   2111120.08147  22301889.368    22301889.4674   22301895.2404
     -2674.911       -2084.346
 97  4 29 15  6 29.9990000  0  7 31 27 19  7  2 10 18               -0.000088217
   1138230.187 9    883835.44948  22215758.179    22215758.0884   22215762.7074
     -1339.916       -1044.090
  -2308650.566 9  -1633663.51948  20619941.752    20619941.8494   20619946.7254
      1967.912        1533.438
    344479.415 9    267701.66148  20875754.377    20875754.9014   20875759.9804
      -457.596        -356.568
  -4098485.186 8  -3166942.68746  24320064.316    24320064.6634   24320072.1814
      4227.237        3293.951
  -2505544.712 9  -1944539.76948  21834901.826    21834901.7584   21834907.3584
      2119.421        1651.497
    385807.999 9    300127.45847  23960365.444    23960365.0994   23960371.6414
      -589.554        -459.393
   2805434.418 9   2173767.23947  22317188.483    22317188.5954   22317194.3854
     -2684.620       -2091.912
 97  4 29 15  6 59.9990000  0  7 31 27 19  7  2 10 18               -0.000100409
   1178668.294 9    915345.62748  22223453.301    22223453.2324   22223457.8794
     -1356.062       -1056.672
  -2367606.154 9  -1679602.94148  20608722.688    20608722.9724   20608727.8614
      1962.245        1529.022
    358330.552 9    278494.73748  20878390.227    20878390.7374   20878395.7934
      -465.826        -362.981
  -4225326.368 8  -3265779.89446  24295927.073    24295927.4564   24295935.0024
      4228.611        3295.022
  -2569020.791 9  -1994001.63948  21822822.799    21822822.6684   21822828.2694
      2112.321        1645.964
    403673.821 9    314048.83247  23963765.266    23963764.8694   23963771.4554
      -601.631        -468.803
   2886107.400 9   2236629.27547  22332540.087    22332540.2284   22332546.0054
     -2693.588       -2098.900
 97  4 29 15  7 29.9990000  0  7 31 27 19  7  2 10 18               -0.000112622
   1219590.058 9    947232.68448  22231240.315    22231240.4394   22231245.0764
     -1371.871       -1068.990
  -2426378.100 9  -1725399.26548  20597538.665    20597539.0284   20597543.9614
      1956.053        1524.197
    372434.140 9    289484.52848  20881074.086    20881074.5824   20881079.6354
      -474.231        -369.531
  -4352183.269 8  -3364629.33046  24271786.811    24271787.4404   24271794.9324
      4228.610        3295.021
  -2632284.059 9  -2043297.68548  21810784.152    21810784.0914   21810789.6734
      2105.458        1640.617
    421908.868 9    328257.92947  23967235.327    23967234.8834   23967241.5584
      -613.759        -478.254
   2967047.518 9   2299699.46747  22347942.576    22347942.6424   22347948.4574
     -2702.054       -2105.497
 97  4 29 15  7 59.9990000  0  7 31 27 19  7  2 10 18               -0.000124856
   1260989.737 9    979492.13948  22239118.506    22239118.5934   22239123.2394
     -1387.598       -1081.245
  -2484948.470 9  -1771038.51948  20586393.163    20586393.4584   20586398.4184
      1949.207        1518.863
    386800.575 9    300679.13248  20883807.936    20883808.4494   20883813.5144
      -482.985        -376.352
  -4479024.927 9  -3463466.91846  24247649.251    24247650.3784   24247657.8014
      4228.003        3294.548
  -2695327.348 9  -2092422.32548  21798787.455    21798787.3604   21798792.9574
      2097.931        1634.751
    440516.664 9    342757.46647  23970776.522    23970775.8644   23970782.5344
      -626.390        -488.096
   3048235.183 9   2362962.55147  22363392.095    22363392.1614   22363397.9994
     -2709.662       -2111.425
 97  4 29 15  8 29.9990000  0  7 31 27 19  7  2 10 18               -0.000137102
   1302868.459 9   1012124.87048  22247087.830    22247087.8994   22247092.5434
     -1403.690       -1093.784
  -2543296.273 9  -1816504.34548  20575290.145    20575290.2674   20575295.2114
      1941.051        1512.507
    401432.569 9    312080.66348  20886592.343    20886592.8444   20886597.9304
      -491.761        -383.190
  -4605833.629 9  -3562278.82246  24223518.924    24223519.5594   24223526.8964
      4226.553        3293.418
  -2758137.430 9  -2141365.24248  21786835.104    21786835.0034   21786840.6094
      2090.106        1628.654
    459522.851 9    357567.45047  23974393.218    23974392.6364   23974399.2864
      -640.038        -498.731
   3129642.567 9   2426396.84347  22378883.373    22378883.4774   22378889.3574
     -2716.686       -2116.898
 97  4 29 15  8 59.9990000  0  7 31 27 19  7  2 10 18               -0.000149373
   1345207.369 9   1045116.19748  22255144.635    22255144.7894   22255149.3984
     -1419.594       -1106.177
  -2601406.118 9  -1861784.74548  20564232.094    20564232.3704   20564237.3244
      1932.546        1505.880
    416308.736 9    323672.45948  20889423.279    20889423.7194   20889428.8074
      -500.545        -390.035
  -4732622.208 9  -3661075.03846  24199392.486    24199392.5074   24199399.7904
      4225.489        3292.589
  -2820731.336 9  -2190139.70948  21774923.921    21774923.7904   21774929.4174
      2082.328        1622.593
    478915.486 9    372678.55747  23978083.484    23978082.9214   23978089.5984
      -653.322        -509.082
   3211232.635 9   2489973.49347  22394409.466    22394409.5834   22394415.4404
     -2723.146       -2121.932
 97  4 29 15  9 29.9990000  0  7 31 27 19  7  2 10 18               -0.000161674
   1388005.589 9   1078465.43048  22263289.021    22263289.0774   22263293.6884
     -1434.590       -1117.862
  -2659294.467 9  -1906892.55648  20553216.302    20553216.5844   20553221.5534
      1925.866        1500.675
    431416.791 9    335444.94948  20892298.276    20892298.7004   20892303.8134
      -507.600        -395.532
  -4859410.947 9  -3759871.37046  24175265.359    24175265.3634   24175272.6654
      4226.279        3293.204
  -2883114.399 9  -2238749.89048  21763052.828    21763052.6984   21763058.3414
      2075.573        1617.330
    498679.759 9    388079.25447  23981844.428    23981843.9144   23981850.5854
      -665.109        -518.267
   3292990.422 9   2553680.82847  22409967.458    22409967.5984   22409973.5084
     -2728.411       -2126.035
 97  4 29 15  9 59.9990000  0  7 31 27 19  7  2 10 18               -0.000173998
   1431273.729 9   1112180.83547  22271522.676    22271522.7414   22271527.3854
     -1449.223       -1129.265
  -2716968.083 9  -1951833.04248  20542241.672    20542241.6794   20542246.6144
      1919.835        1495.975
    446748.068 9    347391.38048  20895215.722    20895216.1794   20895221.2894
      -513.791        -400.357
  -4986214.122 9  -3858679.00246  24151135.123    24151135.5914   24151142.7964
      4227.992        3294.539
  -2945273.331 9  -2287185.41548  21751224.358    21751224.2354   21751229.8734
      2069.270        1612.418
    518817.159 9    403770.71047  23985676.607    23985676.0004   23985682.5704
      -676.659        -527.267
   3374931.801 9   2617531.22647  22425560.368    22425560.5514   22425566.4704
     -2733.726       -2130.176
 97  4 29 15 10 29.9990000  0  7 31 27 19  7  2 10 18               -0.000186329
   1475029.879 9   1146276.49947  22279849.243    22279849.2904   22279853.9654
     -1466.887       -1143.029
  -2774412.679 9  -1996595.07448  20531310.198    20531310.3634   20531315.2794
      1910.789        1488.926
    462311.967 9    359519.06948  20898177.434    20898177.8784   20898183.0144
      -522.749        -407.337
  -5113023.438 9  -3957491.41346  24127004.172    24127004.5724   24127011.7214
      4226.874        3293.668
  -3007205.810 9  -2335444.48748  21739439.009    21739438.9004   21739444.5414
      2060.511        1605.593
    539341.660 9    419763.79147  23989582.308    23989581.7694   23989588.2474
      -690.457        -538.018
   3457093.544 9   2681553.32847  22441195.321    22441195.4244   22441201.3684
     -2742.963       -2137.374
 97  4 29 15 10 59.9990000  0  7 31 27 19  7  2 10 18               -0.000198680
   1519266.604 9   1180746.63947  22288267.270    22288267.2914   22288271.9934
     -1482.280       -1155.023
  -2831639.356 9  -2041187.29248  20520420.403    20520420.5224   20520425.4134
      1904.441        1483.980
    478107.915 9    371827.57948  20901183.368    20901183.8004   20901188.9074
      -530.379        -413.282
  -5239845.181 9  -4056313.51446  24102870.682    24102871.2124   24102878.2304
      4227.839        3294.420
  -3068913.630 9  -2383528.49348  21727696.429    21727696.3054   21727701.9334
      2053.256        1599.940
    560225.113 9    436036.58147  23993556.312    23993555.7744   23993562.2894
      -701.868        -546.910
   3539500.280 9   2745766.33847  22456876.977    22456876.9054   22456882.8824
     -2750.838       -2143.510
 97  4 29 15 11 29.9990000  0  7 31 27 19  7  2 10 18               -0.000211054
   1563978.019 9   1215586.67047  22296775.494    22296775.6124   22296780.3344
     -1498.243       -1167.462
  -2888665.402 9  -2085623.17548  20509568.796    20509568.8194   20509573.7344
      1897.438        1478.523
    494144.699 9    384323.75448  20904235.130    20904235.5294   20904240.6304
      -538.554        -419.652
  -5366682.740 9  -4155147.97646  24078734.102    24078734.8144   24078741.7544
      4228.135        3294.651
  -3130386.204 9  -2431429.19448  21715998.599    21715998.4924   21716004.0924
      2045.218        1593.676
    581464.198 9    452586.49047  23997598.063    23997597.4994   23997604.0324
      -713.815        -556.219
   3622156.650 9   2810173.86347  22472605.887    22472605.8904   22472611.9234
     -2759.268       -2150.079
 97  4 29 15 11 59.9990000  0  7 31 27 19  7  2 10 18               -0.000223439
   1609175.388 9   1250805.36947  22305376.267    22305376.4154   22305381.1594
     -1514.727       -1180.307
  -2945470.068 9  -2129886.55948  20498758.945    20498759.2564   20498764.1874
      1889.826        1472.592
    510439.406 9    397020.91048  20907335.875    20907336.2944   20907341.4454
      -547.536        -426.651
  -5493513.552 9  -4253977.16946  24054599.016    24054599.6304   24054606.5234
      4227.489        3294.147
  -3191616.737 9  -2479141.28848  21704346.846    21704346.6874   21704352.3284
      2037.228        1587.450
    603070.296 9    469422.39047  24001709.748    24001709.0634   24001715.6304
      -726.215        -565.882
   3705068.423 9   2874780.40847  22488383.278    22488383.4764   22488389.5364
     -2767.850       -2156.766
 97  4 29 15 12 29.9990000  0  7 31 27 19  7  2 10 18               -0.000235832
   1654867.265 9   1286409.40447  22314071.210    22314071.3284   22314076.0644
     -1531.553       -1193.418
  -3002056.310 9  -2173979.73848  20487991.148    20487991.2734   20487996.1994
      1882.589        1466.952
    527002.517 9    409927.21248  20910487.755    20910488.1924   20910493.3224
      -556.626        -433.735
  -5620323.071 9  -4352789.79846  24030467.903    24030468.6254   24030475.3544
      4226.399        3293.298
  -3252614.067 9  -2526671.66948  21692739.387    21692739.2804   21692744.9364
      2029.098        1581.115
    625030.129 9    486533.92147  24005888.597    24005887.8714   24005894.4364
      -737.911        -574.995
   3788225.424 9   2939578.03947  22504207.706    22504207.7594   22504213.7914
     -2776.036       -2163.145
 97  4 29 15 12 59.9990000  0  7 31 27 19  7  2 10 18               -0.000248225
   1701062.904 9   1322405.97547  22322861.902    22322862.0544   22322866.8294
     -1548.679       -1206.763
  -3058442.029 9  -2217916.66648  20477261.118    20477261.4384   20477266.3634
      1876.014        1461.829
    543840.668 9    423047.83348  20913691.901    20913692.3934   20913697.5474
      -566.208        -441.201
  -5747107.646 9  -4451582.98846  24006341.355    24006342.2944   24006349.0524
      4225.446        3292.555
  -3313372.617 9  -2574015.98248  21681177.369    21681177.3424   21681182.9454
      2021.055        1574.848
    647341.904 9    503919.67947  24010134.227    24010133.6894   24010140.2314
      -750.021        -584.432
   3871618.337 9   3004559.49947  22520076.948    22520076.9634   22520083.0124
     -2783.688       -2169.108
 97  4 29 15 13 29.9990000  0  7 31 27 19  7  2 10 18               -0.000260599
   1747779.553 9   1358808.52947  22331751.910    22331751.9114   22331756.7294
     -1566.360       -1220.540
  -3114629.913 9  -2261699.44248  20466569.118    20466569.2584   20466574.1874
      1869.142        1456.474
    560951.317 9    436380.78548  20916948.002    20916948.4784   20916953.6624
      -575.091        -448.123
  -5873858.015 9  -4550349.53746  23982221.213    23982222.4354   23982229.1074
      4223.997        3291.426
  -3373897.913 9  -2621178.55048  21669659.836    21669659.7784   21669665.3364
      2013.349        1568.843
    670011.338 9    521584.14346  24014448.094    24014447.5614   24014454.1464
      -761.929        -593.711
   3955228.382 9   3069710.13547  22535987.517    22535987.5084   22535993.5354
     -2790.874       -2174.707
 97  4 29 15 13 59.9990000  0  7 31 27 19  7  2 10 18               -0.000272932
   1795046.215 9   1395639.66947  22340746.375    22340746.5154   22340751.3504
     -1584.976       -1235.046
  -3170586.305 9  -2305301.82648  20455920.804    20455921.1054   20455926.0564
      1860.910        1450.060
    578352.281 9    449939.96148  20920259.282    20920259.8114   20920264.9784
      -585.182        -455.986
  -6000541.024 9  -4649063.58646  23958114.571    23958115.5324   23958122.1524
      4221.370        3289.379
  -3434169.301 9  -2668143.25148  21658190.573    21658190.5284   21658196.0544
      2004.483        1561.935
    693061.552 9    539545.30746  24018834.419    24018833.8614   24018840.4914
      -774.890        -603.810
   4039072.637 9   3135043.28547  22551942.639    22551942.6054   22551948.5814
     -2799.067       -2181.091
 97  4 29 15 14 29.9990000  0  7 31 27 19  7  2 10 18               -0.000285233
   1842864.603 9   1432900.72747  22349846.022    22349846.1084   22349850.9504
     -1601.989       -1248.303
  -3226279.786 9  -2348699.34848  20445322.843    20445323.0024   20445327.9414
      1852.807        1443.746
    596058.370 9    463736.89548  20923628.616    20923629.1794   20923634.3374
      -594.225        -463.032
  -6127141.570 9  -4747713.39546  23934023.104    23934024.1804   23934030.7734
      4219.551        3287.962
  -3494161.742 9  -2714890.59848  21646774.439    21646774.3634   21646779.8794
      1995.800        1555.169
    716497.316 9    557806.89546  24023294.057    24023293.5384   24023300.1994
      -786.692        -613.007
   4123166.126 9   3200570.63847  22567945.231    22567945.1134   22567951.0684
     -2806.347       -2186.764
 97  4 29 15 14 59.9990000  0  7 31 27 19  7  2 10 18               -0.000297534
   1891178.299 9   1470547.73447  22359039.905    22359039.9364   22359044.8054
     -1618.824       -1261.421
  -3281728.847 9  -2391906.41148  20434771.133    20434771.4174   20434776.3614
      1843.699        1436.649
    614027.606 9    477738.87848  20927048.057    20927048.6184   20927053.7834
      -603.616        -470.350
  -6253700.317 9  -4846330.63146  23909940.112    23909940.8594   23909947.2954
      4217.616        3286.454
  -3553899.550 9  -2761439.52548  21635406.700    21635406.6324   21635412.1254
      1986.715        1548.090
    740286.109 9    576343.59246  24027821.028    24027820.3964   24027827.1394
      -799.158        -622.721
   4207472.605 9   3266263.95447  22583988.375    22583988.1304   22583994.0844
     -2813.942       -2192.682
 97  4 29 15 15 29.9990000  0  7 31 27 19  7  2 10 18               -0.000309830
   1939997.763 9   1508588.84747  22368330.068    22368330.0174   22368334.9114
     -1635.335       -1274.287
  -3336882.699 9  -2434883.44448  20424275.711    20424275.9974   20424280.9484
      1833.686        1428.846
    632280.806 9    491962.13248  20930521.534    20930522.0734   20930527.2744
      -613.015        -477.674
  -6380182.511 9  -4944888.18646  23885871.732    23885872.1924   23885878.4834
      4215.002        3284.417
  -3613345.982 9  -2807761.41148  21624094.345    21624094.3464   21624099.8374
      1976.849        1540.402
    764461.049 9    595181.17646  24032421.281    24032420.7594   24032427.5254
      -812.032        -632.752
   4292018.539 9   3332143.86847  22600076.742    22600076.6904   22600082.6604
     -2822.079       -2199.023
 97  4 29 15 15 59.9990000  0  7 31 27 19  7  2 10 18               -0.000322129
   1989307.030 9   1547011.63247  22377713.342    22377713.2364   22377718.1854
     -1650.740       -1286.291
  -3391728.686 9  -2477620.58348  20413838.925    20413839.1564   20413844.1314
      1823.917        1421.234
    650832.618 9    506418.06848  20934051.843    20934052.3804   20934057.5914
      -622.628        -485.165
  -6506578.738 9  -5043378.76446  23861820.062    23861819.8474   23861826.1604
      4212.619        3282.560
  -3672490.353 9  -2853847.92148  21612839.567    21612839.5304   21612845.0554
      1967.381        1533.024
    789030.461 9    614326.12846  24037096.738    24037096.2134   24037102.9624
      -824.560        -642.514
   4376817.548 9   3398220.98747  22616213.332    22616213.4144   22616219.3834
     -2830.005       -2205.199
 97  4 29 15 16 29.9990000  0  7 31 27 19  7  2 10 18               -0.000334462
   2039051.106 9   1585773.22847  22387179.546    22387179.2504   22387184.2314
     -1665.555       -1297.835
  -3446304.228 9  -2520146.98248  20403453.511    20403453.7804   20403458.7634
      1814.746        1414.088
    669656.929 9    521086.34348  20937634.119    20937634.5544   20937639.7674
      -632.204        -492.626
  -6632915.977 9  -5141823.35246  23837778.851    23837778.7244   23837785.0024
      4209.991        3280.512
  -3731368.863 9  -2899727.26848  21601635.387    21601635.3114   21601640.8144
      1958.119        1525.807
    813955.078 9    633747.87746  24041839.445    24041839.2984   24041845.9194
      -836.995        -652.204
   4461835.605 9   3464468.77947  22632391.832    22632391.8514   22632397.8504
     -2837.665       -2211.168
 97  4 29 15 16 59.9990000  0  8 31 27 26 19  7  2 10 18            -0.000346786
   2089274.962 9   1624908.67847  22396736.842    22396736.6324   22396741.5904
     -1683.353       -1311.704
  -3500584.953 9  -2562443.65048  20393124.367    20393124.5074   20393129.4964
      1803.262        1405.139
  -1929198.64919  -1480152.78855  25221997.794    25221997.9945   25222003.3505
      3902.767        3041.117
    688806.768 9    536008.27748  20941278.233    20941278.6694   20941283.8974
      -645.147        -502.712
  -6759146.340 9  -5240184.65046  23813757.718    23813757.9034   23813764.2424
      4204.621        3276.328
  -3789951.559 9  -2945376.10948  21590487.459    21590487.3954   21590492.9064
      1946.844        1517.021
    839293.254 9    653491.87446  24046661.301    24046660.9824   24046667.6884
      -852.896        -664.594
   4547110.285 9   3530916.54147  22648618.782    22648619.1164   22648625.1764
     -2847.975       -2219.201
 97  4 29 15 17 29.9990000  0  8 31 27 26 19  7  2 10 18            -0.000359089
   2139988.346 9   1664425.58147  22406387.393    22406387.1144   22406392.0754
     -1698.941       -1323.850
  -3554557.016 9  -2604499.80248  20382853.762    20382853.9744   20382858.9834
      1793.581        1397.596
  -2046224.805 9  -1571342.00546  25199728.235    25199728.6524   25199734.0604
      3897.946        3037.361
    708310.495 9    551205.96648  20944989.614    20944990.1234   20944995.3624
      -656.376        -511.462
  -6885256.327 9  -5338452.14046  23789760.076    23789759.9894   23789766.2834
      4201.539        3273.926
  -3848245.862 9  -2990800.22948  21579394.392    21579394.3454   21579399.8354
      1938.381        1510.427
    865064.981 9    673573.71846  24051565.445    24051565.2114   24051571.8624
      -866.317        -675.052
   4632650.954 9   3597571.57047  22664896.534    22664896.9774   22664903.0804
     -2855.955       -2225.419
 97  4 29 15 17 59.9990000  0  8 31 27 26 19  7  2 10 18            -0.000371392
   2191169.991 9   1704307.36347  22416126.958    22416126.6664   22416131.6444
     -1714.842       -1336.241
  -3608235.666 9  -2646327.32048  20372638.964    20372639.2674   20372644.3044
      1783.466        1389.714
  -2163118.099 9  -1662427.71646  25177483.672    25177484.5404   25177490.0014
      3893.527        3033.917
    728155.513 9    566669.59548  20948766.065    20948766.5374   20948771.7774
      -668.091        -520.590
  -7011275.617 9  -5436648.94446  23765779.159    23765779.3024   23765785.7394
      4198.296        3271.399
  -3906297.567 9  -3036035.31148  21568347.523    21568347.4734   21568352.9494
      1930.272        1504.108
    891227.621 9    693960.16746  24056544.061    24056543.8074   24056550.4554
      -879.295        -685.165
   4718427.359 9   3664410.29147  22681219.447    22681219.7294   22681225.8194
     -2863.953       -2231.652
 97  4 29 15 18 29.9990000  0  8 31 27 26 19  7  2 10 18            -0.000383679
   2242850.491 9   1744577.85947  22425961.326    22425961.1434   22425966.1004
     -1731.087       -1348.899
  -3661599.691 9  -2687909.67748  20362484.228    20362484.4444   20362489.4744
      1773.721        1382.120
  -2279868.167 9  -1753401.81846  25155267.159    25155267.6954   25155273.2534
      3889.229        3030.568
    748366.531 9    582418.41748  20952612.204    20952612.5974   20952617.8224
      -679.528        -529.502
  -7137191.741 9  -5534765.36046  23741818.304    23741818.3094   23741824.7104
      4195.730        3269.400
  -3964094.783 9  -3081072.09848  21557349.115    21557349.0304   21557354.4954
      1922.475        1498.032
    917790.491 9    714658.47646  24061598.866    24061598.6264   24061605.2854
      -891.855        -694.952
   4804457.689 9   3731446.87147  22697590.563    22697590.8204   22697596.9614
     -2871.745       -2237.723
 97  4 29 15 18 59.9990000  0  8 31 27 26 19  7  2 10 18            -0.000395945
   2295042.632 9   1785247.04247  22435893.312    22435893.0534   22435897.9794
     -1747.934       -1362.026
  -3714647.804 9  -2729245.87048  20352389.490    20352389.7214   20352394.7684
      1763.203        1373.924
  -2396462.874 9  -1844254.84246  25133080.374    25133080.4184   25133086.1374
      3884.130        3026.595
    768931.948 9    598443.39948  20956525.655    20956526.1024   20956531.3244
      -690.887        -538.354
  -7263019.957 9  -5632813.28146  23717874.152    23717874.0224   23717880.5064
      4193.139        3267.381
  -4021643.652 9  -3125915.36348  21546397.862    21546397.8294   21546403.3074
      1914.437        1491.769
    944744.207 9    735661.31746  24066728.032    24066727.7594   24066734.4554
      -904.489        -704.797
   4890736.634 9   3798677.18647  22714009.134    22714009.2504   22714015.3224
     -2879.838       -2244.030
 97  4 29 15 19 29.9990000  0  8 31 27 26 19  7  2 10 18            -0.000408208
   2347726.192 9   1826299.14647  22445918.729    22445918.4234   22445923.3534
     -1764.008       -1374.552
  -3767393.470 9  -2770346.38948  20342352.330    20342352.5434   20342357.5974
      1753.647        1366.478
  -2512916.127 9  -1934997.63746  25110920.100    25110920.0684   25110925.8594
      3879.722        3023.160
    789813.684 9    614714.86548  20960499.348    20960499.8214   20960505.0184
      -700.659        -545.968
  -7388777.270 9  -5730805.94746  23693943.243    23693943.1264   23693949.5904
      4190.938        3265.666
  -4078952.178 9  -3170571.34848  21535492.452    21535492.4034   21535497.8744
      1906.356        1485.472
    972048.012 9    756936.97346  24071923.868    24071923.5444   24071930.3174
      -915.162        -713.113
   4977243.963 9   3866085.45847  22730470.993    22730471.0864   22730477.1734
     -2886.897       -2249.530
 97  4 29 15 19 59.9990000  0  8 31 27 26 19  7  2 10 18            -0.000420476
   2400894.868 9   1867729.27447  22456036.157    22456036.1074   22456041.0594
     -1780.981       -1387.777
  -3819860.579 9  -2811229.85148  20332368.271    20332368.3814   20332373.4284
      1743.851        1358.845
  -2629227.570 9  -2025629.92546  25088785.964    25088786.6894   25088792.5544
      3873.869        3018.599
    810977.171 9    631205.87648  20964526.572    20964527.1214   20964532.3274
      -710.586        -553.703
  -7514460.024 9  -5828740.52446  23670026.467    23670026.4344   23670032.9834
      4187.541        3263.019
  -4135998.974 9  -3215023.38848  21524636.818    21524636.7494   21524642.2284
      1896.328        1477.658
    999672.395 9    778462.43046  24077180.824    24077180.3904   24077187.0544
      -926.857        -722.226
   5063960.768 9   3933656.95647  22746972.716    22746972.8094   22746978.9004
     -2894.621       -2255.549
 97  4 29 15 20 29.9990000  0  8 31 27 26 19  7  2 10 18            -0.000432745
   2454541.897 9   1909532.13447  22466244.733    22466244.7914   22466249.7664
     -1795.838       -1399.354
  -3872063.941 9  -2851907.79748  20322434.311    20322434.4134   20322439.4604
      1735.866        1352.623
  -2745377.927 9  -2116136.70846  25066683.330    25066684.0404   25066689.7624
      3869.086        3014.872
    832401.080 9    647899.81748  20968603.395    20968603.9664   20968609.1774
      -717.982        -559.466
  -7640070.458 9  -5926618.74846  23646123.556    23646123.5584   23646130.0714
      4185.980        3261.803
  -4192764.672 9  -3259256.39148  21513834.627    21513834.5704   21513840.0484
      1887.665        1470.908
   1027619.042 9    800239.00246  24082498.868    24082498.4294   24082505.0544
      -936.730        -729.919
   5150880.431 9   4001386.52247  22763513.222    22763513.1334   22763519.2194
     -2900.481       -2260.115
 97  4 29 15 20 59.9990000  0  8 31 27 26 19  7  2 10 18            -0.000445020
   2508648.578 9   1951693.17347  22476540.791    22476540.9394   22476545.9514
     -1811.016       -1411.181
  -3923999.453 9  -2892377.03148  20312551.335    20312551.4314   20312556.4644
      1726.893        1345.631
  -2861359.982 8  -2206512.33746  25044613.214    25044613.3744   25044619.0464
      3863.351        3010.403
    854067.635 9    664782.82948  20972726.373    20972726.9864   20972732.1894
      -726.225        -565.890
  -7765600.271 9  -6024434.17246  23622236.229    23622236.0284   23622242.6094
      4182.893        3259.397
  -4249245.992 9  -3303267.80548  21503086.572    21503086.5124   21503091.9604
      1878.145        1463.490
   1055890.420 9    822268.60046  24087878.803    24087878.3394   24087884.9444
      -947.736        -738.495
   5237997.685 9   4069270.05647  22780091.052    22780091.0294   22780097.1344
     -2907.127       -2265.294
 97  4 29 15 21 29.9990000  0  8 31 27 26 19  7  2 10 18            -0.000457283
   2563228.400 9   1994222.88747  22486927.093    22486927.1564   22486932.1194
     -1827.374       -1423.928
  -3975661.001 9  -2932632.78348  20302720.453    20302720.5624   20302725.5744
      1717.403        1338.236
  -2977164.249 8  -2296749.42546  25022576.158    25022576.6384   25022582.1624
      3857.124        3005.551
    876001.381 9    681874.04248  20976900.301    20976900.8884   20976906.0844
      -735.816        -573.363
  -7891016.442 9  -6122161.04146  23598370.034    23598370.1424   23598376.7434
      4178.633        3256.078
  -4305428.266 9  -3347046.19648  21492395.454    21492395.4084   21492400.8414
      1867.825        1455.448
   1084509.851 9    844569.43446  24093324.861    24093324.5584   24093331.0674
      -959.932        -747.999
   5325323.752 9   4137316.30047  22796708.647    22796708.6554   22796714.7714
     -2914.307       -2270.889
 97  4 29 15 21 59.9990000  0  8 31 27 26 19  7  2 10 18            -0.000469529
   2618279.143 9   2037119.55847  22497403.124    22497402.9654   22497407.9354
     -1843.037       -1436.133
  -4027052.050 9  -2972677.75248  20292941.044    20292941.1854   20292946.1904
      1708.385        1331.209
  -3092794.502 8  -2386850.91346  25000572.189    25000572.9324   25000578.4404
      3851.428        3001.113
    898217.412 9    699185.21948  20981127.958    20981128.4784   20981133.6834
      -745.519        -580.924
  -8016327.724 9  -6219806.19646  23574523.396    23574524.1584   23574530.7844
      4175.253        3253.444
  -4361331.952 9  -3390607.50448  21481757.349    21481757.2764   21481762.7644
      1859.081        1448.635
   1113486.328 9    867148.46646  24098839.018    24098838.5764   24098845.0894
      -972.171        -757.536
   5412854.758 9   4205522.24647  22813365.159    22813365.2434   22813371.3994
     -2921.368       -2276.391
 97  4 29 15 22 29.9990000  0  8 31 27 26 19  7  2 10 18            -0.000481738
   2673815.303 9   2080394.47947  22507971.275    22507971.1864   22507976.1294
     -1859.514       -1448.972
  -4078158.416 9  -3012500.90048  20283215.847    20283215.9654   20283220.9974
      1698.666        1323.636
  -3208240.649 8  -2476808.92045  24978604.180    24978604.2774   24978609.8784
      3845.332        2996.363
    920747.184 9    716740.86548  20985415.297    20985415.7934   20985420.9864
      -756.542        -589.513
  -8141520.021 9  -6317358.64046  23550700.147    23550700.8014   23550707.4254
      4170.782        3249.960
  -4416975.245 9  -3433965.91348  21471168.744    21471168.7224   21471174.2314
      1850.555        1441.991
   1142852.340 9    890031.03046  24104427.108    24104426.7574   24104433.3774
      -985.595        -767.996
   5500613.714 9   4273905.81047  22830065.221    22830065.2084   22830071.4614
     -2929.229       -2282.516
 97  4 29 15 22 59.9990000  0  8 31 27 26 19  7  2 10 18            -0.000493880
   2729868.215 9   2124072.07247  22518637.742    22518637.7314   22518642.6584
     -1877.381       -1462.894
  -4128963.936 9  -3052089.61548  20273547.902    20273548.0014   20273553.0404
      1688.387        1315.626
  -3323494.019 8  -2566616.73745  24956672.148    24956672.0184   24956677.8704
      3838.314        2990.894
    943634.545 9    734575.15648  20989770.626    20989771.1414   20989776.3184
      -769.364        -599.504
  -8266552.491 9  -6414786.54846  23526907.395    23526907.7814   23526914.4304
      4164.791        3245.292
  -4472353.001 9  -3477117.40748  21460630.732    21460630.6734   21460636.2194
      1841.342        1434.812
   1172637.073 9    913239.87846  24110095.040    24110094.5794   24110101.2904
      -999.946        -779.179
   5588622.111 9   4342483.72847  22846812.727    22846812.6464   22846818.9434
     -2937.985       -2289.339
 97  4 29 15 23 29.9990000  0  8 31 27 26 19  7  2 10 18            -0.000505953
   2786448.206 9   2168160.36547  22529404.737    22529404.5574   22529409.4914
     -1894.275       -1476.058
  -4179472.333 9  -3091446.81348  20263936.439    20263936.5744   20263941.6254
      1678.843        1308.189
  -3438545.175 8  -2656266.97945  24934778.155    24934778.4044   24934784.3014
      3832.032        2985.999
    966897.849 9    752702.39048  20994197.379    20994198.0094   20994203.2074
      -781.245        -608.762
  -8391424.095 9  -6512089.09046  23503145.012    23503145.4764   23503152.0934
      4160.325        3241.812
  -4527465.832 9  -3520062.47048  21450143.097    21450143.0574   21450148.5994
      1832.942        1428.266
   1202831.958 9    936768.32146  24115841.068    24115840.5394   24115847.2784
     -1012.696        -789.114
   5676882.496 9   4411258.02247  22863608.059    22863608.0434   22863614.3834
     -2945.824       -2295.447
 97  4 29 15 23 59.9990000  0  8 31 27 26 19  7  2 10 18            -0.000518003
   2843498.536 9   2212615.16147  22540261.058    22540260.9084   22540265.8304
     -1909.195       -1487.684
  -4229706.582 9  -3130590.38748  20254377.246    20254377.3524   20254382.3384
      1670.101        1301.377
  -3553415.536 8  -2745776.33645  24912918.371    24912919.3114   24912925.1894
      3826.199        2981.454
    990492.613 9    771087.90248  20998687.323    20998687.9734   20998693.1634
      -791.642        -616.864
  -8516182.840 9  -6609303.70246  23479404.509    23479404.6904   23479411.2254
      4156.817        3239.078
  -4582343.724 9  -3562824.46248  21439700.200    21439700.1464   21439705.6934
      1825.467        1422.442
   1233375.619 9    960568.53346  24121653.324    24121652.7654   24121659.5574
     -1023.449        -797.493
   5765364.894 9   4480205.30047  22880445.600    22880445.7344   22880452.1144
     -2952.911       -2300.970
 97  4 29 15 24 29.9990000  0  8 31 27 26 19  7  2 10 18            -0.000530020
   2901039.731 9   2257452.44147  22551210.865    22551210.6834   22551215.5714
     -1926.415       -1501.102
  -4279627.407 9  -3169489.73248  20244877.669    20244877.7484   20244882.7204
      1658.240        1292.135
  -3668071.301 8  -2835118.47946  24891100.252    24891101.0684   24891106.9824
      3817.964        2975.037
   1014441.953 9    789749.71148  21003244.712    21003245.4054   21003250.5974
      -804.575        -626.942
  -8640784.212 9  -6706395.67846  23455693.777    23455693.8334   23455700.2894
      4150.436        3234.106
  -4636937.979 9  -3605365.43949  21429311.235    21429311.2204   21429316.7884
      1814.474        1413.876
   1264277.769 9    984648.09146  24127533.980    24127533.2994   24127540.1774
     -1036.135        -807.378
   5854099.700 9   4549349.25947  22897331.439    22897331.4304   22897337.7814
     -2962.130       -2308.153
 97  4 29 15 24 59.9990000  0  8 31 27 26 19  7  2 10 18            -0.000542025
   2959065.939 9   2302667.64947  22562252.809    22562252.6854   22562257.5794
     -1941.862       -1513.139
  -4329206.302 9  -3208122.64248  20235443.112    20235443.1814   20235448.1724
      1646.934        1283.325
  -3782494.611 9  -2924279.50546  24869326.145    24869327.1234   24869332.8954
      3810.279        2969.049
   1038752.992 9    808693.35848  21007871.050    21007871.6804   21007876.8594
      -815.954        -635.808
  -8765227.041 9  -6803364.12246  23432012.949    23432013.2604   23432019.5454
      4145.974        3230.629
  -4691213.820 9  -3647658.30049  21418982.936    21418982.8994   21418988.4744
      1803.902        1405.638
   1295526.705 9   1008997.88546  24133480.510    24133479.8634   24133486.6714
     -1047.144        -815.956
   5943087.488 9   4618690.37247  22914265.196    22914265.2744   22914271.6274
     -2970.350       -2314.558
 97  4 29 15 25 29.9990000  0  8 31 27 26 19  7  2 10 18            -0.000554059
   3017515.748 9   2348212.93747  22573375.441    22573375.3194   22573380.2244
     -1955.312       -1523.620
  -4378470.471 9  -3246510.31248  20226068.492    20226068.5414   20226073.5264
      1636.895        1275.503
  -3896724.226 9  -3013289.61946  24847589.094    24847589.9834   24847595.8724
      3804.577        2964.605
   1063356.135 9    827864.61648  21012552.924    21012553.5484   21012558.7344
      -824.662        -642.594
  -8889580.453 9  -6900262.87346  23408349.245    23408349.5074   23408355.8714
      4143.663        3228.828
  -4745201.333 9  -3689726.48849  21408709.521    21408709.4294   21408715.0044
      1794.820        1398.561
   1327069.076 9   1033576.30446  24139482.825    24139482.2304   24139489.0004
     -1056.334        -823.117
   6032277.163 9   4688188.76447  22931237.651    22931237.5654   22931243.9154
     -2976.067       -2319.013
 97  4 29 15 25 59.9990000  0  8 31 27 26 19  7  2 10 18            -0.000566115
   3076390.001 9   2394088.95947  22584578.884    22584578.7574   22584583.7024
     -1970.518       -1535.469
  -4427411.235 9  -3284645.97348  20216755.352    20216755.4274   20216760.4134
      1625.202        1266.391
  -4010778.720 9  -3102163.25046  24825885.381    24825886.1974   24825892.0814
      3798.424        2959.811
   1088237.389 9    847252.59248  21017287.712    21017288.3124   21017293.5224
      -834.880        -650.556
  -9013835.961 9  -6997085.32546  23384703.984    23384704.5414   23384710.8764
      4139.268        3225.404
  -4798902.150 9  -3731571.27149  21398490.585    21398490.5344   21398496.1074
      1784.706        1390.680
   1358916.590 9   1058392.52046  24145543.278    24145542.5924   24145549.3924
     -1067.741        -832.006
   6121652.834 9   4757832.11147  22948245.423    22948245.2454   22948251.5974
     -2982.911       -2324.346
 97  4 29 15 26 29.9990000  0  8 31 27 26 19  7  2 10 18            -0.000578165
   3135718.551 9   2440318.97047  22595868.673    22595868.6624   22595873.5904
     -1985.100       -1546.831
  -4476010.179 9  -3322515.28448  20207507.259    20207507.3684   20207512.3274
      1614.267        1257.870
  -4124666.181 9  -3190906.75546  24804213.359    24804214.1754   24804220.2164
      3793.598        2956.050
   1113413.110 9    866870.01648  21022078.548    21022079.1264   21022084.3514
      -844.009        -657.669
  -9137972.268 9  -7093814.88846  23361081.708    23361082.2664   23361088.5684
      4136.049        3222.895
  -4852314.956 9  -3773191.63249  21388326.496    21388326.4124   21388331.9914
      1775.813        1383.750
   1391111.138 9   1083479.14646  24151669.688    24151669.0844   24151675.8254
     -1079.050        -840.818
   6211212.817 9   4827619.06947  22965287.928    22965287.9514   22965294.2814
     -2988.171       -2328.445
 97  4 29 15 26 59.9990000  0  8 31 27 26 19  7  2 10 18            -0.000590188
   3195514.495 9   2486913.18347  22607247.584    22607247.4624   22607252.4034
     -2001.449       -1559.571
  -4524254.163 9  -3360108.00648  20198326.743    20198326.8404   20198331.7994
      1601.911        1248.242
  -4238373.484 9  -3279509.87645  24782575.700    24782576.5344   24782582.3794
      3786.866        2950.805
   1138890.283 9    886722.34348  21026926.785    21026927.2994   21026932.5224
      -854.686        -665.989
  -9261982.865 9  -7190446.48046  23337483.426    23337483.8374   23337490.1114
      4131.200        3219.117
  -4905445.868 9  -3814592.33449  21378216.034    21378215.9414   21378221.5074
      1766.212        1376.269
   1423681.756 9   1108858.78646  24157867.765    24157867.1334   24157873.8694
     -1092.337        -851.172
   6300960.026 9   4897551.91247  22982366.058    22982366.3404   22982372.6554
     -2995.116       -2333.857
 97  4 29 15 27 29.9990000  0  8 31 27 26 19  7  2 10 18            -0.000602159
   3255811.919 9   2533898.15347  22618721.775    22618721.6854   22618726.6454
     -2018.395       -1572.775
  -4572124.522 9  -3397409.58748  20189217.354    20189217.4384   20189222.3824
      1589.603        1238.652
  -4351873.162 9  -3367951.21845  24760977.558    24760978.2394   24760983.9194
      3779.709        2945.228
   1164702.028 9    906835.37448  21031838.559    21031839.1494   21031844.3854
      -866.280        -675.023
  -9385825.186 9  -7286946.97146  23313917.156    23313917.5344   23313923.7184
      4124.829        3214.152
  -4958293.603 9  -3855772.37749  21368159.453    21368159.3764   21368164.9384
      1757.104        1369.172
   1456652.155 9   1134549.97446  24164141.728    24164141.1234   24164148.0854
     -1105.586        -861.495
   6390918.464 9   4967649.35747  22999484.716    22999484.9014   22999491.2024
     -3002.280       -2339.439
 97  4 29 15 27 59.9990000  0  8 31 27 26 19  7  2 10 18            -0.000614077
   3316603.296 9   2581268.02247  22630290.042    22630289.8954   22630294.9274
     -2033.823       -1584.797
  -4619641.266 9  -3434435.62948  20180175.202    20180175.3224   20180180.2394
      1578.726        1230.176
  -4465161.810 9  -3456228.11945  24739419.200    24739420.1494   24739425.7444
      3773.181        2940.141
   1190865.014 9    927222.09848  21036817.290    21036817.8224   21036823.0744
      -877.352        -683.651
  -9509484.653 9  -7383304.95546  23290385.629    23290385.9864   23290392.1604
      4119.583        3210.065
  -5010891.901 9  -3896758.05849  21358150.326    21358150.2674   21358155.8584
      1749.886        1363.548
   1490000.347 9   1160535.54346  24170487.554    24170487.1024   24170494.1304
     -1116.887        -870.302
   6481091.135 9   5037913.74647  23016643.875    23016644.2224   23016650.4454
     -3008.691       -2344.435
 97  4 29 15 28 29.9990000  0  8 31 27 26 19  7  2 10 18            -0.000625966
   3377858.505 9   2628999.31747  22641946.470    22641946.3364   22641951.4424
     -2049.527       -1597.034
  -4666826.263 9  -3471203.16648  20171196.206    20171196.3504   20171201.2344
      1567.238        1221.224
  -4578225.752 9  -3544329.93345  24717903.793    24717904.7654   24717910.1434
      3764.761        2933.580
   1217364.755 9    947871.23548  21041859.983    21041860.5724   21041865.8654
      -888.886        -692.638
  -9632974.011 9  -7479530.39646  23266886.398    23266886.7784   23266892.9744
      4113.395        3205.243
  -5063254.906 9  -3937560.39149  21348185.970    21348185.9304   21348191.5184
      1741.279        1356.841
   1523681.284 9   1186780.38546  24176896.951    24176896.4704   24176903.4354
     -1127.902        -878.885
   6571462.719 9   5108333.13647  23033840.806    23033841.4154   23033847.6104
     -3015.696       -2349.893
 97  4 29 15 28 59.9990000  0  9 31 27 26 15 19  7  2 10 18         -0.000637846
   3439557.552 9   2677076.44847  22653687.307    22653687.2594   22653692.3954
     -2064.222       -1608.485
  -4713698.439 9  -3507726.95048  20162276.773    20162276.9154   20162281.7764
      1557.202        1213.404
  -4691058.499 9  -3632251.59145  24696432.642    24696433.5044   24696438.6894
      3757.081        2927.596
  -3268512.69118  -2526784.83155  24919000.631    24919000.5045   24919008.2625
      3020.293        2353.475
   1244191.290 9    968775.01448  21046964.923    21046965.5124   21046970.8414
      -899.878        -701.204
  -9756302.259 9  -7575630.29147  23243417.628    23243418.1624   23243424.3944
      4108.121        3201.133
  -5115389.815 9  -3978184.98849  21338264.979    21338264.9744   21338270.5794
      1733.848        1351.050
   1557650.164 9   1213249.58646  24183361.060    24183360.5684   24183367.5414
     -1137.115        -886.064
   6662023.412 9   5178899.86647  23051074.055    23051074.5494   23051080.7514
     -3022.099       -2354.882
 97  4 29 15 29 29.9990000  0  9 31 27 26 15 19  7  2 10 18         -0.000649723
   3501689.313 9   2725490.76347  22665510.480    22665510.5404   22665515.7544
     -2078.256       -1619.420
  -4760282.450 9  -3544026.18148  20153412.094    20153412.2564   20153417.1544
      1548.128        1206.333
  -4803667.333 9  -3719998.75745  24675004.160    24675004.7764   24675009.8394
      3749.928        2922.022
  -3359065.683 8  -2597345.63245  24901768.780    24901769.1284   24901776.3554
      3016.344        2350.398
   1271332.123 9    989923.69948  21052129.570    21052130.2204   21052135.6014
      -909.760        -708.904
  -9879477.076 9  -7671610.62247  23219978.013    23219978.6684   23219985.0994
      4103.215        3197.310
  -5167303.241 9  -4018636.99949  21328386.205    21328386.1674   21328391.7754
      1726.721        1345.497
   1591878.045 9   1239920.61646  24189874.531    24189874.0524   24189880.9714
     -1145.314        -892.452
   6752763.437 9   5249606.34447  23068341.424    23068341.8314   23068348.0524
     -3027.527       -2359.112
 97  4 29 15 29 59.9990000  0  9 31 27 26 15 19  7  2 10 18         -0.000661587
   3564265.626 9   2774251.47947  22677418.283    22677418.4324   22677423.6554
     -2092.503       -1630.522
  -4806566.164 9  -3580091.41948  20144604.602    20144604.7724   20144609.6774
      1538.264        1198.647
  -4916037.979 9  -3807560.30346  24653620.449    24653621.4884   24653626.4424
      3742.390        2916.148
  -3449472.542 8  -2667792.54745  24884564.845    24884565.1584   24884572.4174
      3011.697        2346.777
   1298791.164 9   1011320.33348  21057354.924    21057355.5224   21057360.9084
      -919.808        -716.734
 -10002485.050 9  -7767460.96847  23196570.463    23196570.9714   23196577.5384
      4098.194        3193.398
  -5218963.758 9  -4058891.94249  21318555.548    21318555.5234   21318561.1084
      1717.957        1338.668
   1626382.968 9   1266807.52546  24196440.706    24196440.1874   24196447.1174
     -1154.165        -899.349
   6843685.739 9   5320454.85147  23085643.208    23085643.7724   23085650.0374
     -3032.917       -2363.312
 97  4 29 15 30 29.9990000  0  9 31 27 26 15 19  7  2 10 18         -0.000673460
   3627251.635 9   2823331.45047  22689404.221    22689404.2684   22689409.5414
     -2106.418       -1641.365
  -4852563.185 9  -3615933.25748  20135851.717    20135851.8544   20135856.7444
      1528.370        1190.938
  -5028199.806 9  -3894959.15246  24632276.713    24632277.8204   24632282.8624
      3735.532        2910.804
  -3539748.537 8  -2738137.43345  24867385.893    24867386.2034   24867393.2374
      3006.992        2343.111
   1326537.400 9   1032940.75548  21062634.917    21062635.4764   21062640.8544
      -929.778        -724.502
 -10125352.464 9  -7863201.78447  23173189.513    23173190.0444   23173196.6664
      4093.301        3189.585
  -5270353.521 9  -4098935.90549  21308776.399    21308776.3724   21308781.9634
      1708.420        1331.236
   1661149.639 9   1293898.39246  24203056.535    24203056.1054   24203063.1084
     -1163.538        -906.653
   6934755.840 9   5391418.52847  23102973.256    23102973.7884   23102980.1264
     -3038.252       -2367.469
 97  4 29 15 30 59.9990000  0  9 31 27 26 15 19  7  2 10 18         -0.000685372
   3690654.623 9   2872736.33747  22701469.192    22701469.4644   22701474.7954
     -2120.293       -1652.176
  -4898263.065 9  -3651543.55948  20127155.365    20127155.5074   20127160.3824
      1518.514        1183.258
  -5140156.545 9  -3982198.18446  24610972.536    24610973.2154   24610978.4184
      3728.430        2905.270
  -3629881.036 8  -2808370.54145  24850233.980    24850234.5164   24850241.7834
      3002.091        2339.292
   1354588.539 9   1054798.76548  21067972.870    21067973.4524   21067978.8514
      -940.137        -732.574
 -10248073.158 9  -7958828.27047  23149836.482    23149837.0044   23149843.7684
      4088.344        3185.723
  -5321462.186 9  -4138760.82749  21299050.732    21299050.7244   21299056.3094
      1699.050        1323.935
   1696213.574 9   1321220.88846  24209729.153    24209728.5774   24209735.5684
     -1173.931        -914.751
   7025990.515 9   5462510.44747  23120334.775    23120335.1774   23120341.5544
     -3043.779       -2371.776
 97  4 29 15 31 29.9990000  0  9 31 27 26 15 19  7  2 10 18         -0.000697220
   3754467.829 9   2922460.87947  22713612.562    22713612.7584   22713618.0634
     -2133.376       -1662.371
  -4943669.147 9  -3686924.92448  20118514.897    20118515.0444   20118519.8774
      1508.980        1175.829
  -5251902.979 9  -4069273.31446  24589707.834    24589708.6644   24589713.8424
      3721.791        2900.097
  -3719870.674 9  -2878492.27545  24833109.651    24833109.9754   24833117.3924
      2997.741        2335.902
   1382945.735 9   1076895.25848  21073369.068    21073369.6504   21073375.0734
      -949.830        -740.127
 -10370646.214 9  -8054339.72947  23126511.795    23126512.0984   23126518.9304
      4083.688        3182.095
  -5372286.587 9  -4178364.24649  21289379.201    21289379.1854   21289384.7644
      1689.794        1316.723
   1731590.835 9   1348787.53246  24216461.260    24216460.7044   24216467.7154
     -1184.025        -922.617
   7117378.848 9   5533722.09846  23137725.469    23137725.8974   23137732.1904
     -3048.312       -2375.308
 97  4 29 15 31 59.9990000  0  9 31 27 26 15 19  7  2 10 18         -0.000709067
   3818675.160 9   2972492.53147  22725831.088    22725831.0164   22725836.3024
     -2146.927       -1672.930
  -4988769.010 9  -3722067.68148  20109932.698    20109932.8254   20109937.6484
      1497.877        1167.177
  -5363437.951 8  -4156183.68346  24568483.059    24568484.2724   24568489.5844
      3714.124        2894.122
  -3809712.933 8  -2948499.17245  24816013.396    24816013.3624   24816020.8374
      2992.036        2331.457
   1411612.006 9   1099232.58648  21078824.103    21078824.7404   21078830.1304
      -960.799        -748.675
 -10493070.249 9  -8149735.06247  23103215.178    23103215.5714   23103222.4394
      4078.219        3177.833
  -5422816.456 9  -4217738.16249  21279763.720    21279763.7004   21279769.2394
      1679.208        1308.474
   1767286.586 9   1376602.36646  24223254.042    24223253.4494   24223260.4944
     -1195.298        -931.401
   7208918.411 9   5605051.58846  23155145.152    23155145.3604   23155151.6704
     -3054.084       -2379.806
 97  4 29 15 32 29.9990000  0  9 31 27 26 15 19  7  2 10 18         -0.000720905
   3883285.630 9   3022838.31347  22738126.171    22738126.0004   22738131.2984
     -2160.394       -1683.424
  -5033547.852 9  -3756960.28848  20101411.573    20101411.7124   20101416.5184
      1487.532        1159.116
  -5474750.472 9  -4242920.70946  24547301.649    24547302.2164   24547307.6704
      3706.972        2888.550
  -3899397.323 8  -3018383.06745  24798946.994    24798947.0374   24798954.5154
      2987.076        2327.592
   1440591.269 9   1121813.81448  21084338.679    21084339.3134   21084344.7374
      -970.890        -756.538
 -10615348.269 9  -8245016.62247  23079946.684    23079946.8664   23079953.7454
      4073.759        3174.358
  -5473058.949 9  -4256888.14949  21270202.920    21270202.8684   21270208.3954
      1670.798        1301.921
   1803308.827 9   1404671.59546  24230108.924    24230108.2844   24230115.3404
     -1206.095        -939.814
   7300624.581 9   5676510.89346  23172596.510    23172596.5504   23172602.7904
     -3059.429       -2383.971
 97  4 29 15 32 59.9990000  0  9 31 27 26 15 19  7  2 10 18         -0.000732725
   3948312.950 9   3073508.91947  22750500.594    22750500.3654   22750505.5774
     -2174.578       -1694.476
  -5078008.192 9  -3791604.71248  20092951.079    20092951.2144   20092956.0014
      1476.687        1150.665
  -5585837.925 9  -4329482.32346  24526162.140    24526162.9454   24526168.4334
      3699.027        2882.359
  -3988926.006 8  -3088145.61545  24781909.885    24781910.1414   24781917.8354
      2981.677        2323.385
   1469877.362 9   1144634.12448  21089911.681    21089912.2694   21089917.7124
      -981.335        -764.677
 -10737483.450 9  -8340186.89147  23056705.284    23056705.2784   23056712.2114
      4068.844        3170.528
  -5523057.917 9  -4295848.37549  21260688.475    21260688.3914   21260693.8974
      1662.608        1295.539
   1839663.673 9   1432999.99846  24237027.193    24237026.4884   24237033.4684
     -1217.239        -948.498
   7392493.377 9   5748096.91946  23190078.483    23190078.6494   23190084.8864
     -3064.791       -2388.149
 97  4 29 15 33 29.9990000  0  9 31 27 26 15 19  7  2 10 18         -0.000744524
   4013761.999 9   3124508.14647  22762955.247    22762954.9874   22762960.1054
     -2187.934       -1704.884
  -5122137.547 9  -3825991.22648  20084553.597    20084553.6994   20084558.4874
      1465.937        1142.289
  -5696687.966 9  -4415858.97546  24505068.089    24505068.8664   24505074.4194
      3691.758        2876.695
  -4078295.822 9  -3157784.36845  24764903.463    24764903.6644   24764911.3034
      2976.940        2319.694
   1499478.589 9   1167699.99248  21095544.607    21095545.2334   21095550.6904
      -991.234        -772.390
 -10859473.641 9  -8435244.17047  23033491.404    23033491.3014   23033498.2084
      4064.496        3167.140
  -5572807.766 9  -4334614.48249  21251221.308    21251221.2804   21251226.7854
      1654.854        1289.497
   1876341.390 9   1461580.00546  24244006.870    24244006.1334   24244013.0564
     -1227.110        -956.190
   7484518.243 9   5819804.56546  23207590.313    23207590.4084   23207596.7104
     -3069.507       -2391.824
 97  4 29 15 33 59.9990000  0  9 31 27 26 15 19  7  2 10 18         -0.000756315
   4079620.569 9   3175826.50147  22775487.743    22775487.5274   22775492.5454
     -2202.964       -1716.595
  -5165926.981 9  -3860112.86548  20076220.803    20076220.8554   20076225.6564
      1453.259        1132.410
  -5807309.366 9  -4502057.45046  24484017.290    24484018.2804   24484023.9214
      3682.872        2869.770
  -4167510.729 9  -3227302.44445  24747926.818    24747926.5734   24747934.2144
      2970.525        2314.695
   1529391.090 9   1191008.41748  21101236.818    21101237.3934   21101242.8764
     -1003.061        -781.606
 -10981329.083 9  -8530196.45547  23010303.136    23010302.9534   23010309.8204
      4058.975        3162.838
  -5622323.358 9  -4373198.04449  21241798.801    21241798.7484   21241804.2564
      1646.063        1282.646
   1913325.664 9   1490398.86346  24251044.790    24251044.0574   24251051.0764
     -1238.462        -965.035
   7576692.779 9   5891628.82746  23225130.604    23225130.7044   23225136.9664
     -3075.499       -2396.493
 97  4 29 15 34 29.9990000  0  9 31 27 26 15 19  7  2 10 18         -0.000768090
   4145901.321 9   3227473.80547  22788100.701    22788100.4224   22788105.3554
     -2215.851       -1726.637
  -5209374.056 9  -3893967.73448  20067953.109    20067953.1634   20067957.9654
      1442.958        1124.383
  -5917698.036 9  -4588074.57746  24463011.112    24463011.9814   24463017.6554
      3676.183        2864.558
  -4256563.622 9  -3296694.30445  24730980.376    24730980.3024   24730988.0414
      2966.138        2311.276
   1559630.708 9   1214571.72848  21106991.196    21106991.7834   21106997.2924
     -1013.266        -789.558
 -11103043.301 9  -8625038.69147  22987141.766    22987141.4694   22987148.2854
      4054.952        3159.703
  -5671614.668 9  -4411606.85049  21232418.952    21232418.9194   21232424.3734
      1639.688        1277.679
   1950609.292 9   1519451.00546  24258139.378    24258138.8804   24258146.0174
     -1247.354        -971.964
   7669011.198 9   5963565.21347  23242698.137    23242698.3884   23242704.6214
     -3079.242       -2399.409
 97  4 29 15 34 59.9990000  0  9 31 27 26 15 19  7  2 10 18         -0.000779868
   4212571.378 9   3279424.47547  22800787.579    22800787.3874   22800792.1914
     -2228.754       -1736.691
  -5252495.337 9  -3927568.73448  20059747.424    20059747.4964   20059752.2734
      1431.873        1115.745
  -6027871.950 9  -4673924.35546  24442045.645    24442046.4704   24442052.3384
      3668.649        2858.688
  -4345472.183 8  -3365973.68345  24714061.606    24714061.4724   24714069.3574
      2961.218        2307.443
   1590192.808 9   1238386.33648  21112806.945    21112807.5624   21112813.0884
     -1024.166        -798.051
 -11224621.890 9  -8719775.23547  22964005.875    22964005.8684   22964012.5894
      4050.274        3156.058
  -5720686.204 9  -4449844.40249  21223080.957    21223080.9154   21223086.3674
      1631.623        1271.395
   1988158.688 9   1548710.23846  24265284.727    24265284.3284   24265291.4724
     -1255.774        -978.525
   7761446.794 9   6035592.91847  23260288.491    23260288.3954   23260294.6174
     -3083.044       -2402.372
 97  4 29 15 35 29.9990000  0  9 31 27 26 15 19  7  2 10 18         -0.000791639
   4279652.526 9   3331695.45947  22813552.740    22813552.5634   22813557.2994
     -2243.224       -1747.967
  -5295250.257 9  -3960884.25748  20051611.383    20051611.5304   20051616.2924
      1418.623        1105.420
  -6137789.325 9  -4759574.24946  24421129.214    24421129.8634   24421135.6824
      3659.382        2851.466
  -4434205.046 8  -3435116.15545  24697176.079    24697176.0784   24697183.8814
      2954.340        2302.083
   1621106.207 9   1262474.67748  21118689.619    21118690.1914   21118695.7234
     -1036.408        -807.591
 -11346028.156 9  -8814377.50347  22940902.760    22940903.0134   22940909.7094
      4043.337        3150.652
  -5769481.167 9  -4487866.44049  21213795.587    21213795.5504   21213801.0014
      1621.519        1263.521
   2025978.014 9   1578179.79546  24272481.530    24272481.0564   24272488.2894
     -1265.386        -986.015
   7854026.910 9   6107733.22146  23277905.732    23277905.9004   23277912.1354
     -3088.938       -2406.965
 97  4 29 15 35 59.9990000  0  9 31 27 26 15 19  7  2 10 18         -0.000803406
   4347137.731 9   3384281.30047  22826394.865    22826394.5914   22826399.3224
     -2257.040       -1758.732
  -5337640.610 9  -3993915.70348  20043544.866    20043544.9364   20043549.6754
      1406.413        1095.906
  -6247464.213 9  -4845035.17646  24400258.622    24400259.4594   24400265.2714
      3651.212        2845.100
  -4522760.255 8  -3504120.21245  24680324.749    24680324.5874   24680332.1694
      2948.103        2297.223
   1652348.148 9   1286819.02548  21124634.763    21124635.3864   21124640.8894
     -1047.459        -816.202
 -11467245.490 9  -8908832.55347  22917835.556    22917836.1464   22917842.8054
      4036.635        3145.430
  -5818004.472 9  -4525676.80249  21204561.855    21204561.8494   21204567.2984
      1612.236        1256.288
   2064057.109 9   1607851.78346  24279727.953    24279727.2524   24279734.5804
     -1274.369        -993.015
   7946757.977 9   6179991.14246  23295551.782    23295552.0304   23295558.3914
     -3094.370       -2411.197
 97  4 29 15 36 29.9990000  0  9 31 27 26 15 19  7  2 10 18         -0.000815174
   4415008.937 9   3437167.92547  22839310.291    22839310.0974   22839314.8614
     -2268.788       -1767.887
  -5379701.689 9  -4026690.57048  20035540.920    20035540.9824   20035545.6964
      1396.456        1088.148
  -6356926.985 9  -4930330.82446  24379428.542    24379429.3904   24379435.2884
      3645.154        2840.380
  -4611153.161 8  -3572997.79045  24663504.543    24663504.1404   24663511.4994
      2943.614        2293.725
   1683884.989 9   1311393.17148  21130636.139    21130636.6564   21130642.2014
     -1056.021        -822.874
 -11588274.992 9  -9003141.22747  22894804.467    22894805.0364   22894811.6774
      4030.933        3140.987
  -5866266.780 9  -4563283.78749  21195377.889    21195377.8634   21195383.2854
      1604.108        1249.954
   2102378.930 9   1637712.90746  24287020.597    24287019.7924   24287027.0184
     -1281.540        -998.603
   8039635.431 9   6252363.15347  23313225.825    23313226.0894   23313232.4764
     -3098.622       -2414.511
 97  4 29 15 36 59.9990000  0  9 31 27 26 15 19  7  2 10 18         -0.000826955
   4483238.733 9   3490333.96547  22852293.928    22852293.8714   22852298.6084
     -2279.951       -1776.585
  -5421447.984 9  -4059220.15448  20027596.896    20027596.9414   20027601.6444
      1386.739        1080.576
  -6466193.379 9  -5015473.44446  24358635.718    24358636.6964   24358642.6004
      3639.251        2835.780
  -4699394.786 9  -3641757.46345  24646712.302    24646712.3644   24646719.5724
      2939.091        2290.201
   1715684.628 9   1336172.09048  21136687.406    21136687.9434   21136693.5024
     -1063.911        -829.022
 -11709120.649 9  -9097306.64447  22871808.407    22871808.8734   22871815.5124
      4025.468        3136.728
  -5914269.596 9  -4600688.57549  21186243.303    21186243.2284   21186248.6604
      1596.216        1243.805
   2140932.842 9   1667754.86446  24294357.074    24294356.3844   24294363.6844
     -1288.763       -1004.231
   8132652.787 9   6324844.17547  23330926.663    23330926.7704   23330933.0904
     -3102.468       -2417.508
 97  4 29 15 37 29.9990000  0  9 31 27 26 15 19  7  2 10 18         -0.000838726
   4551844.178 9   3543792.70747  22865349.174    22865349.1134   22865353.8494
     -2292.749       -1786.558
  -5462868.377 9  -4091495.78748  20019714.804    20019714.9034   20019719.5984
      1375.702        1071.976
  -6575244.282 9  -5100448.15046  24337883.935    24337885.1154   24337891.0114
      3631.878        2830.035
  -4787451.758 9  -3710373.24046  24629955.526    24629955.6534   24629962.8544
      2932.323        2284.927
   1747767.102 9   1361171.40348  21142792.499    21142793.0404   21142798.6204
     -1073.974        -836.863
 -11829752.722 9  -9191305.64347  22848852.956    22848853.3494   22848859.9704
      4017.626        3130.618
  -5962007.285 9  -4637886.76549  21177159.117    21177159.0594   21177164.4994
      1587.337        1236.886
   2179756.646 9   1698007.12146  24301744.853    24301744.3554   24301751.6164
     -1298.419       -1011.755
   8225838.951 9   6397456.73647  23348659.102    23348659.5264   23348665.8494
     -3108.860       -2422.488
 97  4 29 15 37 59.9990000  0  9 31 27 26 15 19  7  2 10 18         -0.000850507
   4620773.892 9   3597504.13547  22878466.109    22878466.0334   22878470.8034
     -2303.933       -1795.272
  -5504027.461 9  -4123567.80248  20011882.436    20011882.5994   20011887.2964
      1366.773        1065.018
  -6684127.176 9  -5185291.95346  24317164.380    24317165.4184   24317171.2674
      3625.550        2825.104
  -4875359.753 9  -3778872.92746  24613227.202    24613227.4384   24613234.5394
      2926.814        2280.634
   1780099.431 9   1386365.41048  21148945.119    21148945.7204   21148951.2914
     -1082.963        -843.867
 -11950210.352 9  -9285168.70647  22825930.622    22825931.0764   22825937.6114
      4011.775        3126.058
  -6009539.498 9  -4674924.84549  21168113.995    21168113.9694   21168119.4194
      1580.109        1231.254
   2218818.164 9   1728444.62046  24309178.050    24309177.4884   24309184.8844
     -1307.051       -1018.481
   8319152.594 9   6470168.62246  23366416.148    23366416.5994   23366422.9174
     -3113.153       -2425.834
 97  4 29 15 38 29.9990000  0  9 31 27 26 15 19  7  2 10 18         -0.000862278
   4690055.312 9   3651489.59647  22891649.992    22891649.8814   22891654.6954
     -2314.923       -1803.836
  -5544897.920 9  -4155414.92148  20004105.105    20004105.2224   20004109.9174
      1357.500        1057.792
  -6792794.243 9  -5269967.58146  24296485.937    24296486.7884   24296492.5884
      3618.677        2819.748
  -4963088.352 9  -3847232.81746  24596532.748    24596533.2914   24596540.4184
      2921.583        2276.558
   1812726.721 9   1411789.25248  21155153.888    21155154.5004   21155160.0654
     -1092.250        -851.104
 -12070482.378 9  -9378887.14847  22803043.550    22803044.1084   22803050.5904
      4006.435        3121.897
  -6056837.731 9  -4711780.61249  21159113.482    21159113.4434   21159118.8794
      1573.128        1225.814
   2258147.749 8   1759090.99446  24316662.420    24316661.5684   24316669.0464
     -1314.968       -1024.650
   8412603.121 9   6542987.17446  23384199.258    23384199.6224   23384206.0334
     -3116.784       -2428.663
 97  4 29 15 38 59.9990000  0  9 31 27 26 15 19  7  2 10 18         -0.000874067
   4759653.853 9   3705722.16947  22904893.970    22904894.0124   22904898.8574
     -2324.907       -1811.616
  -5585486.220 9  -4187042.17048  19996381.382    19996381.5284   19996386.2234
      1348.599        1050.856
  -6901254.082 9  -5354481.74046  24275846.668    24275847.6274   24275853.3414
      3612.137        2814.652
  -5050669.547 9  -3915477.83246  24579866.669    24579867.0684   24579874.3504
      2917.302        2273.222
   1845623.121 9   1437422.79248  21161413.835    21161414.4804   21161420.0424
     -1100.580        -857.595
 -12190621.358 9  -9472501.91447  22780181.928    22780182.4034   22780188.8684
      4003.052        3119.261
  -6103954.542 9  -4748495.00449  21150147.497    21150147.4074   21150152.8424
      1568.312        1222.061
   2297696.183 9   1789907.90346  24324188.248    24324187.4934   24324194.9624
     -1321.505       -1029.744
   8506137.284 9   6615870.91546  23401998.080    23401998.5634   23402004.9804
     -3118.626       -2430.098
 97  4 29 15 39 29.9990000  0  9 31 27 26 15 19  7  2 10 18         -0.000885866
   4829582.906 9   3760212.30547  22918201.031    22918201.0784   22918205.9394
     -2336.811       -1820.892
  -5625779.440 9  -4218439.49148  19988713.889    19988714.0214   19988718.6964
      1337.792        1042.435
  -7009483.298 9  -5438816.18646  24255251.397    24255252.2524   24255257.9644
      3603.439        2807.875
  -5138097.581 9  -3983603.50746  24563230.043    24563230.0924   24563237.2664
      2911.550        2268.740
   1878794.739 9   1463270.79048  21167726.255    21167726.8514   21167732.4074
     -1110.498        -865.323
 -12310637.575 9  -9566021.02847  22757343.865    22757344.0564   22757350.5394
      3998.220        3115.496
  -6150904.787 9  -4785079.60749  21141213.118    21141213.0464   21141218.4824
      1561.929        1217.088
   2337459.934 9   1820892.58346  24331755.056    24331754.2944   24331761.8194
     -1329.106       -1035.667
   8599749.339 9   6688815.34646  23419811.877    23419812.3864   23419818.7754
     -3121.792       -2432.565
 97  4 29 15 39 59.9990000  0  9 31 27 26 15 19  7  2 10 18         -0.000897667
   4899872.111 9   3814983.07247  22931576.617    22931576.6584   22931581.5774
     -2348.744       -1830.190
  -5665737.864 9  -4249575.92848  19981110.103    19981110.2274   19981114.8714
      1326.418        1033.572
  -7117452.600 9  -5522948.09846  24234705.618    24234706.3764   24234712.0874
      3595.073        2801.356
  -5225355.103 9  -4051596.30645  24546625.683    24546625.6064   24546632.6214
      2906.078        2264.476
   1912259.917 9   1489347.53548  21174094.480    21174095.0934   21174100.6364
     -1120.011        -872.736
 -12430511.853 9  -9659429.53847  22734532.539    22734532.7114   22734539.2254
      3993.844        3112.086
  -6197652.340 9  -4821506.26648  21132317.316    21132317.2634   21132322.7194
      1555.003        1211.691
   2377451.942 9   1852055.12346  24339365.438    24339364.5964   24339372.0464
     -1336.620       -1041.522
   8693439.469 9   6761820.61146  23437640.631    23437641.0744   23437647.4094
     -3123.780       -2434.114
 97  4 29 15 40 29.9990000  0  9 31 27 26 15 19  7  2 10 18         -0.000909481
   4970521.491 9   3870034.49447  22945020.543    22945020.7994   22945025.7954
     -2361.484       -1840.117
  -5705344.961 9  -4280438.60548  19973573.130    19973573.2554   19973577.8944
      1314.016        1023.909
  -7225170.152 9  -5606883.84546  24214207.443    24214208.3804   24214214.0504
      3586.109        2794.371
  -5312448.608 9  -4119461.31446  24530052.627    24530052.1004   24530059.1874
      2899.968        2259.715
   1946011.073 9   1515647.11748  21180517.202    21180517.7224   21180523.2864
     -1130.094        -880.593
 -12550244.713 9  -9752727.86247  22711748.107    22711748.2464   22711754.8484
      3988.140        3107.642
  -6244192.116 9  -4857771.01949  21123461.100    21123461.0634   21123466.5074
      1547.563        1205.893
   2417665.501 9   1883390.32046  24347017.924    24347017.0254   24347024.3894
     -1344.472       -1047.640
   8787195.386 9   6834877.13146  23455482.062    23455482.2454   23455488.6334
     -3126.754       -2436.432
 97  4 29 15 40 59.9990000  0  9 31 27 26 15 19  7  2 10 18         -0.000921296
   5041542.985 9   3925375.87147  22958535.402    22958535.7574   22958540.8304
     -2374.182       -1850.012
  -5744597.380 9  -4311024.91048  19966103.686    19966103.7814   19966108.4354
      1302.313        1014.789
  -7332632.912 9  -5690621.07546  24193757.949    24193758.8904   24193764.4354
      3577.327        2787.528
  -5399363.528 9  -4187187.16345  24513513.222    24513512.6874   24513519.7034
      2893.551        2254.715
   1980054.003 9   1542174.05748  21186995.379    21186995.9014   21187001.4344
     -1140.294        -888.541
 -12669812.794 9  -9845897.77247  22688994.784    22688995.0804   22689001.7684
      3982.134        3102.962
  -6290517.775 9  -4893868.92849  21114645.644    21114645.5844   21114650.9964
      1539.965        1199.973
   2458112.280 9   1914907.23946  24354714.429    24354713.8314   24354721.2674
     -1352.853       -1054.171
   8881031.420 9   6907996.07946  23473338.571    23473338.7034   23473345.0594
     -3129.740       -2438.758
 97  4 29 15 41 29.9990000  0  9 31 27 26 15 19  7  2 10 18         -0.000933100
   5112942.416 9   3981011.74947  22972122.213    22972122.6094   22972127.7604
     -2385.745       -1859.022
  -5783513.110 9  -4341348.85648  19958698.239    19958698.3814   19958703.0384
      1292.145        1006.866
  -7439842.741 9  -5774161.19846  24173356.676    24173357.4964   24173362.9874
      3570.233        2782.000
  -5486085.514 9  -4254762.67046  24497009.986    24497010.0834   24497017.1284
      2887.994        2250.385
   2014406.864 9   1568942.49848  21193532.552    21193533.0744   21193538.5854
     -1149.771        -895.925
 -12789191.307 9  -9938919.96847  22666277.581    22666278.0064   22666284.8174
      3976.406        3098.498
  -6336605.048 9  -4929781.08749  21105875.571    21105875.4694   21105880.8784
      1532.498        1194.154
   2498805.022 9   1946615.80546  24362457.818    24362457.3784   24362464.8264
     -1359.858       -1059.630
   8974950.615 9   6981179.82646  23491210.929    23491210.9674   23491217.3714
     -3131.386       -2440.041
 97  4 29 15 41 59.9990000  0  9 31 27 26 15 19  7  2 10 18         -0.000944918
   5184694.438 9   4036922.36547  22985776.269    22985776.6174   22985781.7734
     -2397.818       -1868.430
  -5822115.048 9  -4371428.28748  19951352.513    19951352.6814   19951357.3404
      1281.311         998.424
  -7546840.571 9  -5857536.13946  24152995.684    24152996.5084   24153001.8214
      3562.823        2776.226
  -5572635.871 9  -4322204.44246  24480539.807    24480540.1104   24480547.1184
      2881.909        2245.643
   2049048.042 9   1595935.60648  21200124.544    21200125.1114   21200130.6094
     -1159.561        -903.554
 -12908390.441 9 -10031802.40147  22643594.803    22643595.1414   22643602.0194
      3970.242        3093.695
  -6382451.788 9  -4965505.81449  21097151.236    21097151.1244   21097156.5414
      1524.038        1187.562
   2539710.925 9   1978490.49546  24370242.024    24370241.5104   24370248.8994
     -1367.173       -1065.330
   9068920.110 9   7054402.77746  23509093.213    23509092.8064   23509099.2114
     -3133.359       -2441.578
 97  4 29 15 42 29.9990000  0  9 31 27 26 15 19  7  2 10 18         -0.000956756
   5256788.851 9   4093099.78847  22999495.613    22999495.7824   22999500.9504
     -2408.868       -1877.040
  -5860415.588 9  -4401272.87048  19944064.163    19944064.3534   19944069.0104
      1271.722         990.952
  -7653629.799 9  -5940748.53946  24132674.293    24132675.2574   24132680.3574
      3555.990        2770.901
  -5659020.862 9  -4389517.37445  24464101.444    24464101.5974   24464108.4704
      2876.597        2241.504
   2083952.721 9   1623134.03248  21206766.718    21206767.3044   21206772.8004
     -1167.848        -910.011
 -13027427.838 9 -10124558.79847  22620942.605    22620943.0684   22620949.9774
      3965.133        3089.714
  -6428082.346 9  -5001062.08949  21088467.976    21088467.9184   21088473.3514
      1517.635        1182.573
   2580797.589 9   2010506.04246  24378060.676    24378060.1084   24378067.5424
     -1372.368       -1069.378
   9162927.273 9   7127655.06046  23526982.076    23526981.8114   23526988.3414
     -3134.190       -2442.226
 97  4 29 15 42 59.9990000  0  9 31 27 26 15 19  7  2 10 18         -0.000968606
   5329234.204 9   4149550.67847  23013281.675    23013281.7254   23013286.8774
     -2421.147       -1886.608
  -5898402.866 9  -4430873.34648  19936835.434    19936835.6234   19936840.2694
      1260.375         982.110
  -7760187.654 9  -6023780.64146  24112397.027    24112397.9854   24112402.9534
      3547.525        2764.305
  -5745217.076 9  -4456683.20745  24447698.595    24447698.8584   24447705.7904
      2869.469        2235.950
   2119137.131 9   1650550.43748  21213462.106    21213462.7134   21213468.2144
     -1178.071        -917.977
 -13146288.388 9 -10217177.38047  22598324.283    22598324.6434   22598331.5514
      3958.472        3084.524
  -6473490.316 9  -5036444.91649  21079827.129    21079827.0804   21079832.5004
      1509.367        1176.130
   2622065.620 9   2042662.88246  24385913.752    24385913.1424   24385920.6344
     -1379.118       -1074.637
   9256983.005 9   7200945.20446  23544880.204    23544880.0104   23544886.5334
     -3136.578       -2444.087
 97  4 29 15 43 29.9990000  0  9 31 27 26 15 19  7  2 10 18         -0.000980466
   5402026.871 9   4206272.19547  23027133.538    23027133.7574   23027138.9224
     -2432.402       -1895.378
  -5936055.308 9  -4460212.91448  19929670.392    19929670.6014   19929675.2464
      1249.018         973.261
  -7866506.374 9  -6106626.38046  24092165.071    24092166.3054   24092171.0754
      3539.742        2758.241
  -5831213.185 9  -4523693.11145  24431334.222    24431334.3274   24431341.1764
      2862.881        2230.816
   2154609.282 9   1678191.04948  21220212.112    21220212.8354   21220218.3294
     -1187.257        -925.135
 -13264952.318 9 -10309642.75147  22575743.246    22575743.6924   22575750.5784
      3951.756        3079.290
  -6518664.526 9  -5071645.59748  21071230.729    21071230.6904   21071236.1354
      1501.619        1170.093
   2663520.498 9   2074965.33746  24393802.422    24393801.7814   24393809.2314
     -1385.359       -1079.501
   9351098.893 9   7274282.20346  23562789.896    23562789.6714   23562796.2604
     -3138.552       -2445.625
 97  4 29 15 43 59.9990000  0  9 31 27 26 15 19  7  2 10 18         -0.000992342
   5475145.957 9   4263248.07047  23041047.782    23041047.8974   23041053.0404
     -2442.893       -1903.553
  -5973367.521 9  -4489287.36648  19922570.157    19922570.3304   19922574.9814
      1238.080         964.738
  -7972589.827 9  -6189288.80146  24071978.069    24071979.1494   24071984.0184
      3531.770        2752.029
  -5917015.084 9  -4590551.66146  24415006.819    24415006.6384   24415013.6024
      2856.569        2225.898
   2190344.971 9   1706037.02148  21227012.372    21227013.1154   21227018.6044
     -1195.765        -931.765
 -13383417.917 9 -10401953.58047  22553200.187    22553200.4474   22553207.2684
      3945.324        3074.278
  -6563616.875 9  -5106673.39648  21062676.591    21062676.5344   21062681.9724
      1494.874        1164.837
   2705167.996 9   2107417.89346  24401727.497    24401727.1054   24401734.5344
     -1391.843       -1084.553
   9445278.368 9   7347668.77646  23580711.532    23580711.5414   23580718.0864
     -3140.889       -2447.446
 97  4 29 15 44 29.9990000  0  9 31 27 26 15 19  7  2 10 18         -0.001004224
   5548570.061 9   4320461.62146  23055019.786    23055020.0074   23055025.2204
     -2452.135       -1910.755
  -6010364.993 9  -4518116.56548  19915529.756    19915529.9424   19915534.5864
      1228.355         957.160
  -8078432.719 9  -6271763.77346  24051836.744    24051837.8624   24051842.7974
      3524.430        2746.309
  -6002624.353 8  -4657260.11746  24398715.906    24398715.7984   24398722.6924
      2850.624        2221.265
   2226343.755 9   1734088.00148  21233862.838    21233863.4864   21233868.9334
     -1204.412        -938.503
 -13501683.569 9 -10494108.59847  22530695.152    22530695.2914   22530702.0154
      3938.940        3069.304
  -6608386.890 9  -5141559.11748  21054157.150    21054157.0854   21054162.5234
      1489.647        1160.764
   2747012.346 9   2140023.83646  24409690.308    24409689.9464   24409697.1704
     -1397.909       -1089.280
   9539541.797 9   7421120.75046  23598649.125    23598649.2304   23598655.8524
     -3143.593       -2449.553
 97  4 29 15 44 59.9980000  0  9 31 27 26 15 19  7  2 10 18         -0.001016108
   5622271.384 9   4377891.19546  23069044.698    23069044.9614   23069050.1074
     -2462.452       -1918.794
  -6047061.828 9  -4546711.50848  19908546.508    19908546.7634   19908551.4214
      1217.243         948.501
  -8184044.538 9  -6354058.67346  24031739.354    24031740.4584   24031745.5914
      3515.697        2739.504
  -6088042.166 9  -4723819.37846  24382461.425    24382461.2704   24382468.1404
      2843.224        2215.499
   2262620.593 9   1762355.64448  21240766.165    21240766.7964   21240772.2364
     -1214.822        -946.615
 -13619741.756 9 -10586101.95347  22508229.340    22508229.5554   22508236.2174
      3931.076        3063.176
  -6652980.703 9  -5176307.53248  21045671.265    21045671.1674   21045676.5724
      1482.598        1155.271
   2789056.842 9   2172785.73746  24417691.302    24417690.8114   24417698.1264
     -1405.923       -1095.524
   9633906.555 9   7494651.69646  23616606.216    23616606.2724   23616612.9344
     -3148.450       -2453.338
 97  4 29 15 45 29.9980000  0  9 31 27 26 15 19  7  2 10 18         -0.001027985
   5696265.193 9   4435548.68046  23083125.350    23083125.5874   23083130.7354
     -2471.591       -1925.915
  -6083442.663 9  -4575060.21348  19901623.517    19901623.7274   19901628.3934
      1207.127         940.618
  -8289407.526 9  -6436159.68146  24011689.530    24011690.5784   24011695.8004
      3507.602        2733.196
  -6173259.815 9  -4790222.67046  24366245.156    24366244.8514   24366251.7964
      2836.993        2210.644
   2299182.734 9   1790845.60248  21247723.727    21247724.3574   21247729.8404
     -1223.645        -953.490
 -13737583.186 9 -10677926.40247  22485804.822    22485805.0904   22485811.6794
      3924.270        3057.873
  -6697384.251 9  -5210907.69049  21037221.467    21037221.4544   21037226.8804
      1476.680        1150.660
   2831319.555 9   2205717.69246  24425733.791    24425733.1034   24425740.3624
     -1412.436       -1100.599
   9728401.304 9   7568283.93046  23634587.862    23634588.0924   23634594.8034
     -3152.008       -2456.110
 97  4 29 15 45 59.9980000  0  9 31 27 26 15 19  7  2 10 18         -0.001039861
   5770547.376 9   4493430.85946  23097260.651    23097261.0164   23097266.1684
     -2480.723       -1933.031
  -6119510.969 9  -4603165.39348  19894759.943    19894760.1564   19894764.8354
      1197.341         932.993
  -8394510.612 9  -6518058.15546  23991689.160    23991690.1444   23991695.5594
      3499.208        2726.656
  -6258278.522 9  -4856470.93646  24350066.653    24350066.3194   24350073.1564
      2830.786        2205.807
   2336026.466 9   1819554.98148  21254734.934    21254735.5474   21254740.9874
     -1232.860        -960.670
 -13855227.886 9 -10769597.54947  22463417.822    22463418.0254   22463424.5804
      3918.675        3053.513
  -6741607.862 9  -5245367.64349  21028806.001    21028805.9914   21028811.4184
      1471.453        1146.587
   2873771.644 9   2238797.19146  24433811.823    24433811.4574   24433818.7204
     -1417.651       -1104.663
   9823000.128 9   7641997.26746  23652589.618    23652589.6954   23652596.4464
     -3154.553       -2458.093
 97  4 29 15 46 29.9980000  0  9 31 27 26 15 19  7  2 10 18         -0.001051751
   5845102.900 9   4551526.03946  23111448.223    23111448.5514   23111453.6404
     -2490.127       -1940.359
  -6155285.581 9  -4631041.72348  19887952.196    19887952.4894   19887957.1504
      1186.867         924.831
  -8499369.897 9  -6599766.66746  23971735.108    23971736.0794   23971741.5574
      3490.891        2720.175
  -6343115.396 8  -4922577.50746  24333922.694    24333922.3274   24333929.1804
      2824.386        2200.820
   2373148.442 9   1848481.17348  21261799.128    21261799.6894   21261805.0834
     -1242.295        -968.022
 -13972716.036 9 -10861146.73247  22441060.465    22441060.8114   22441067.2504
      3913.441        3049.435
  -6785678.613 9  -5279708.47948  21020419.538    21020419.5724   21020425.0334
      1465.835        1142.209
   2916366.163 9   2271987.69446  24441917.428    24441916.9834   24441924.1134
     -1422.509       -1108.448
   9917663.559 9   7715760.93146  23670603.854    23670603.6394   23670610.3424
     -3156.510       -2459.618
 97  4 29 15 46 59.9980000  0  9 31 27 26 15 19  7  2 10 18         -0.001063618
   5919955.539 9   4609852.74146  23125692.178    23125692.5244   23125697.7004
     -2500.569       -1948.495
  -6190721.603 9  -4658654.20748  19881209.022    19881209.2574   19881213.9204
      1175.086         915.651
  -8603964.958 9  -6681269.29246  23951831.525    23951832.3684   23951837.8064
      3481.603        2712.937
  -6427746.128 8  -4988523.45746  24317818.050    24317817.4964   24317824.2384
      2817.174        2195.200
   2410555.711 9   1877629.67848  21268917.478    21268918.0604   21268923.4724
     -1251.701        -975.351
 -14090035.070 9 -10952564.12547  22418735.441    22418735.7464   22418742.1004
      3907.381        3044.712
  -6829550.509 9  -5313894.35748  21012070.995    21012071.0104   21012076.4614
      1458.603        1136.574
   2959123.787 9   2305305.28546  24450053.998    24450053.5124   24450060.6944
     -1428.508       -1113.123
  10012371.169 9   7789559.03846  23688626.634    23688625.9794   23688632.6564
     -3157.599       -2460.467
 97  4 29 15 47 29.9980000  0  9 31 27 26 15 19  7  2 10 18         -0.001075553
   5995092.734 9   4668401.16846  23139990.469    23139990.6794   23139995.8684
     -2509.489       -1955.446
  -6225830.590 9  -4686011.86848  19874528.047    19874528.2414   19874532.9114
      1164.772         907.615
  -8708306.614 9  -6762574.45646  23931975.966    23931976.8704   23931982.2894
      3473.836        2706.885
  -6512184.240 8  -5054319.34346  24301750.053    24301749.6004   24301756.1544
      2811.209        2190.552
   2448215.377 9   1906974.85048  21276083.873    21276084.4794   21276089.9154
     -1259.846        -981.698
 -14207202.507 9 -11043863.40047  22396438.975    22396439.5254   22396445.8024
      3902.922        3041.238
  -6873230.174 9  -5347930.45048  21003759.059    21003759.0464   21003764.5094
      1452.577        1131.878
   3002037.179 9   2338744.26846  24458220.346    24458219.7284   24458226.7414
     -1433.123       -1116.719
  10107066.544 9   7863347.58246  23706646.659    23706645.9884   23706652.6774
     -3156.155       -2459.341
 97  4 29 15 47 59.9980000  0  9 31 27 26 15 19  7  2 10 18         -0.001087503
   6070548.410 9   4727197.76346  23154349.343    23154349.4914   23154354.6484
     -2520.044       -1963.671
  -6260589.051 9  -4713096.38748  19867913.783    19867913.9504   19867918.6104
      1153.279         898.659
  -8812365.769 9  -6843659.48446  23912174.128    23912175.0264   23912180.4894
      3464.417        2699.546
  -6596392.969 8  -5119936.48646  24285725.348    24285725.1994   24285731.7674
      2803.551        2184.585
   2486174.560 9   1936553.40948  21283307.247    21283307.8684   21283313.3474
     -1269.808        -989.461
 -14324191.852 9 -11135023.90547  22374176.598    22374177.1464   22374183.3574
      3897.102        3036.703
  -6916679.571 9  -5381787.11548  20995490.862    20995490.8964   20995496.3564
      1444.878        1125.879
   3045146.569 9   2372335.97346  24466423.893    24466423.2244   24466430.2424
     -1440.024       -1122.097
  10201765.602 9   7937139.00046  23724667.447    23724666.7584   23724673.3154
     -3156.334       -2459.481
 97  4 29 15 48 29.9980000  0  9 31 27 26 15 19  7  2 10 18         -0.001099479
   6146300.414 9   4786225.24946  23168764.788    23168764.7374   23168769.8354
     -2529.967       -1971.403
  -6295016.963 9  -4739923.33848  19861362.408    19861362.5374   19861367.2144
      1141.949         889.830
  -8916168.596 9  -6924544.78846  23892420.918    23892421.9084   23892427.4354
      3455.815        2692.843
  -6680388.563 9  -5185387.55746  24269741.935    24269741.4034   24269747.8774
      2796.250        2178.896
   2524402.309 9   1966341.24248  21290581.870    21290582.4234   21290587.8854
     -1278.450        -996.195
 -14441010.463 9 -11226051.36547  22351946.652    22351947.2554   22351953.4444
      3890.950        3031.909
  -6959909.991 9  -5415473.14648  20987264.365    20987264.3884   20987269.8774
      1437.195        1119.892
   3088453.297 9   2406081.46556  24474665.001    24474664.2414   24474671.3795
     -1446.919       -1127.469
  10296458.786 9   8010925.85846  23742686.723    23742686.3954   23742692.9154
     -3156.501       -2459.611
 97  4 29 15 48 59.9980000  0  9 31 27 26 15 19  7  2 10 18         -0.001111469
   6222357.339 9   4845490.34546  23183238.202    23183237.9704   23183242.9654
     -2540.527       -1979.631
  -6329098.220 9  -4766480.17048  19854876.940    19854877.0834   19854881.7784
      1130.244         880.710
  -9019701.537 9  -7005219.79947  23872719.258    23872720.2274   23872725.7414
      3446.372        2685.485
  -6764156.308 9  -5250661.09446  24253801.488    24253800.8154   24253807.3834
      2788.245        2172.658
   2562896.321 9   1996336.55548  21297907.013    21297907.6314   21297913.1024
     -1287.882       -1003.544
 -14557630.188 9 -11316923.85847  22329754.685    22329755.2114   22329761.4084
      3883.616        3026.194
  -7002895.048 9  -5448967.98648  20979084.582    20979084.6044   20979090.1224
      1428.591        1113.188
   3131970.510 9   2439990.94856  24482946.051    24482945.3705   24482952.4825
     -1454.067       -1133.039
  10391174.924 9   8084730.60746  23760710.712    23760710.3374   23760716.8444
     -3158.128       -2460.879
 97  4 29 15 49 29.9980000  0  9 31 27 26 15 19  7  2 10 18         -0.001123463
   6298715.632 9   4904990.28146  23197768.727    23197768.4484   23197773.4514
     -2549.805       -1986.861
  -6362840.685 9  -4792773.00448  19848455.987    19848456.0964   19848460.7984
      1119.527         872.359
  -9122958.020 9  -7085679.38447  23853070.194    23853071.1794   23853076.6464
      3437.781        2678.790
  -6847689.347 8  -5315751.76246  24237905.651    24237904.9694   24237911.5234
      2780.901        2166.936
   2601677.364 9   2026555.52848  21305286.794    21305287.4574   21305292.9164
     -1297.242       -1010.838
 -14674043.507 9 -11407635.52547  22307602.050    22307602.5064   22307608.6424
      3877.435        3021.378
  -7045632.440 9  -5482269.83548  20970951.913    20970951.9444   20970957.4564
      1420.897        1107.192
   3175679.410 9   2474049.80646  24491263.434    24491262.8374   24491270.0664
     -1459.308       -1137.123
  10485944.261 9   8158576.79846  23778744.953    23778744.3134   23778750.9284
     -3159.629       -2462.049
 97  4 29 15 49 59.9980000  0  9 31 27 26 15 19  7  2 10 18         -0.001135470
   6375353.134 9   4964707.77347  23212352.350    23212352.0624   23212357.1394
     -2559.961       -1994.775
  -6396255.969 9  -4818810.89648  19842097.286    19842097.3764   19842102.0954
      1107.340         862.862
  -9225956.980 9  -7165938.29647  23833470.348    23833471.1254   23833476.6094
      3428.234        2671.351
  -6931002.247 9  -5380670.85446  24222051.471    24222051.0864   24222057.6074
      2772.608        2160.474
   2640732.499 9   2056988.07948  21312718.753    21312719.3994   21312724.9144
     -1306.925       -1018.383
 -14790265.424 9 -11498198.03547  22285485.748    22285486.1554   22285492.3004
      3869.951        3015.546
  -7088144.246 9  -5515395.91148  20962862.185    20962862.2314   20962867.7114
      1412.626        1100.747
   3219535.734 9   2508223.54646  24499609.110    24499608.4544   24499615.7284
     -1465.146       -1141.672
  10580768.255 9   8232465.58346  23796789.166    23796788.7324   23796795.3844
     -3162.580       -2464.348
 97  4 29 15 50 29.9980000  0  9 31 27 26 15 19  7  2 10 18         -0.001147505
   6452242.353 9   5024621.40247  23226983.864    23226983.5754   23226988.7734
     -2566.726       -2000.046
  -6429341.488 9  -4844591.82748  19835801.230    19835801.4014   19835806.1214
      1097.760         855.397
  -9328715.811 9  -7246010.09947  23813915.887    23813916.8194   23813922.3414
      3421.662        2666.230
  -7014104.547 9  -5445425.86646  24206237.700    24206237.0474   24206243.8124
      2766.927        2156.047
   2680034.600 9   2087613.07448  21320197.705    21320198.3724   21320203.8964
     -1314.022       -1023.913
 -14906293.182 9 -11588609.25647  22263406.129    22263406.7924   22263412.9604
      3864.616        3011.389
  -7130449.592 9  -5548361.10948  20954811.774    20954811.7914   20954817.2824
      1407.189        1096.511
   3263514.726 9   2542492.87446  24507977.806    24507977.2934   24507984.6674
     -1467.411       -1143.437
  10675643.648 9   8306394.40746  23814843.380    23814842.9814   23814849.6324
     -3162.986       -2464.664
 97  4 29 15 50 59.9980000  0  9 31 27 26 15 19  7  2 10 18         -0.001159565
   6529371.524 9   5084722.00847  23241661.402    23241660.7414   23241666.0334
     -2574.993       -2006.488
  -6462102.965 9  -4870120.25948  19829566.947    19829567.0744   19829571.8424
      1086.689         846.771
  -9431235.050 9  -7325895.21247  23794407.028    23794408.0764   23794413.6624
      3413.250        2659.675
  -7096993.134 9  -5510014.34046  24190464.502    24190463.7724   24190470.6424
      2759.385        2150.170
   2719601.561 9   2118444.45148  21327727.043    21327727.6844   21327733.2754
     -1323.442       -1031.254
 -15022121.261 9 -11678864.88847  22241364.848    22241365.4194   22241371.6434
      3857.539        3005.875
  -7172557.223 9  -5581172.24048  20946798.985    20946798.9724   20946804.4644
      1400.417        1091.234
   3307594.725 9   2576840.87946  24516365.973    24516365.5614   24516372.8914
     -1471.063       -1146.283
  10770561.620 9   8380356.41746  23832905.753    23832905.1724   23832911.9294
     -3164.523       -2465.862
 97  4 29 15 51 29.9980000  0  9 31 27 26 15 19  7  2 10 18         -0.001171643
   6606749.155 9   5145016.22047  23256385.855    23256385.2914   23256390.6214
     -2584.003       -2013.509
  -6494525.064 9  -4895384.23548  19823397.185    19823397.3534   19823402.1294
      1074.464         837.245
  -9533500.387 9  -7405582.46947  23774946.693    23774947.5734   23774953.1884
      3404.122        2652.562
  -7179656.285 8  -5574427.11546  24174733.543    24174733.3994   24174740.3224
      2751.198        2143.791
   2759449.541 9   2149494.81048  21335309.741    21335310.4694   21335316.1454
     -1333.253       -1038.898
 -15137742.427 9 -11768959.29147  22219362.964    22219363.4124   22219369.6464
      3850.197        3000.154
  -7214470.616 9  -5613832.02548  20938823.165    20938823.1104   20938828.5864
      1393.644        1085.956
   3351793.683 9   2611281.59646  24524776.785    24524776.4874   24524783.7644
     -1475.832       -1149.999
  10865517.932 9   8454348.28246  23850975.184    23850974.7244   23850981.5124
     -3166.046       -2467.049
 97  4 29 15 51 59.9980000  0  9 31 27 26 15 19  7  2 10 18         -0.001183733
   6684405.887 9   5205527.89647  23271163.346    23271162.9294   23271168.3314
     -2592.901       -2020.442
  -6526576.368 9  -4920359.28048  19817297.958    19817298.1894   19817302.9774
      1062.568         827.975
  -9635485.124 9  -7485051.09047  23755539.671    23755540.5544   23755546.1424
      3394.930        2645.400
  -7262072.746 8  -5638647.66946  24159050.022    24159050.0264   24159057.0334
      2743.387        2137.704
   2799579.319 9   2180764.74448  21342946.178    21342946.9124   21342952.6244
     -1341.922       -1045.654
 -15253133.127 9 -11858874.10047  22197404.897    22197405.2634   22197411.5294
      3842.725        2994.331
  -7256191.394 9  -5646341.72448  20930883.895    20930883.9134   20930889.3724
      1387.911        1081.489
   3396145.985 9   2645841.79846  24533216.798    24533216.5104   24533223.7364
     -1480.898       -1153.946
  10960514.380 9   8528371.44346  23869051.911    23869051.8334   23869058.7524
     -3166.894       -2467.710
 97  4 29 15 52 29.9980000  0  9 31 27 26 15 19  7  2 10 18         -0.001195834
   6762329.370 9   5266247.44247  23285991.620    23285991.2624   23285996.7204
     -2602.291       -2027.759
  -6558276.555 9  -4945060.73148  19811265.621    19811265.8344   19811270.6444
      1050.811         818.814
  -9737187.015 9  -7564299.30447  23736186.434    23736187.3114   23736192.8784
      3385.037        2637.691
  -7344250.158 9  -5702681.92746  24143412.141    24143412.1154   24143419.1284
      2735.051        2131.209
   2839982.425 9   2212247.66648  21350634.651    21350635.3754   21350641.1484
     -1351.641       -1053.227
 -15368298.206 9 -11948613.11147  22175489.707    22175490.0244   22175496.2884
      3834.967        2988.286
  -7297733.110 9  -5678711.88948  20922978.763    20922978.7744   20922984.2424
      1381.684        1076.637
   3440657.398 9   2680525.96446  24541687.318    24541686.7714   24541694.1024
     -1486.490       -1158.304
  11055537.359 9   8602415.28446  23887134.181    23887134.1544   23887140.9754
     -3167.880       -2468.478
 97  4 29 15 52 59.9980000  0  9 31 27 26 15 19  7  2 10 18         -0.001207942
   6840529.734 9   5327182.73847  23300872.609    23300872.3474   23300877.8984
     -2611.619       -2035.028
  -6589637.372 9  -4969497.73648  19805297.862    19805298.0684   19805302.8754
      1039.345         809.879
  -9838597.178 9  -7643320.19147  23716888.958    23716889.5504   23716895.1534
      3375.101        2629.949
  -7426192.490 9  -5766532.99946  24127819.041    24127818.8614   24127826.0434
      2727.212        2125.100
   2880655.889 9   2243941.25448  21358374.544    21358375.2904   21358381.0824
     -1360.310       -1059.982
 -15483249.213 9 -12038185.29647  22153615.238    22153615.5964   22153621.8544
      3827.997        2982.855
  -7339115.131 9  -5710957.61248  20915104.075    20915104.0354   20915109.5064
      1376.586        1072.664
   3485323.004 9   2715330.29946  24550187.026    24550186.3974   24550193.7054
     -1491.775       -1162.422
  11150570.844 9   8676467.34046  23905219.009    23905218.4244   23905225.2984
     -3168.133       -2468.675
 97  4 29 15 53 29.9980000  0  9 31 27 26 15 19  7  2 10 18         -0.001220053
   6919016.058 9   5388340.86146  23315808.330    23315807.8164   23315813.3854
     -2621.369       -2042.625
  -6620643.773 9  -4993658.56648  19799397.605    19799397.7464   19799402.5814
      1027.302         800.495
  -9939698.355 9  -7722100.31246  23697650.101    23697650.5824   23697656.2314
      3364.511        2621.697
  -7507890.605 9  -5830193.77046  24112271.891    24112272.1214   24112279.3734
      2718.692        2118.461
   2921594.295 9   2275841.29348  21366164.913    21366165.5934   21366171.4114
     -1369.485       -1067.131
 -15597983.143 9 -12127588.33347  22131782.169    22131782.4324   22131788.7724
      3820.322        2976.874
  -7380336.172 9  -5743077.90048  20907259.994    20907259.9314   20907265.4064
      1370.938        1068.263
   3530157.950 9   2750266.57846  24558718.640    24558718.1844   24558725.5764
     -1497.665       -1167.012
  11245614.375 9   8750527.20046  23923305.505    23923304.6904   23923311.4284
     -3168.529       -2468.984
 97  4 29 15 53 59.9980000  0  9 31 27 26 15 19  7  2 10 18         -0.001232165
   6997781.027 9   5449716.11446  23330797.083    23330796.3864   23330801.9504
     -2630.006       -2049.355
  -6651309.100 9  -5017553.63348  19793562.155    19793562.3284   19793567.1844
      1016.581         792.141
 -10040492.713 9  -7800641.35946  23678469.596    23678470.0654   23678475.6804
      3354.722        2614.069
  -7589338.948 9  -5893659.89646  24096772.536    24096773.0034   24096780.2884
      2710.718        2112.248
   2962799.990 9   2307949.60448  21374006.050    21374006.7504   21374012.6254
     -1378.160       -1073.891
 -15712490.204 9 -12216814.60147  22109992.112    22109992.4914   22109998.8364
      3812.989        2971.160
  -7421395.114 9  -5775071.87548  20899446.730    20899446.6814   20899452.1524
      1365.755        1064.225
   3575151.976 9   2785326.81146  24567281.010    24567280.3124   24567287.7014
     -1502.452       -1170.742
  11340659.604 9   8824588.38346  23941391.691    23941391.2504   23941397.9644
     -3168.305       -2468.809
 97  4 29 15 54 29.9980000  0  9 31 27 26 15 19  7  2 10 18         -0.001244297
   7076780.793 9   5511274.30446  23345830.300    23345829.6324   23345835.1874
     -2638.017       -2055.598
  -6681669.514 9  -5041211.10048  19787784.757    19787784.9304   19787789.7944
      1006.145         784.009
 -10141018.661 9  -7878973.25146  23659340.091    23659340.6054   23659346.2524
      3345.839        2607.147
  -7670559.157 9  -5956948.25746  24081316.981    24081317.3014   24081324.4134
      2702.784        2106.065
   3004260.504 9   2340256.47148  21381895.571    21381896.4434   21381902.3404
     -1386.927       -1080.722
 -15826794.390 9 -12305882.76647  22088240.713    22088241.1434   22088247.5054
      3806.075        2965.773
  -7462306.190 9  -5806950.62748  20891661.596    20891661.5404   20891667.0134
      1360.475        1060.110
   3620269.311 8   2820483.13046  24575866.528    24575865.9254   24575873.2204
     -1506.534       -1173.923
  11435682.537 9   8898632.18946  23959474.016    23959473.6384   23959480.2204
     -3167.742       -2468.370
 97  4 29 15 54 59.9980000  0  9 31 27 26 15 19  7  2 10 18         -0.001256446
   7156032.358 9   5573028.72046  23360911.073    23360910.7094   23360916.2634
     -2646.429       -2062.152
  -6711702.033 9  -5064613.06748  19782069.777    19782069.9134   19782074.8044
       994.744         775.125
 -10241271.456 9  -7957092.29346  23640262.675    23640263.0584   23640268.7574
      3336.633        2599.974
  -7751531.991 9  -6020043.84946  24065908.716    24065908.6274   24065915.7304
      2694.259        2099.423
   3045985.817 9   2372769.68248  21389835.741    21389836.5314   21389842.4444
     -1395.918       -1087.728
 -15940883.568 9 -12394783.39647  22066530.198    22066530.6644   22066537.0954
      3798.730        2960.049
  -7503050.138 9  -5838699.15248  20883908.309    20883908.2264   20883913.7094
      1354.394        1055.372
   3665511.347 8   2855736.61046  24584475.651    24584475.1174   24584482.3894
     -1510.791       -1177.240
  11530697.227 9   8972669.59346  23977555.093    23977554.4044   23977561.0014
     -3167.841       -2468.448
 97  4 29 15 55 29.9980000  0  9 31 27 26 15 19  7  2 10 18         -0.001268608
   7235539.940 9   5634982.63746  23376040.761    23376040.5274   23376046.0314
     -2655.274       -2069.045
  -6741386.585 9  -5087743.88948  19776420.993    19776421.1334   19776426.0454
       983.265         766.181
 -10341247.525 9  -8034995.70946  23621237.717    23621238.1734   23621243.9584
      3327.497        2592.855
  -7832240.132 9  -6082933.19246  24050550.216    24050550.2064   24050557.3634
      2685.267        2092.416
   3087992.460 9   2405502.10348  21397829.505    21397830.1574   21397836.0644
     -1405.473       -1095.174
 -16054743.397 9 -12483505.32047  22044863.403    22044863.8514   22044870.2624
      3790.837        2953.899
  -7543591.162 9  -5870289.55848  20876193.569    20876193.5184   20876199.0224
      1347.328        1049.866
   3710891.720 8   2891097.86046  24593111.226    24593110.6894   24593118.1624
     -1515.578       -1180.970
  11625724.114 9   9046716.48346  23995638.078    23995637.4974   23995644.0704
     -3168.410       -2468.891
 97  4 29 15 55 59.9980000  0  9 31 27 26 15 19  7  2 10 18         -0.001280772
   7315322.719 9   5697150.99346  23391222.738    23391222.6564   23391228.2124
     -2662.946       -2075.023
  -6770720.914 9  -5110601.81048  19770838.875    19770838.9954   19770843.9174
       972.815         758.038
 -10440942.059 9  -8112679.74646  23602266.301    23602266.8884   23602272.7434
      3319.360        2586.514
  -7912671.915 9  -6145607.19846  24035244.735    24035244.4594   24035251.6334
      2677.438        2086.315
   3130282.584 9   2438455.41748  21405877.100    21405877.6994   21405883.6204
     -1413.205       -1101.199
 -16168358.533 9 -12572036.57147  22023243.141    22023243.5994   22023250.0064
      3784.116        2948.662
  -7583912.609 9  -5901708.86548  20868520.667    20868520.5914   20868526.1214
      1341.306        1045.174
   3756422.799 8   2926576.57546  24601775.329    24601775.0354   24601782.4624
     -1519.183       -1183.779
  11720783.059 9   9120788.36946  24013727.361    24013726.7154   24013733.2744
     -3168.282       -2468.791
 97  4 29 15 56 29.9980000  0  9 31 27 26 15 19  7  2 10 18         -0.001292961
   7395349.582 9   5759509.53946  23406451.074    23406451.2694   23406456.8064
     -2671.903       -2082.002
  -6799716.384 9  -5133195.68548  19765321.274    19765321.3564   19765326.2714
       960.533         748.467
 -10540379.487 9  -8190163.44546  23583343.643    23583344.5414   23583350.4214
      3310.015        2579.232
  -7992856.884 9  -6208088.89346  24019985.951    24019985.7434   24019992.7904
      2668.510        2079.358
   3172814.430 9   2471597.08748  21413970.698    21413971.2804   21413977.1724
     -1421.840       -1107.927
 -16281761.038 9 -12660402.14647  22001663.177    22001663.8064   22001670.2094
      3776.392        2942.643
  -7624036.460 9  -5932974.19948  20860885.327    20860885.2654   20860890.8164
      1333.977        1039.463
   3802073.706 8   2962148.64046  24610462.801    24610462.2684   24610469.6454
     -1523.765       -1187.349
  11815850.899 9   9194867.19046  24031818.371    24031817.6124   24031824.1684
     -3169.091       -2469.421
 97  4 29 15 56 59.9980000  0  9 31 27 26 15 19  7  2 10 18         -0.001305162
   7475646.275 9   5822078.33546  23421731.367    23421731.2814   23421736.8144
     -2681.147       -2089.205
  -6828335.323 9  -5155496.15748  19759875.272    19759875.3724   19759880.2744
       947.330         738.179
 -10639524.828 9  -8267419.54246  23564476.915    23564477.8714   23564483.6534
      3299.673        2571.174
  -8072774.407 9  -6270362.20946  24004778.209    24004777.8664   24004784.8604
      2659.204        2072.107
   3215606.626 9   2504941.62648  21422113.780    21422114.4274   21422120.2784
     -1431.036       -1115.093
 -16394926.783 9 -12748583.21947  21980128.477    21980129.1104   21980135.5104
      3767.862        2935.996
  -7663940.719 9  -5964068.42348  20853291.775    20853291.7394   20853297.2864
      1326.275        1033.461
   3847858.166 8   2997824.79445  24619174.843    24619174.5614   24619182.2204
     -1528.528       -1191.061
  11910935.057 9   9268958.71246  24049912.223    24049911.5164   24049918.1064
     -3169.847       -2470.011
 97  4 29 15 57 29.9980000  0  9 31 27 26 15 19  7  2 10 18         -0.001317382
   7556191.145 9   5884840.51546  23437058.470    23437058.4874   23437064.0804
     -2688.000       -2094.545
  -6856578.022 9  -5177503.45448  19754500.814    19754500.9664   19754505.8794
       936.141         729.461
 -10738373.293 9  -8344444.29946  23545666.698    23545667.6344   23545673.3614
      3290.802        2564.261
  -8152427.827 9  -6332429.74046  23989620.445    23989620.2064   23989627.1914
      2651.524        2066.122
   3258658.629 9   2538488.61548  21430306.271    21430306.9794   21430312.8284
     -1438.484       -1120.897
 -16507849.952 9 -12836575.27947  21958640.103    21958640.6174   21958646.9384
      3760.764        2930.465
  -7703633.206 9  -5994997.62848  20845738.586    20845738.5314   20845744.0594
      1320.584        1029.026
   3893769.714 8   3033599.96146  24627910.977    24627911.2064   24627918.9314
     -1531.455       -1193.341
  12006020.964 9   9343051.59846  24068006.629    24068005.8704   24068012.4094
     -3168.615       -2469.051
 97  4 29 15 57 59.9980000  0  9 31 27 26 15 19  7  2 10 18         -0.001329630
   7636947.214 9   5947767.26646  23452425.993    23452425.8864   23452431.4824
     -2695.431       -2100.336
  -6884457.741 9  -5199227.90648  19749195.444    19749195.6214   19749200.5304
       922.743         719.021
 -10836930.506 9  -8421242.13046  23526911.783    23526912.8184   23526918.3824
      3279.953        2555.808
  -8231827.334 9  -6394299.42546  23974511.426    23974510.9614   23974517.8294
      2641.986        2058.690
   3301953.055 9   2572224.50448  21438544.936    21438545.6684   21438551.5174
     -1447.701       -1128.079
 -16620531.408 9 -12924378.99547  21937197.606    21937198.0534   21937204.3284
      3751.706        2923.407
  -7743137.180 9  -6025779.93948  20838221.304    20838221.1724   20838226.7094
      1313.301        1023.351
   3939773.812 8   3069447.26046  24636665.531    24636665.6984   24636673.3224
     -1535.059       -1196.150
  12101084.847 9   9417127.31746  24086096.630    24086096.0494   24086102.5344
     -3168.657       -2469.083
 97  4 29 15 58 29.9980000  0  9 31 27 26 15 19  7  2 10 18         -0.001341903
   7717909.194 9   6010854.48946  23467832.748    23467832.5234   23467838.0624
     -2701.231       -2104.855
  -6911945.338 9  -5220646.81748  19743964.673    19743964.9274   19743969.8264
       910.812         709.724
 -10935174.057 9  -8497795.53246  23508216.735    23508217.6584   23508223.1804
      3270.535        2548.469
  -8310948.947 9  -6455952.57546  23959454.719    23959454.5114   23959461.3124
      2633.685        2052.222
   3345527.087 9   2606178.26648  21446836.876    21446837.6054   21446843.4104
     -1456.317       -1134.792
 -16732953.543 9 -13011980.64547  21915804.483    21915804.8284   21915811.0994
      3744.037        2917.431
  -7782436.483 9  -6056402.77548  20830742.836    20830742.7594   20830748.3144
      1307.676        1018.968
   3985860.917 9   3105359.24046  24645436.170    24645436.0134   24645443.5224
     -1536.506       -1197.277
  12196130.906 9   9491189.13646  24104183.268    24104182.7364   24104189.2394
     -3166.806       -2467.641
 97  4 29 15 58 59.9980000  0  9 31 27 26 15 19  7  2 10 18         -0.001354203
   7799060.197 9   6074088.99546  23483275.459    23483275.0694   23483280.6124
     -2707.608       -2109.824
  -6939061.829 9  -5241776.55348  19738804.670    19738804.8644   19738809.7484
       898.311         699.983
 -11033110.901 9  -8574109.95046  23489580.031    23489580.8944   23489586.4194
      3260.031        2540.284
  -8389797.514 9  -6517392.98646  23944450.124    23944450.0934   23944456.8414
      2624.184        2044.819
   3389382.714 9   2640351.45448  21455182.457    21455183.1144   21455188.8794
     -1466.063       -1142.387
 -16845119.959 9 -13099383.03347  21894459.878    21894460.2354   21894466.5454
      3735.013        2910.400
  -7821549.302 9  -6086880.28848  20823299.871    20823299.8344   20823305.4074
      1301.240        1013.953
   4032015.301 9   3141323.67046  24654219.297    24654218.9634   24654226.4274
     -1539.160       -1199.345
  12291144.813 9   9565225.90846  24122263.625    24122263.2874   24122269.7354
     -3166.305       -2467.251
 97  4 29 15 59 29.9980000  0  9 31 27 26 15 19  7  2 10 18         -0.001366519
   7880400.810 9   6137471.24646  23498754.090    23498753.7164   23498759.2694
     -2715.112       -2115.672
  -6965817.958 9  -5262625.48648  19733713.137    19733713.3574   19733718.2444
       885.622         690.095
 -11130738.421 9  -8650183.33046  23471002.271    23471003.0694   23471008.5604
      3248.551        2531.338
  -8468362.919 9  -6578612.75746  23929499.243    23929499.5854   23929506.3214
      2613.678        2036.632
   3433523.148 9   2674746.56948  21463582.256    21463582.7864   21463588.5544
     -1476.484       -1150.507
 -16957020.900 9 -13186578.55547  21873165.766    21873166.1644   21873172.4534
      3725.214        2902.764
  -7860478.012 9  -6117214.34448  20815891.976    20815891.9314   20815897.5274
      1294.134        1008.416
   4078243.545 9   3177345.62446  24663016.468    24663016.0344   24663023.3844
     -1542.545       -1201.983
  12386144.917 9   9639251.93346  24140341.709    24140341.1454   24140347.7424
     -3166.879       -2467.698
 97  4 29 15 59 59.9980000  0  9 31 27 26 15 19  7  2 10 18         -0.001378840
   7961952.830 9   6201018.23146  23514272.960    23514272.5804   23514278.2124
     -2721.077       -2120.320
  -6992216.299 9  -5283195.62348  19728689.762    19728689.9384   19728694.8544
       875.017         681.831
 -11228040.677 9  -8726003.27746  23452486.365    23452487.1214   23452492.4814
      3239.156        2524.018
  -8546633.969 9  -6639603.16846  23914604.750    23914605.1094   23914611.7564
      2605.241        2030.058
   3477955.666 9   2709369.28348  21472037.478    21472038.0764   21472043.8084
     -1484.886       -1157.054
 -17068652.137 9 -13273563.91647  21851922.866    21851923.4174   21851929.6894
      3717.877        2897.047
  -7899217.320 9  -6147400.80848  20808520.134    20808520.0834   20808525.7004
      1289.395        1004.723
   4124541.592 9   3213421.98946  24671826.838    24671826.2954   24671833.5984
     -1543.387       -1202.639
  12481132.029 9   9713267.83046  24158416.900    24158416.5894   24158423.1914
     -3164.757       -2466.044
 97  4 29 16  0 29.9980000  0  9 31 27 26 15 19  7  2 10 18         -0.001391175
   8043715.137 9   6264729.07846  23529831.776    23529831.4904   23529837.1134
     -2729.131       -2126.595
  -7018279.624 9  -5303504.70948  19723730.140    19723730.2524   19723735.1634
       863.133         672.571
 -11325040.318 9  -8801587.41246  23434028.069    23434028.6764   23434033.9774
      3228.018        2515.339
  -8624630.523 9  -6700379.68446  23899762.773    23899762.8724   23899769.4744
      2595.122        2022.173
   3522666.840 9   2744209.13148  21480545.816    21480546.3914   21480552.0484
     -1495.002       -1164.937
 -17180043.879 9 -13360362.66047  21830725.671    21830726.2444   21830732.5384
      3708.849        2890.012
  -7937792.130 9  -6177459.09748  20801179.573    20801179.5144   20801185.1534
      1282.846         999.620
   4170899.797 9   3249545.22446  24680648.427    24680648.0024   24680655.2294
     -1546.637       -1205.172
  12576075.280 8   9787249.53446  24176484.185    24176483.5384   24176490.3364
     -3164.267       -2465.662
 97  4 29 16  0 59.9980000  0  9 31 27 26 15 19  7  2 10 18         -0.001403509
   8125707.600 9   6328619.26446  23545434.125    23545434.1814   23545439.8534
     -2737.017       -2132.740
  -7044005.011 9  -5323550.46348  19718834.723    19718834.8694   19718839.7914
       851.814         663.751
 -11421716.621 9  -8876919.58647  23415631.058    23415631.7324   23415636.9784
      3217.019        2506.768
  -8702334.057 9  -6760927.87746  23884976.351    23884976.3934   23884982.9714
      2585.146        2014.399
   3567659.486 9   2779268.31648  21489107.577    21489108.2714   21489113.8534
     -1504.464       -1172.310
 -17291178.260 9 -13446960.85847  21809577.484    21809578.0864   21809584.3534
      3700.220        2883.288
  -7976182.940 9  -6207374.00748  20793874.018    20793873.9794   20793879.6374
      1276.595         994.749
   4217347.696 9   3285738.34246  24689487.452    24689486.8084   24689494.0864
     -1549.830       -1207.660
  12670996.144 8   9861213.78545  24194546.812    24194546.3024   24194553.1604
     -3163.739       -2465.251
 97  4 29 16  1 29.9980000  0  9 31 27 26 15 19  7  2 10 18         -0.001415835
   8207945.181 9   6392700.45246  23561083.417    23561083.5004   23561089.3024
     -2744.815       -2138.817
  -7069377.725 9  -5343321.41248  19714006.506    19714006.6164   19714011.5164
       840.331         654.803
 -11518051.119 9  -8951985.41947  23397299.229    23397299.9074   23397305.1174
      3205.930        2498.127
  -8779731.959 9  -6821237.92746  23870247.806    23870248.0264   23870254.5794
      2575.357        2006.772
   3612939.828 9   2814551.67548  21497724.105    21497724.8604   21497730.4444
     -1513.565       -1179.401
 -17402052.435 9 -13533356.29647  21788479.005    21788479.4224   21788485.6684
      3692.084        2876.948
  -8014380.196 9  -6237138.08948  20786605.292    20786605.2594   20786610.9584
      1270.409         989.929
   4263890.985 9   3322005.81746  24698344.529    24698343.7394   24698351.0954
     -1552.468       -1209.715
  12765902.633 8   9935166.85045  24212606.282    24212606.3904   24212613.2744
     -3162.608       -2464.370
 97  4 29 16  1 59.9980000  0  9 31 27 26 15 19  7  2 10 18         -0.001428177
   8290393.772 9   6456946.05846  23576772.839    23576773.0494   23576778.8204
     -2752.716       -2144.974
  -7094412.537 9  -5362829.05948  19709242.506    19709242.6724   19709247.5564
       827.651         644.923
 -11614072.786 9  -9026807.49047  23379026.965    23379027.5954   23379032.7254
      3194.754        2489.419
  -8856849.760 9  -6881329.72046  23855572.677    23855572.9454   23855579.5544
      2564.933        1998.649
   3658478.979 9   2850036.69748  21506389.921    21506390.7114   21506396.2524
     -1523.311       -1186.995
 -17512702.044 9 -13619576.75447  21767423.317    21767423.4974   21767429.7234
      3683.623        2870.356
  -8052404.067 9  -6266767.06848  20779369.582    20779369.5274   20779375.2494
      1263.654         984.665
   4310507.738 9   3358330.50746  24707215.256    24707214.5614   24707222.1064
     -1556.395       -1212.775
  12860753.108 8  10009076.25045  24230656.035    24230655.7604   24230662.7584
     -3161.767       -2463.715
 97  4 29 16  2 29.9980000  0  9 31 27 26 15 19  7  2 10 18         -0.001440528
   8373069.367 9   6521368.54646  23592505.164    23592505.7244   23592511.4944
     -2759.075       -2149.928
  -7119069.047 9  -5382041.92348  19704550.568    19704550.7074   19704555.6014
       816.007         635.850
 -11709764.113 9  -9101372.15247  23360817.509    23360818.1774   23360823.2374
      3184.449        2481.389
  -8933656.239 9  -6941178.92846  23840956.730    23840957.1724   23840963.6804
      2555.379        1991.204
   3704304.314 9   2885744.72348  21515110.196    21515110.9904   21515116.5314
     -1531.745       -1193.568
 -17623097.161 9 -13705598.90948  21746415.810    21746415.9884   21746422.2444
      3675.907        2864.343
  -8090219.857 9  -6296233.90848  20772173.509    20772173.4484   20772179.1724
      1257.294         979.710
   4357253.447 9   3394755.69746  24716110.491    24716109.9364   24716117.5134
     -1559.912       -1215.516
  12955587.626 8  10082973.24245  24248702.206    24248702.2304   24248709.2374
     -3160.731       -2462.907
 97  4 29 16  2 59.9980000  0  9 31 27 26 15 19  7  2 10 18         -0.001452882
   8455966.115 9   6585963.37946  23608280.117    23608280.5194   23608286.2694
     -2766.640       -2155.823
  -7143342.293 9  -5400956.14648  19699931.546    19699931.6864   19699936.5634
       802.920         625.652
 -11805112.212 9  -9175669.36247  23342673.338    23342674.1204   23342679.1564
      3172.867        2472.364
  -9010147.452 9  -7000782.47846  23826400.983    23826401.3704   23826407.9084
      2544.819        1982.976
   3750407.995 9   2921669.64548  21523883.487    21523884.2124   21523889.7834
     -1541.137       -1200.886
 -17733233.794 9 -13791419.64848  21725457.467    21725457.6734   21725463.9414
      3667.255        2857.601
  -8127823.139 9  -6325535.15448  20765017.852    20765017.7834   20765023.5014
      1250.393         974.332
   4404129.560 9   3431282.49046  24725030.817    24725030.2764   24725037.7274
     -1564.265       -1218.908
  13050424.005 9  10156871.65045  24266748.042    24266748.9634   24266755.9234
     -3160.736       -2462.911
 97  4 29 16  3 29.9980000  0  9 31 27 26 15 19  7  2 10 18         -0.001465232
   8539105.467 9   6650747.24646  23624100.965    23624101.5104   23624107.2074
     -2774.795       -2162.178
  -7167194.269 9  -5419542.10548  19695392.663    19695392.8344   19695397.7104
       788.476         614.397
 -11900093.522 9  -9249680.75147  23324599.013    23324599.7764   23324604.9074
      3160.385        2462.638
  -9086304.022 9  -7060125.24946  23811908.749    23811909.1784   23811915.7834
      2533.438        1974.108
   3796809.172 9   2957826.37948  21532713.373    21532714.0644   21532719.6654
     -1550.896       -1208.490
 -17843090.082 9 -13877021.91948  21704552.393    21704552.6984   21704559.0254
      3657.560        2850.047
  -8165200.641 9  -6354660.46548  20757905.026    20757905.0714   20757910.7954
      1242.670         968.314
   4451149.765 9   3467921.57046  24733978.504    24733977.9794   24733985.3644
     -1569.255       -1222.796
  13145274.118 9  10230780.80045  24284797.909    24284798.4234   24284805.2214
     -3161.341       -2463.383
 97  4 29 16  3 59.9980000  0  9 31 27 26 15 19  7  2 10 18         -0.001477597
   8622445.004 9   6715687.10146  23639960.434    23639960.5084   23639966.2104
     -2780.797       -2166.855
  -7190655.312 9  -5437823.43948  19690928.177    19690928.3404   19690933.2274
       776.064         604.725
 -11994734.507 9  -9323426.97047  23306589.454    23306590.1654   23306595.3344
      3149.485        2454.144
  -9162154.636 9  -7119229.62346  23797475.006    23797475.2084   23797481.9304
      2523.746        1966.555
   3843463.553 9   2994180.41748  21541591.323    21541592.0654   21541597.7254
     -1558.898       -1214.726
 -17952687.521 9 -13962422.50648  21683696.540    21683696.9714   21683703.3264
      3649.354        2843.652
  -8202387.407 9  -6383637.15448  20750828.600    20750828.6554   20750834.3974
      1237.035         963.923
   4498281.640 9   3504647.68046  24742947.300    24742946.8954   24742954.2174
     -1572.114       -1225.024
  13240107.611 9  10304677.00045  24302844.224    24302844.7074   24302851.4604
     -3160.418       -2462.663
 97  4 29 16  4 29.9980000  0  9 31 27 26 15 19  7  2 10 18         -0.001489979
   8705971.334 9   6780772.50246  23655854.889    23655855.0694   23655860.8504
     -2787.405       -2172.004
  -7213738.674 9  -5455810.47148  19686535.551    19686535.7174   19686540.6204
       763.191         594.694
 -12089036.651 9  -9396909.15647  23288644.318    23288645.0874   23288650.2934
      3137.527        2444.826
  -9237707.525 9  -7178102.00746  23783097.687    23783098.0554   23783104.6294
      2513.409        1958.501
   3890361.007 9   3030723.86548  21550515.612    21550516.3564   21550522.0354
     -1567.243       -1221.228
 -18062028.946 9 -14047623.59148  21662889.538    21662890.0004   21662896.4124
      3640.316        2836.610
  -8239405.306 9  -6412482.25548  20743784.298    20743784.3714   20743790.1114
      1231.139         959.329
   4545487.791 9   3541431.64946  24751930.403    24751929.9394   24751937.2784
     -1574.460       -1226.852
  13334915.915 9  10378553.59745  24320885.684    24320886.1844   24320892.8614
     -3159.702       -2462.105
 97  4 29 16  4 59.9980000  0  9 31 27 26 15 19  7  2 10 18         -0.001502365
   8789698.368 9   6846014.28746  23671787.346    23671787.8234   23671793.6124
     -2794.610       -2177.618
  -7236430.649 9  -5473492.53048  19682217.391    19682217.5764   19682222.4774
       749.514         584.037
 -12182971.250 9  -9470104.93847  23270769.163    23270769.9204   23270775.1564
      3124.787        2434.899
  -9312945.744 9  -7236729.18446  23768780.455    23768780.6504   23768787.2944
      2502.280        1949.829
   3937512.240 9   3067465.06448  21559488.235    21559488.9654   21559494.6744
     -1576.335       -1228.313
 -18171094.060 9 -14132609.37048  21642135.296    21642135.5994   21642142.0554
      3630.450        2828.922
  -8276249.396 9  -6441191.92448  20736773.107    20736773.1404   20736778.8804
      1224.951         954.507
   4592750.641 9   3578259.80746  24760924.255    24760923.8044   24760931.1354
     -1576.541       -1228.474
  13429696.832 9  10452408.82545  24338922.389    24338922.5294   24338929.0334
     -3159.025       -2461.578
 97  4 29 16  5 29.9980000  0  9 31 27 26 15 19  7  2 10 18         -0.001514768
   8873629.201 9   6911414.88446  23687758.814    23687759.3404   23687765.1634
     -2800.839       -2182.472
  -7258725.957 9  -5490865.49748  19677974.760    19677974.9534   19677979.8074
       736.725         574.071
 -12276542.262 9  -9543017.40847  23252963.148    23252963.9524   23252969.2214
      3113.178        2425.853
  -9387864.412 9  -7295107.37546  23754524.117    23754524.0854   23754530.8634
      2492.030        1941.841
   3984919.650 9   3104405.87448  21568509.739    21568510.3104   21568516.0004
     -1584.341       -1234.551
 -18279871.784 9 -14217371.21648  21621435.561    21621435.8724   21621442.3034
      3621.213        2821.724
  -8312918.764 9  -6469765.44548  20729795.126    20729795.1484   20729800.8864
      1219.471         950.237
   4640059.526 9   3615123.86846  24769926.753    24769926.4614   24769933.8544
     -1577.657       -1229.343
  13524437.555 9  10526232.77045  24356951.402    24356951.1294   24356957.3694
     -3157.226       -2460.176
 97  4 29 16  5 59.9980000  0  9 31 27 26 15 19  7  2 10 18         -0.001527192
   8957735.648 9   6976952.33746  23703763.746    23703764.1794   23703770.0904
     -2806.931       -2187.219
  -7280654.819 9  -5507952.92248  19673801.840    19673802.0134   19673806.8864
       724.542         564.578
 -12369782.013 9  -9615671.74347  23235220.190    23235220.9514   23235226.2754
      3102.444        2417.489
  -9462481.398 9  -7353250.48046  23740324.919    23740324.9394   23740331.6694
      2481.952        1933.989
   4032571.603 9   3141537.24248  21577577.511    21577578.2384   21577583.8964
     -1593.120       -1241.392
 -18388384.869 9 -14301926.84948  21600786.054    21600786.5224   21600792.9484
      3612.393        2814.852
  -8349429.673 9  -6498215.49548  20722847.275    20722847.3194   20722853.0674
      1214.069         946.028
   4687391.737 9   3652006.04745  24778933.821    24778933.4184   24778940.8734
     -1578.326       -1229.864
  13619117.000 9  10600008.95545  24374968.147    24374968.1864   24374974.2304
     -3155.147       -2458.556
 97  4 29 16  6 29.9980000  0  9 31 27 26 15 19  7  2 10 18         -0.001539614
   9042072.500 9   7042669.32346  23719812.792    23719813.0504   23719818.7944
     -2815.526       -2193.916
  -7302168.770 9  -5524717.04148  19669707.884    19669708.0614   19669712.9264
       709.923         553.187
 -12462664.800 9  -9688047.93447  23217545.086    23217545.8954   23217551.3054
      3089.789        2407.628
  -9536754.935 9  -7411125.97646  23726191.213    23726191.1654   23726197.9444
      2469.697        1924.439
   4080530.552 9   3178907.82548  21586703.788    21586704.5134   21586710.2094
     -1603.921       -1249.809
 -18496588.519 9 -14386241.36748  21580195.699    21580196.0724   21580202.4704
      3601.222        2806.147
  -8385735.062 9  -6526505.40248  20715938.580    20715938.6144   20715944.3534
      1206.272         939.952
   4734793.777 9   3688942.70845  24787954.136    24787953.6994   24787961.1744
     -1581.830       -1232.595
  13713768.091 9  10673763.02345  24392979.594    24392979.7034   24392985.8544
     -3154.683       -2458.195
 97  4 29 16  6 59.9980000  0  9 31 27 26 15 19  7  2 10 18         -0.001552046
   9126626.425 9   7108555.46346  23735903.089    23735903.1784   23735908.8584
     -2822.186       -2199.106
  -7323287.108 9  -5541172.88948  19665689.236    19665689.3844   19665694.2314
       697.171         543.250
 -12555212.232 9  -9760162.81047  23199933.935    23199934.6984   23199940.1504
      3079.400        2399.532
  -9610698.630 9  -7468744.43646  23712120.335    23712120.1384   23712126.9654
      2459.158        1916.227
   4128774.075 9   3216500.15748  21595884.276    21595884.9514   21595890.6954
     -1613.094       -1256.956
 -18604494.663 9 -14470324.06348  21559661.810    21559662.2104   21559668.5924
      3591.815        2798.817
  -8421838.499 9  -6554637.94248  20709068.370    20709068.3724   20709074.1154
      1199.943         935.021
   4782263.192 9   3725931.82545  24796987.299    24796986.8494   24796994.4754
     -1583.581       -1233.959
  13808365.262 9  10747475.07945  24410981.106    24410980.8854   24410987.0364
     -3152.513       -2456.504
 97  4 29 16  7 29.9980000  0  9 31 27 26 15 19  7  2 10 18         -0.001564492
   9211394.579 9   7174608.53646  23752034.026    23752034.0224   23752039.7994
     -2828.406       -2203.953
  -7343998.485 9  -5557311.62348  19661748.016    19661748.1674   19661753.0114
       684.224         533.162
 -12647433.510 9  -9832023.53047  23182384.829    23182385.5644   23182391.0274
      3069.280        2391.647
  -9684304.446 9  -7526099.62846  23698113.979    23698113.3994   23698120.2454
      2448.551        1907.962
   4177314.633 9   3254323.94748  21605121.243    21605121.9304   21605127.7204
     -1622.221       -1264.068
 -18712099.606 9 -14554172.05848  21539185.291    21539185.7014   21539192.0134
      3582.522        2791.575
  -8457736.910 9  -6582610.71848  20702237.139    20702237.1264   20702242.9144
      1193.934         930.338
   4829811.041 9   3762982.08145  24806035.362    24806035.0304   24806042.5174
     -1585.598       -1235.531
  13902910.076 8  10821146.32845  24428972.492    24428972.2404   24428978.4004
     -3150.010       -2454.553
 97  4 29 16  7 59.9980000  0  9 31 27 26 15 19  7  2 10 18         -0.001576974
   9296335.439 9   7240796.17946  23768198.336    23768197.8154   23768203.5074
     -2834.052       -2208.352
  -7364331.565 9  -5573155.58648  19657878.763    19657878.9174   19657883.7654
       671.699         523.402
 -12739355.735 9  -9903651.23647  23164892.666    23164893.4024   23164898.7924
      3059.179        2383.776
  -9757594.810 9  -7583209.01346  23684167.143    23684166.7434   23684173.5884
      2437.859        1899.630
   4226122.668 9   3292356.15548  21614409.070    21614409.8344   21614415.6014
     -1631.100       -1270.987
 -18819431.862 9 -14637807.57448  21518760.568    21518761.0594   21518767.3814
      3573.249        2784.350
  -8493464.396 9  -6610450.31048  20695438.395    20695438.4334   20695444.1924
      1188.355         925.991
   4877411.919 9   3800073.63845  24815093.568    24815093.3364   24815100.7244
     -1587.339       -1236.888
  13997376.802 8  10894756.71645  24446948.875    24446948.6114   24446954.8534
     -3147.335       -2452.469
 97  4 29 16  8 29.9980000  0  8 31 27 26 15 19  7  2 18            -0.001589466
   9381471.084 9   7307135.61446  23784399.203    23784398.6064   23784404.3374
     -2840.517       -2213.390
  -7384253.860 9  -5588679.45748  19654087.736    19654087.8524   19654092.6764
       657.695         512.490
 -12830936.234 9  -9975012.65747  23147465.562    23147466.2244   23147471.6034
      3047.158        2374.409
  -9830532.243 9  -7640043.37746  23670287.319    23670287.1304   23670294.0594
      2425.589        1890.069
   4275216.823 9   3330611.31348  21623751.375    21623752.1524   21623757.9404
     -1640.725       -1278.487
 -18926449.141 9 -14721197.65048  21498395.921    21498396.3454   21498402.6654
      3562.366        2775.870
  -8528996.632 9  -6638137.75548  20688676.852    20688676.8874   20688682.6304
      1181.439         920.602
  14091784.686 8  10968321.27645  24464914.151    24464913.8834   24464920.2124
     -3145.599       -2451.116
 97  4 29 16  8 59.9980000  0  8 31 27 26 15 19  7  2 18            -0.001601981
   9466752.854 9   7373588.92346  23800627.675    23800627.2254   23800632.9864
     -2845.117       -2216.974
  -7403796.785 9  -5603907.71148  19650368.718    19650368.9364   19650373.8024
       644.924         502.538
 -12922186.970 9 -10046117.11447  23130101.172    23130101.7654   23130107.2124
      3036.150        2365.831
  -9903130.307 9  -7696613.29146  23656472.381    23656472.1744   23656479.0554
      2414.247        1881.231
   4324571.092 9   3369069.15948  21633143.096    21633143.9614   21633149.7894
     -1649.678       -1285.463
 -19033178.208 9 -14804363.14948  21478085.897    21478086.4364   21478092.7654
      3552.793        2768.410
  -8564358.590 9  -6665692.52048  20681947.621    20681947.6824   20681953.4434
      1175.964         916.336
  14186113.106 8  11041823.86345  24482863.493    24482863.9404   24482870.5484
     -3143.197       -2449.244
 97  4 29 16  9 29.9980000  0  8 31 27 26 15 19  7  2 18            -0.001614525
   9552157.681 9   7440138.12146  23816879.997    23816879.3304   23816885.0774
     -2848.965       -2219.973
  -7422971.491 9  -5618849.04648  19646719.872    19646720.1194   19646724.9844
       633.313         493.491
 -13013115.929 9 -10116970.83747  23112797.820    23112798.5194   23112803.9844
      3025.422        2357.472
  -9975397.545 9  -7752925.41746  23642720.305    23642720.1864   23642726.9884
      2403.427        1872.800
   4374183.366 9   3407728.04647  21642583.910    21642584.8624   21642590.7604
     -1657.885       -1291.858
 -19139628.891 9 -14887311.71748  21457829.012    21457829.5564   21457835.9054
      3543.840        2761.434
  -8599571.486 9  -6693131.12948  20675246.773    20675246.8544   20675252.6394
      1171.359         912.747
  14280360.750 8  11115263.52545  24500797.396    24500798.6934   24500805.5144
     -3140.328       -2447.009
 97  4 29 16  9 59.9980000  0  8 31 27 26 15 19  7  2 18            -0.001627063
   9637724.873 9   7506813.83946  23833162.805    23833162.2434   23833168.0844
     -2855.475       -2225.045
  -7441773.965 9  -5633500.32748  19643141.919    19643142.1354   19643147.0214
       620.255         483.316
 -13103678.852 9 -10187539.35147  23095564.280    23095564.9724   23095570.3564
      3012.146        2347.127
 -10047303.067 9  -7808955.68046  23629036.829    23629036.8864   23629043.7824
      2390.401        1862.650
   4424080.933 9   3446609.23747  21652079.150    21652080.0574   21652086.0054
     -1668.559       -1300.176
 -19245778.041 9 -14970025.33148  21437629.550    21437630.0354   21437636.3964
      3532.804        2752.834
  -8634601.076 9  -6720426.90848  20668580.895    20668580.9314   20668586.6874
      1164.068         907.066
  14374565.323 8  11188669.58945  24518722.763    24518725.2164   24518732.1394
     -3139.789       -2446.589
 97  4 29 16 10 29.9980000  0  8 31 27 26 15 19  7  2 18            -0.001639595
   9723451.773 9   7573613.99746  23849475.796    23849475.5384   23849481.5074
     -2860.540       -2228.992
  -7460222.049 9  -5647875.45948  19639631.355    19639631.6044   19639636.4834
       608.791         474.383
 -13193879.189 9 -10257825.31847  23078399.751    23078400.4004   23078405.7524
      3000.284        2337.884
 -10118853.571 9  -7864709.28646  23615421.001    23615421.2894   23615428.1764
      2378.794        1853.606
   4474261.027 9   3485710.58147  21661628.156    21661629.0464   21661635.0424
     -1677.616       -1307.233
 -19351632.495 9 -15052509.30948  21417486.122    21417486.5904   21417492.9284
      3523.432        2745.531
  -8669448.945 9  -6747581.07948  20661949.586    20661949.6314   20661955.3394
      1158.315         902.583
  14468712.306 8  11262030.81645  24536639.370    24536640.6744   24536647.8594
     -3137.537       -2444.834
 97  4 29 16 10 59.9980000  0  8 31 27 26 15 19  7  2 18            -0.001652113
   9809345.806 9   7640544.38946  23865820.477    23865820.7034   23865826.7304
     -2865.615       -2232.947
  -7478311.968 9  -5661971.50848  19636188.973    19636189.2014   19636194.0944
       597.210         465.358
 -13283699.486 9 -10327815.15447  23061307.463    23061308.1694   23061313.4884
      2988.043        2328.345
 -10190046.539 9  -7920184.28046  23601873.556    23601873.7194   23601880.5134
      2367.674        1844.941
   4524724.014 9   3525032.36047  21671231.123    21671231.8554   21671237.8644
     -1686.107       -1313.850
 -19457193.683 9 -15134764.76548  21397398.451    21397398.9544   21397405.2524
      3514.188        2738.328
  -8704118.334 9  -6774596.17848  20655352.207    20655352.2564   20655357.9824
      1153.181         898.583
  14562813.181 8  11335356.03945  24554546.850    24554547.7804   24554555.3914
     -3135.566       -2443.298
 97  4 29 16 11 29.9980000  0  8 31 27 26 15 19  7  2 18            -0.001664620
   9895420.345 9   7707615.44446  23882199.805    23882200.1184   23882206.1974
     -2872.112       -2238.009
  -7496033.409 9  -5675780.42748  19632816.699    19632816.9294   19632821.8244
       584.611         455.541
 -13373131.392 9 -10397502.34147  23044289.129    23044289.7994   23044295.1274
      2974.622        2317.887
 -10260886.750 9  -7975384.38746  23588393.032    23588393.3054   23588399.9074
      2355.562        1835.503
   4575451.314 9   3564560.09047  21680884.292    21680884.9734   21680890.9984
     -1694.993       -1320.774
 -19562455.426 9 -15216786.88848  21377367.837    21377368.2874   21377374.5784
      3503.923        2730.330
  -8738614.809 9  -6801476.54148  20648787.703    20648787.7874   20648793.5214
      1147.190         893.914
  14656870.308 8  11408647.23845  24572445.838    24572446.7764   24572453.5184
     -3134.196       -2442.231
 97  4 29 16 11 59.9980000  0  8 31 27 26 15 19  7  2 18            -0.001677117
   9981679.071 9   7774830.01046  23898614.124    23898614.6134   23898620.7104
     -2878.073       -2242.654
  -7513363.031 9  -5689284.03048  19629518.933    19629519.2044   19629524.1114
       570.725         444.721
 -13462160.214 9 -10466875.44347  23027347.419    23027348.1564   23027353.5374
      2960.880        2307.179
 -10331365.397 9  -8030302.75946  23574981.258    23574981.6124   23574988.2644
      2343.206        1825.875
   4626437.013 9   3604289.17647  21690586.606    21690587.2564   21690593.3074
     -1703.780       -1327.621
 -19667412.019 9 -15298571.22948  21357395.229    21357395.6874   21357401.9664
      3493.267        2722.026
  -8772937.893 9  -6828221.79148  20642256.253    20642256.3434   20642262.0724
      1141.224         889.265
  14750879.396 8  11481901.00346  24590335.398    24590336.1074   24590342.7794
     -3132.616       -2440.999
 97  4 29 16 12 29.9980000  0  8 31 27 26 15 19  7  2 18            -0.001689625
  10068090.516 9   7842163.58446  23915057.527    23915058.0884   23915064.3224
     -2882.669       -2246.236
  -7530271.144 9  -5702459.18848  19626301.468    19626301.7114   19626306.6214
       556.531         433.661
 -13550787.886 9 -10535935.96247  23010482.216    23010482.8984   23010488.2744
      2947.833        2297.013
 -10401488.175 9  -8084943.82946  23561637.551    23561637.5184   23561644.3284
      2331.779        1816.971
   4677667.458 9   3644208.97847  21700335.542    21700336.1604   21700342.2334
     -1711.407       -1333.564
 -19772058.001 9 -15380113.53548  21337481.784    21337482.2184   21337488.4664
      3483.370        2714.314
  -8807097.283 9  -6854839.48548  20635755.993    20635756.0344   20635761.7404
      1136.200         885.351
  14844816.523 8  11555098.70346  24608211.000    24608211.8004   24608218.4524
     -3129.766       -2438.779
 97  4 29 16 12 59.9980000  0  8 31 27 26 15 19  7  2 18            -0.001702149
  10154668.486 9   7909626.89546  23931532.681    23931533.2344   23931539.5754
     -2888.256       -2250.589
  -7546715.673 9  -5715273.11148  19623172.180    19623172.4474   19623177.3384
       540.819         421.417
 -13638998.529 9 -10604671.52247  22993696.329    22993697.0254   22993702.3134
      2934.187        2286.379
 -10471239.221 9  -8139295.25946  23548364.215    23548364.3654   23548371.1644
      2319.347        1807.283
   4729155.270 9   3684329.32347  21710133.473    21710134.0054   21710140.1094
     -1720.106       -1340.342
 -19876382.270 9 -15461405.15548  21317629.532    21317629.9404   21317636.1964
      3472.636        2705.950
  -8841071.348 9  -6881312.77248  20629290.909    20629290.9634   20629296.6954
      1129.726         880.306
  14938702.306 9  11628256.39946  24626077.032    24626077.7044   24626084.4014
     -3128.057       -2437.447
 97  4 29 16 13 29.9980000  0  8 31 27 26 15 19  7  2 18            -0.001714697
  10241420.213 9   7977225.60446  23948041.143    23948041.5834   23948047.9324
     -2894.690       -2255.602
  -7562691.455 9  -5727721.77748  19620132.092    19620132.3664   19620137.2624
       524.878         408.996
 -13726809.743 9 -10673095.83247  22976986.400    22976987.1484   22976992.3814
      2920.418        2275.650
 -10540611.411 9  -8193351.48546  23535163.332    23535163.2934   23535169.9824
      2305.965        1796.856
   4780912.211 9   3724659.38047  21719982.542    21719983.0774   21719989.1364
     -1729.904       -1347.977
 -19980383.108 9 -15542444.75048  21297838.896    21297839.2344   21297845.4864
      3461.277        2697.099
  -8874842.369 9  -6907627.84348  20622864.544    20622864.5664   20622870.2724
      1122.150         874.403
  15032528.707 9  11701367.83446  24643931.683    24643932.3094   24643939.0094
     -3126.328       -2436.100
 97  4 29 16 13 59.9980000  0  8 31 27 26 15 19  7  2 18            -0.001727274
  10328331.595 9   8044948.71746  23964579.643    23964580.2084   23964586.5564
     -2900.670       -2260.262
  -7578219.651 9  -5739821.66748  19617177.170    19617177.4754   19617182.3614
       509.441         396.967
 -13814235.747 9 -10741219.98647  22960349.836    22960350.5344   22960355.7584
      2906.898        2265.115
 -10609607.675 9  -8247114.76646  23522034.093    23522033.6514   23522040.3234
      2292.603        1786.444
   4832936.382 9   3765197.67547  21729882.395    21729882.9954   21729889.0234
     -1739.538       -1355.484
 -20084073.556 9 -15623242.48148  21278107.243    21278107.5974   21278113.8454
      3450.156        2688.433
  -8908409.859 9  -6933784.31648  20616476.930    20616476.9244   20616482.5914
      1114.454         868.406
  15126267.840 9  11774411.28946  24661769.448    24661770.3274   24661777.0474
     -3124.153       -2434.405
 97  4 29 16 14 29.9980000  0  8 31 27 26 15 19  7  2 18            -0.001739866
  10415391.655 9   8112787.69046  23981146.497    23981147.3034   23981153.5764
     -2904.816       -2263.493
  -7593332.747 9  -5751598.11148  19614301.271    19614301.5584   19614306.4474
       497.067         387.325
 -13901296.807 9 -10809059.76147  22943782.503    22943783.3524   22943788.5364
      2896.108        2256.707
 -10678239.381 9  -8300593.98946  23508974.137    23508973.5584   23508980.0484
      2281.534        1777.819
   4885210.168 9   3805930.46947  21739829.712    21739830.4234   21739836.4354
     -1746.683       -1361.052
 -20187464.248 9 -15703806.64048  21258432.515    21258432.9514   21258439.2054
      3441.253        2681.496
  -8941777.870 9  -6959785.36148  20610127.196    20610127.2124   20610132.8684
      1108.915         864.090
  15219907.565 9  11847377.27545  24679588.283    24679589.4154   24679596.0044
     -3119.839       -2431.043
 97  4 29 16 14 59.9980000  0  8 31 27 26 15 19  7  2 18            -0.001752502
  10502608.269 9   8180748.67146  23997743.327    23997744.0694   23997750.3544
     -2909.237       -2266.938
  -7608061.618 9  -5763075.15648  19611498.467    19611498.7654   19611503.6554
       485.199         378.077
 -13988013.731 9 -10876631.37947  22927280.879    22927281.5944   22927286.7434
      2885.252        2248.248
 -10746504.692 9  -8353787.70746  23495983.431    23495983.0924   23495989.5354
      2269.882        1768.739
   4937730.991 9   3846855.76047  21749823.935    21749824.7934   21749830.8194
     -1754.302       -1366.989
 -20290554.339 9 -15784136.56348  21238815.119    21238815.5784   21238821.8274
      3431.632        2673.999
  -8974956.056 9  -6985638.48548  20603813.580    20603813.6084   20603819.2484
      1103.500         859.870
  15313453.964 9  11920270.52746  24697389.721    24697390.7144   24697397.3544
     -3115.984       -2428.039
 97  4 29 16 15 29.9980000  0  8 31 27 26 15 19  7  2 18            -0.001765154
  10589971.592 9   8248823.95046  24014367.698    24014368.7784   24014375.0574
     -2914.398       -2270.959
  -7622423.341 9  -5774266.10948  19608765.581    19608765.8474   19608770.7054
       472.656         368.303
 -14074378.582 9 -10943928.65047  22910846.171    22910846.8914   22910852.0644
      2872.764        2238.517
 -10814399.145 9  -8406692.44246  23483063.222    23483063.1084   23483069.5604
      2256.936        1758.651
   4990496.199 9   3887971.48147  21759864.845    21759865.7164   21759871.7654
     -1762.882       -1373.674
 -20393330.759 9 -15864222.06448  21219257.389    21219257.9024   21219264.1214
      3420.628        2665.424
  -9007958.907 9  -7011354.98348  20597533.339    20597533.3604   20597539.0044
      1097.257         855.005
  15406891.753 9  11993079.18445  24715170.606    24715171.4254   24715178.0334
     -3112.747       -2425.517
 97  4 29 16 15 59.9980000  0  8 31 27 26 15 19  7  2 18            -0.001777818
  10677459.221 9   8316996.10546  24031016.191    24031017.1554   24031023.4864
     -2918.451       -2274.118
  -7636422.737 9  -5785174.73048  19606101.575    19606101.8484   19606106.7054
       460.285         358.664
 -14160383.198 9 -11010945.22747  22894479.979    22894480.8174   22894485.9714
      2860.610        2229.047
 -10881927.242 9  -8459311.71646  23470212.796    23470212.9354   23470219.3814
      2244.657        1749.083
   5043499.257 9   3929272.54247  21769951.127    21769951.9044   21769957.9734
     -1770.918       -1379.936
 -20495797.184 9 -15944066.01348  21199758.734    21199759.1954   21199765.3964
      3410.136        2657.249
  -9040801.616 9  -7036946.69648  20591283.647    20591283.5824   20591289.2524
      1092.103         850.989
  15500217.307 9  12065800.39745  24732929.640    24732930.7084   24732937.3564
     -3109.367       -2422.883
 97  4 29 16 16 29.9980000  0  8 31 27 26 15 19  7  2 18            -0.001790489
  10765069.611 9   8385263.91046  24047688.349    24047688.8214   24047695.2464
     -2923.040       -2277.694
  -7650036.916 9  -5795783.18448  19603510.876    19603511.1584   19603516.0104
       446.707         348.083
 -14246011.090 9 -11077668.25947  22878185.397    22878186.3644   22878191.5764
      2847.379        2218.737
 -10949079.148 9  -8511637.84946  23457434.036    23457434.3944   23457440.8334
      2231.515        1738.843
   5096757.042 9   3970772.09547  21780085.728    21780086.5494   21780092.6264
     -1780.254       -1387.211
 -20597936.457 9 -16023655.04648  21180322.263    21180322.7314   21180328.9054
      3398.513        2648.192
  -9073486.911 9  -7062415.75848  20585063.772    20585063.7774   20585069.4564
      1086.441         846.577
  15593446.386 9  12138446.42045  24750670.483    24750671.6614   24750678.2614
     -3106.430       -2420.595
 97  4 29 16 16 59.9980000  0  8 31 27 26 15 19  7  2 18            -0.001803147
  10852813.865 9   8453636.01046  24064385.108    24064386.0284   24064392.4864
     -2927.824       -2281.421
  -7663242.001 9  -5806072.86448  19600998.092    19600998.3314   19601003.1794
       432.402         336.937
 -14331233.901 9 -11144075.64147  22861968.163    22861969.0234   22861974.2394
      2832.848        2207.414
 -11015838.759 9  -8563658.29546  23444730.097    23444730.3904   23444736.8874
      2217.947        1728.270
   5150304.481 9   4012497.34647  21790275.493    21790276.2844   21790282.3634
     -1790.616       -1395.285
 -20699730.782 9 -16102975.28248  21160951.504    21160951.9454   21160958.0824
      3386.748        2639.024
  -9106011.720 9  -7087759.75848  20578874.500    20578874.4924   20578880.1744
      1080.576         842.007
  15686586.638 8  12211023.20845  24768394.988    24768395.4484   24768401.9534
     -3104.002       -2418.703
 97  4 29 16 17 29.9980000  0  8 31 27 26 15 19  7  2 18            -0.001815761
  10940735.492 9   8522146.34246  24081115.820    24081116.9914   24081123.3864
     -2933.394       -2285.762
  -7675987.805 9  -5816004.66348  19598572.621    19598572.8984   19598577.7514
       417.646         325.438
 -14415987.960 9 -11210117.75847  22845840.014    22845840.8784   22845846.0864
      2817.732        2195.635
 -11082158.530 9  -8615335.98146  23432109.805    23432110.0714   23432116.7354
      2203.615        1717.103
   5204193.544 9   4054488.79447  21800530.305    21800531.0454   21800537.1264
     -1801.676       -1403.903
 -20801149.935 9 -16182003.17548  21141652.162    21141652.5294   21141658.6454
      3374.844        2629.749
  -9138318.962 9  -7112934.22848  20572726.563    20572726.6364   20572732.3074
      1073.525         836.513
  15779682.705 8  12283565.58045  24786110.804    24786111.0634   24786117.3764
     -3102.334       -2417.403
 97  4 29 16 17 59.9980000  0  7 31 27 26 15 19  7  2               -0.001828348
  11028809.249 9   8590775.21446  24097875.862    24097876.9964   24097883.3924
     -2938.547       -2289.777
  -7688305.167 9  -5825602.61048  19596228.752    19596229.0204   19596233.8494
       403.377         314.320
 -14500299.049 9 -11275814.70547  22829796.037    22829797.0094   22829802.1884
      2803.044        2184.190
 -11148062.523 9  -8666689.71146  23419568.997    23419568.9504   23419575.6444
      2189.753        1706.301
   5258401.346 9   4096728.61747  21810845.843    21810846.4754   21810852.5224
     -1812.179       -1412.088
 -20902226.445 9 -16260764.07248  21122418.011    21122418.3044   21122424.4094
      3363.306        2620.758
  -9170431.396 9  -7137956.90348  20566615.872    20566615.8764   20566621.5214
      1067.140         831.538
 97  4 29 16 18 29.9980000  0  7 31 27 26 15 19  7  2               -0.001840927
  11117019.863 9   8659510.72146  24114661.594    24114662.9034   24114669.3054
     -2942.292       -2292.695
  -7700225.436 9  -5834891.13948  19593960.475    19593960.6844   19593965.4974
       391.301         304.910
 -14584199.397 9 -11341191.59647  22813830.448    22813831.3094   22813836.5144
      2790.370        2174.314
 -11213574.676 9  -8717738.11146  23407102.393    23407102.3574   23407109.0474
      2177.629        1696.854
   5312894.130 9   4139190.49847  21821215.366    21821216.1134   21821222.1454
     -1820.606       -1418.654
 -21002977.651 9 -16339271.48248  21103245.672    21103245.9294   21103252.0644
      3353.454        2613.081
  -9202370.318 9  -7162844.36748  20560538.075    20560538.1024   20560543.7644
      1062.054         827.575
 97  4 29 16 18 59.9980000  0  7 31 27 26 15 19  7  2               -0.001853505
  11205363.996 9   8728350.27646  24131472.969    24131474.1944   24131480.6014
     -2947.486       -2296.742
  -7711754.082 9  -5843874.50548  19591766.623    19591766.8684   19591771.6774
       377.014         293.777
 -14667693.543 9 -11406251.97147  22797942.010    22797942.8984   22797948.1444
      2775.780        2162.945
 -11278695.703 9  -8768481.71746  23394710.147    23394710.1314   23394716.9424
      2163.483        1685.831
   5367658.957 9   4181864.35947  21831636.808    21831637.5184   21831643.5484
     -1830.298       -1426.206
 -21103411.631 9 -16417531.70548  21084133.666    21084133.9634   21084140.0994
      3342.039        2604.186
  -9234123.008 9  -7187586.72048  20554495.700    20554495.7454   20554501.4334
      1054.512         821.698
 97  4 29 16 19 29.9980000  0  7 31 27 26 15 19  7  2               -0.001866102
  11293829.259 9   8797284.19546  24148307.506    24148308.5324   24148315.0004
     -2950.537       -2299.120
  -7722881.924 9  -5852545.55248  19589649.071    19589649.3244   19589654.1054
       364.353         283.911
 -14750791.067 9 -11471003.27747  22782129.104    22782129.9244   22782135.1954
      2763.631        2153.479
 -11343422.696 9  -8818918.29646  23382392.614    23382392.8964   23382399.7804
      2151.233        1676.285
   5422667.969 9   4224728.49347  21842104.609    21842105.3954   21842111.4464
     -1837.225       -1431.604
 -21203527.440 9 -16495543.99948  21065082.190    21065082.5514   21065088.7104
      3331.806        2596.212
  -9265673.792 9  -7212171.74648  20548491.742    20548491.8444   20548497.5064
      1048.862         817.295
 97  4 29 16 19 59.9980000  0  7 31 27 26 15 19  7  2               -0.001878727
  11382403.004 8   8866302.65146  24165162.983    24165163.5484   24165170.0094
     -2953.791       -2301.655
  -7733592.517 9  -5860891.46948  19587610.951    19587611.1634   19587615.9734
       350.347         272.998
 -14833495.035 9 -11535447.92147  22766390.968    22766391.8524   22766397.1394
      2750.933        2143.584
 -11407760.923 9  -8869051.93646  23370149.534    23370149.7994   23370156.6444
      2138.721        1666.536
   5477899.628 9   4267766.11747  21852614.822    21852615.6554   21852621.7424
     -1844.162       -1437.009
 -21303303.256 9 -16573291.36048  21046095.398    21046095.8224   21046102.0054
      3320.615        2587.492
  -9297043.868 9  -7236615.95948  20542522.269    20542522.3354   20542527.9594
      1043.257         812.928
 97  4 29 16 20 29.9980000  0  7 31 27 26 15 19  7  2               -0.001891402
  11471065.417 8   8935390.20246  24182034.842    24182035.4784   24182041.8564
     -2956.783       -2303.987
  -7743875.764 9  -5868904.39648  19585654.109    19585654.3164   19585659.1284
       335.545         261.464
 -14915822.875 9 -11599599.48047  22750724.513    22750725.3604   22750730.6644
      2737.872        2133.407
 -11471721.206 9  -8918891.09446  23357978.184    23357978.5004   23357985.3814
      2125.605        1656.316
   5533339.789 9   4310966.21447  21863164.720    21863165.5974   21863171.6894
     -1851.554       -1442.769
 -21402741.617 9 -16650775.77048  21027172.863    21027173.2724   21027179.4784
      3308.972        2578.420
  -9328245.091 9  -7260928.59448  20536584.885    20536584.9554   20536590.5764
      1037.305         808.290
 97  4 29 16 20 59.9980000  0  7 31 27 26 15 19  7  2               -0.001904117
  11559815.219 8   9004545.84146  24198923.195    24198924.0024   24198930.4524
     -2960.262       -2306.698
  -7753708.214 9  -5876566.04348  19583783.038    19583783.2634   19583788.0584
       319.875         249.253
 -14997756.622 9 -11663443.94047  22735133.043    22735133.8784   22735139.2394
      2724.293        2122.826
 -11535287.857 9  -8968423.52846  23345881.709    23345882.1534   23345889.0804
      2111.913        1645.646
   5589005.755 9   4354342.27147  21873757.619    21873758.4974   21873764.6024
     -1859.604       -1449.042
 -21501828.519 9 -16727986.31448  21008317.219    21008317.6244   21008323.8374
      3296.618        2568.793
  -9359280.336 9  -7285111.89548  20530679.053    20530679.1394   20530684.7724
      1031.692         803.916
 97  4 29 16 21 29.9980000  0  7 31 27 26 15 19  7  2               -0.001916856
  11648684.908 8   9073794.90846  24215835.114    24215835.3764   24215841.8344
     -2964.458       -2309.967
  -7763074.138 9  -5883864.16848  19582000.795    19582000.9984   19582005.7694
       304.678         237.411
 -15079286.769 9 -11726973.91947  22719618.468    22719619.2394   22719624.6054
      2711.008        2112.474
 -11598434.402 9  -9017628.61947  23333865.500    23333865.8274   23333872.7004
      2097.930        1634.751
   5644923.649 9   4397914.62447  21884398.370    21884399.3504   21884405.4544
     -1868.273       -1455.797
 -21600534.942 9 -16804900.38148  20989534.095    20989534.3904   20989540.6474
      3283.845        2558.840
  -9390149.465 9  -7309165.75548  20524804.852    20524804.9314   20524810.5884
      1026.531         799.894
 97  4 29 16 21 59.9980000  0  7 31 27 26 15 19  7  2               -0.001929612
  11737678.057 8   9143140.16846  24232769.968    24232770.3204   24232776.6524
     -2968.674       -2313.252
  -7771998.678 9  -5890818.35648  19580302.537    19580302.7464   19580307.5024
       290.029         225.997
 -15160424.486 9 -11790198.11147  22704178.625    22704179.2674   22704184.5944
      2697.875        2102.240
 -11661166.325 9  -9066510.63547  23321928.128    23321928.3044   23321935.1824
      2083.822        1623.757
   5701106.333 9   4441693.31547  21895089.604    21895090.6284   21895096.7024
     -1877.639       -1463.095
 -21698872.988 9 -16881527.40448  20970820.938    20970821.2854   20970827.5794
      3271.816        2549.467
  -9420875.427 9  -7333108.06148  20518957.940    20518958.0004   20518963.6524
      1021.367         795.870
 97  4 29 16 22 29.9980000  0  7 31 27 26 15 19  7  2               -0.001942382
  11826788.768 8   9212577.04146  24249727.308    24249727.5594   24249733.8784
     -2971.748       -2315.648
  -7780499.448 9  -5897442.33748  19578684.877    19578685.1234   19578689.8764
       276.988         215.835
 -15241174.964 9 -11853120.55247  22688812.196    22688813.0004   22688818.3134
      2685.478        2092.580
 -11723477.887 9  -9115065.09247  23310070.458    23310070.8054   23310077.7204
      2070.512        1613.386
   5757563.879 9   4485686.18847  21905833.208    21905834.1434   21905840.2514
     -1885.870       -1469.509
 -21796858.400 9 -16957879.64248  20952174.865    20952175.2384   20952181.5374
      3260.893        2540.956
  -9451446.145 9  -7356929.39148  20513140.497    20513140.5584   20513146.2294
      1016.859         792.358
 97  4 29 16 22 59.9980000  0  7 31 27 26 15 19  7  2               -0.001955159
  11916010.079 9   9282100.11146  24266705.376    24266705.8584   24266712.1514
     -2974.958       -2318.149
  -7788594.424 9  -5903750.11248  19577144.452    19577144.7254   19577149.4694
       263.991         205.707
 -15321525.758 9 -11915731.55047  22673521.996    22673522.7614   22673528.0554
      2672.596        2082.542
 -11785370.750 9  -9163293.30247  23298292.693    23298293.0054   23298299.8924
      2057.013        1602.867
   5814283.023 9   4529882.89447  21916626.551    21916627.4574   21916633.5784
     -1893.956       -1475.810
 -21894506.415 9 -17033968.97948  20933592.934    20933593.4254   20933599.7054
      3250.374        2532.759
  -9481864.151 9  -7380631.73048  20507352.189    20507352.2054   20507357.8824
      1012.310         788.813
 97  4 29 16 23 29.9980000  0  7 31 27 26 15 19  7  2               -0.001967945
  12005332.182 9   9351701.71146  24283702.850    24283703.3534   24283709.5614
     -2978.511       -2320.918
  -7796291.716 9  -5909748.00348  19575679.667    19575679.9524   19575684.7274
       250.341         195.071
 -15401469.580 9 -11978025.42547  22658309.181    22658309.9114   22658315.2394
      2658.090        2071.239
 -11846845.655 9  -9211195.82847  23286594.516    23286594.7114   23286601.5884
      2042.539        1591.589
   5871249.465 9   4574272.30147  21927467.038    21927467.8564   21927473.9194
     -1902.608       -1482.552
 -21991832.399 9 -17109807.38548  20915072.378    20915072.8914   20915079.1924
      3239.191        2524.045
  -9512124.632 9  -7404211.32248  20501593.797    20501593.8364   20501599.5204
      1006.404         784.211
 97  4 29 16 23 59.9980000  0  7 31 27 26 15 19  7  2               -0.001980741
  12094723.992 9   9421357.63046  24300713.335    24300714.1564   24300720.1964
     -2981.052       -2322.898
  -7803601.188 9  -5915443.69648  19574288.663    19574289.0184   19574293.7844
       236.720         184.457
 -15480994.491 9 -12039992.87547  22643176.004    22643176.8174   22643182.1524
      2643.450        2059.831
 -11907916.695 9  -9258783.64847  23274973.397    23274973.2814   23274980.1934
      2028.731        1580.829
   5928446.038 9   4618841.03247  21938351.242    21938352.0834   21938358.1204
     -1910.545       -1488.736
 -22088850.901 9 -17185406.19048  20896610.395    20896610.8684   20896617.1754
      3228.614        2515.803
  -9542236.467 9  -7427675.08948  20495863.713    20495863.7704   20495869.4154
      1000.858         779.889
 97  4 29 16 24 29.9980000  0  7 31 27 26 15 19  7  2               -0.001993546
  12184191.155 9   9491072.27546  24317738.947    24317739.2194   24317745.2674
     -2983.723       -2324.979
  -7810497.994 9  -5920817.83448  19572976.306    19572976.6144   19572981.3704
       222.921         173.705
 -15560073.588 9 -12101612.94047  22628127.630    22628128.5614   22628133.9374
      2628.437        2048.133
 -11968571.796 9  -9306047.36047  23263431.122    23263431.0294   23263437.9604
      2014.772        1569.952
   5985870.458 9   4663587.30447  21949278.713    21949279.6284   21949285.6954
     -1917.941       -1494.499
 -22185543.713 9 -17260751.21748  20878210.376    20878210.8454   20878217.1284
      3217.462        2507.113
  -9572178.043 9  -7451006.18348  20490165.988    20490166.0624   20490171.6984
       995.182         775.466
 97  4 29 16 24 59.9980000  0  7 31 27 26 15 19  7  2               -0.002006339
  12273768.996 9   9560873.15046  24334785.424    24334785.4244   24334791.3314
     -2988.557       -2328.746
  -7816959.828 9  -5925853.03648  19571746.664    19571746.9784   19571751.7364
       207.439         161.641
 -15638686.723 9 -12162869.92247  22613168.123    22613168.9744   22613174.4094
      2612.299        2035.558
 -12028785.306 9  -9352966.95547  23251973.031    23251972.7404   23251979.6534
      1999.074        1557.720
   6043551.496 9   4708533.53747  21960255.014    21960255.9724   21960262.0964
     -1927.795       -1502.178
 -22281877.738 9 -17335816.67448  20859878.596    20859879.0384   20859885.3434
      3204.280        2496.841
  -9601936.422 9  -7474194.52648  20484503.087    20484503.2084   20484508.8264
       988.389         770.173
 97  4 29 16 25 29.9970000  0  7 31 27 26 15 19  7  2               -0.002019125
  12363460.250 9   9630762.41345  24351853.183    24351853.1494   24351858.9704
     -2991.038       -2330.679
  -7822992.311 9  -5930553.67648  19570598.714    19570599.0454   19570603.8224
       194.637         151.665
 -15716856.506 9 -12223781.42947  22598292.916    22598293.7594   22598299.1664
      2599.207        2025.356
 -12088557.877 9  -9399542.95247  23240598.518    23240598.3994   23240605.2914
      1985.919        1547.469
   6101499.539 9   4753687.82947  21971282.117    21971283.1184   21971289.2694
     -1935.609       -1508.267
 -22377833.791 9 -17410587.60048  20841618.725    20841619.2204   20841625.5074
      3192.850        2487.935
  -9631515.932 9  -7497243.49348  20478874.338    20478874.4164   20478880.0094
       983.612         766.451
 97  4 29 16 25 59.9970000  0  7 31 27 26 15 19  7  2               -0.002031914
  12453267.956 9   9700742.44645  24368943.355    24368943.0964   24368948.7944
     -2995.645       -2334.269
  -7828596.811 9  -5934920.82748  19569532.216    19569532.5624   19569537.3234
       179.497         139.868
 -15794609.904 9 -12284368.48147  22583496.878    22583497.7684   22583503.2134
      2584.919        2014.223
 -12147899.092 9  -9445782.81047  23229305.931    23229306.1134   23229313.0414
      1970.575        1535.513
   6159729.325 9   4799061.66847  21982362.995    21982363.8874   21982370.0824
     -1945.735       -1516.157
 -22473404.665 9 -17485058.39148  20823432.306    20823432.6974   20823438.9624
      3179.044        2477.177
  -9660913.105 9  -7520150.37548  20473280.239    20473280.2994   20473285.8974
       976.600         760.987
 97  4 29 16 26 29.9970000  0  7 31 27 26 15 19  7  2               -0.002044701
  12543208.067 9   9770825.62145  24386058.174    24386058.1164   24386063.7714
     -2999.198       -2337.037
  -7833751.681 9  -5938937.61548  19568551.209    19568551.6284   19568556.4144
       165.386         128.872
 -15871942.773 9 -12344627.85447  22568780.967    22568781.7904   22568787.2974
      2571.751        2003.962
 -12206780.718 9  -9491664.53347  23218101.198    23218101.2454   23218108.2604
      1955.914        1524.089
   6218254.354 9   4844665.55047  21993499.852    21993500.8364   21993507.0564
     -1954.841       -1523.253
 -22568564.095 9 -17559208.57448  20805324.172    20805324.4584   20805330.7064
      3166.019        2467.028
  -9690106.864 9  -7542898.75548  20467724.779    20467724.8974   20467730.5104
       970.840         756.499
 97  4 29 16 26 59.9970000  0  7 31 27 26 15 19  7  2               -0.002057528
  12633196.442 9   9840946.42145  24403182.524    24403182.2194   24403187.9314
     -3001.475       -2338.812
  -7838534.985 9  -5942664.86548  19567641.083    19567641.4054   19567646.1664
       151.862         118.334
 -15948926.185 9 -12404614.91747  22554131.413    22554132.3484   22554137.8504
      2558.782        1993.856
 -12265269.792 9  -9537240.36847  23206971.135    23206971.1814   23206978.0824
      1941.844        1513.125
   6277002.066 9   4890442.96947  22004679.306    22004680.1864   22004686.3494
     -1963.085       -1529.677
 -22663384.757 9 -17633094.78448  20787280.260    20787280.6764   20787286.8904
      3153.833        2457.532
  -9719187.614 9  -7565559.07148  20462190.881    20462191.0144   20462196.6264
       966.261         752.931
 97  4 29 16 27 29.9970000  0  7 31 27 26 15 19  7  2               -0.002070355
  12723276.750 8   9911138.87045  24420324.286    24420323.9944   24420329.7714
     -3004.836       -2341.431
  -7842871.062 9  -5946043.63448  19566815.934    19566816.2584   19566821.0424
       136.243         106.163
 -16025475.385 9 -12464263.63647  22539564.697    22539565.5334   22539570.9864
      2543.501        1981.949
 -12323302.287 9  -9582460.41647  23195928.017    23195927.9524   23195934.8364
      1926.091        1500.850
   6336021.692 9   4936432.25747  22015910.481    22015911.3054   22015917.4314
     -1972.263       -1536.828
 -22757809.534 9 -17706672.50848  20769311.758    20769312.2064   20769318.4154
      3140.390        2447.057
  -9748083.733 9  -7588075.52648  20456692.146    20456692.2724   20456697.8854
       959.348         747.544
 97  4 29 16 27 59.9970000  0  6 27 26 15 19  7  2                  -0.002083190
  -7846757.164 9  -5949071.77248  19566076.427    19566076.7664   19566081.5674
       122.334          95.325
 -16101573.809 9 -12523561.10347  22525083.708    22525084.4514   22525089.9204
      2529.169        1970.781
 -12380879.530 9  -9627325.71946  23184971.456    23184971.3164   23184978.1924
      1911.858        1489.759
   6395287.214 9   4982613.14847  22027188.232    22027189.1764   22027195.3124
     -1979.241       -1542.266
 -22851858.608 9 -17779957.47748  20751414.791    20751415.2744   20751421.4464
      3129.109        2438.267
  -9776803.924 9  -7610454.89148  20451226.897    20451227.0174   20451232.6004
       954.813         744.010
 97  4 29 16 28 29.9970000  0  6 27 26 15 19  7  2                  -0.002096046
  -7850228.820 9  -5951776.96648  19565415.828    19565416.1454   19565420.9574
       107.881          84.063
 -16177235.488 9 -12582518.25047  22510685.764    22510686.4594   22510691.9214
      2513.745        1958.762
 -12438036.043 9  -9671863.19246  23174094.953    23174094.6844   23174101.5864
      1897.406        1478.498
   6454751.768 9   5028949.13347  22038504.196    22038504.9894   22038511.0794
     -1986.424       -1547.863
 -22945580.448 9 -17852987.45948  20733580.061    20733580.6104   20733586.7694
      3117.783        2429.441
  -9805400.621 9  -7632738.02248  20445785.133    20445785.2324   20445790.8424
       950.259         740.462
 97  4 29 16 28 59.9970000  0  6 27 26 15 19  7  2                  -0.002108908
  -7853249.469 9  -5954130.72948  19564841.037    19564841.3574   19564846.1764
        93.182          72.609
 -16252419.734 9 -12641103.37447  22496378.758    22496379.4364   22496384.8524
      2498.443        1946.839
 -12494745.798 9  -9716052.54146  23163303.244    23163303.1394   23163309.9864
      1883.051        1467.312
   6514451.855 9   5075468.64647  22049864.597    22049865.5154   22049871.6514
     -1993.828       -1553.632
 -23038948.637 9 -17925741.86748  20715812.703    20715813.2534   20715819.3864
      3106.509        2420.656
  -9833832.490 9  -7654892.72448  20440374.677    20440374.8354   20440380.4394
       944.944         736.320
 97  4 29 16 29 29.9970000  0  6 27 26 15 19  7  2                  -0.002121791
  -7855820.541 9  -5956134.17348  19564351.825    19564352.0794   19564356.9104
        77.979          60.763
 -16327149.126 9 -12699334.05647  22482158.322    22482158.9554   22482164.3404
      2483.113        1934.893
 -12551017.558 9  -9759900.60246  23152595.319    23152594.9694   23152601.7094
      1867.945        1455.542
   6574386.564 9   5122170.97947  22061269.713    22061270.7564   22061276.8824
     -2002.222       -1560.173
 -23131971.255 9 -17998227.00148  20698111.052    20698111.6174   20698117.7744
      3094.494        2411.294
  -9862092.008 9  -7676913.12448  20434997.087    20434997.2514   20435002.8074
       938.662         731.425
 97  4 29 16 29 59.9970000  0  6 27 26 15 19  7  2                  -0.002134675
  -7857933.544 9  -5957780.68548  19563949.719    19563949.9974   19563954.8264
        62.937          49.042
 -16401406.928 9 -12757197.27147  22468027.497    22468028.1824   22468033.5704
      2467.402        1922.651
 -12606825.211 9  -9803387.01246  23141975.140    23141975.0614   23141981.7884
      1852.481        1443.492
   6634589.421 9   5169082.26947  22072726.281    22072727.0074   22072733.1504
     -2011.480       -1567.387
 -23224616.349 9 -18070417.95848  20680481.162    20680481.8614   20680487.9684
      3081.681        2401.310
  -9890159.218 9  -7698783.67248  20429656.150    20429656.2334   20429661.7984
       932.349         726.506
 97  4 29 16 30 29.9970000  0  6 27 26 15 19  7  2                  -0.002147551
  -7859598.680 9  -5959078.20748  19563632.850    19563633.1434   19563637.9844
        48.122          37.498
 -16475200.894 9 -12814699.05847  22453984.828    22453985.5744   22453991.0254
      2452.170        1910.782
 -12662166.893 9  -9846510.34446  23131443.749    23131443.8644   23131450.5134
      1836.898        1431.349
   6695071.069 9   5216210.78247  22084235.551    22084236.2704   22084242.4674
     -2020.637       -1574.522
 -23316870.867 9 -18142304.57448  20662925.788    20662926.3884   20662932.4774
      3068.550        2391.078
  -9918037.023 9  -7720506.63448  20424351.214    20424351.2584   20424356.8014
       926.093         721.631
 97  4 29 16 30 59.9970000  0  6 27 26 15 19  7  2                  -0.002160406
  -7860823.582 9  -5960032.68448  19563399.752    19563400.0604   19563404.9424
        34.963          27.244
 -16548524.917 9 -12871834.64847  22440031.676    22440032.4644   22440037.9334
      2437.460        1899.319
 -12717027.304 9  -9889258.67046  23121003.963    23121004.2824   23121010.8684
      1821.818        1419.598
   6755836.257 9   5263560.25547  22095798.546    22095799.5234   22095805.7004
     -2028.991       -1581.032
 -23408715.087 9 -18213871.46948  20645448.413    20645448.9934   20645455.0914
      3055.707        2381.070
  -9945715.880 9  -7742074.56848  20419084.088    20419084.1334   20419089.7054
       920.791         717.499
 97  4 29 16 31 29.9970000  0  6 27 26 15 19  7  2                  -0.002173230
  -7861649.467 9  -5960676.24248  19563242.614    19563242.8834   19563247.8104
        21.375          16.656
 -16621386.742 9 -12928610.08347  22426166.606    22426167.3464   22426172.7884
      2421.176        1886.631
 -12771420.457 9  -9931642.90046  23110653.132    23110653.5524   23110660.0994
      1805.687        1407.029
   6816866.934 9   5311116.58847  22107412.382    22107413.2834   22107419.4824
     -2038.319       -1588.301
 -23500160.871 9 -18285127.89948  20628046.857    20628047.4074   20628053.5334
      3041.925        2370.331
  -9973231.205 9  -7763515.07948  20413848.048    20413848.1424   20413853.7244
       914.810         712.839
 97  4 29 16 31 59.9970000  0  6 27 26 15 19  7  2                  -0.002186012
  -7862080.599 9  -5961012.20148  19563160.517    19563160.8344   19563165.7794
         8.655           6.744
 -16693769.618 9 -12985012.32347  22412392.573    22412393.3614   22412398.8294
      2405.975        1874.786
 -12825343.701 9  -9973660.96646  23100391.860    23100392.2424   23100398.8084
      1790.617        1395.286
   6878162.752 9   5358879.53047  22119076.698    22119077.5514   22119083.7664
     -2046.491       -1594.668
 -23591205.613 9 -18356071.82448  20610721.606    20610722.1594   20610728.2914
      3029.261        2360.463
 -10000587.810 9  -7784831.91348  20408642.249    20408642.3834   20408647.9634
       910.290         709.317
 97  4 29 16 32 29.9970000  0  6 27 26 15 19  7  2                  -0.002198766
  -7862097.935 9  -5961025.71648  19563157.255    19563157.5444   19563162.5024
        -7.199          -5.610
 -16765679.637 9 -13041046.09947  22398708.531    22398709.2804   22398714.8034
      2388.444        1861.125
 -12878790.351 9 -10015307.68846  23090221.187    23090221.6824   23090228.2334
      1772.910        1381.488
   6939719.410 9   5406845.71547  22130790.641    22130791.4694   22130797.7014
     -2056.847       -1602.738
 -23681852.023 9 -18426705.36548  20593472.104    20593472.6984   20593478.8304
      3014.281        2348.790
 -10027779.951 9  -7806020.59048  20403467.742    20403467.8834   20403473.4654
       902.912         703.568
 97  4 29 16 32 59.9970000  0  6 27 26 15 19  7  2                  -0.002211500
  -7861683.724 9  -5960702.96348  19563236.062    19563236.3904   19563241.3614
       -20.471         -15.951
 -16837112.788 9 -13096708.28647  22385115.172    22385115.9844   22385121.5564
      2374.082        1849.934
 -12931757.833 9 -10056581.01846  23080141.953    23080142.2984   23080148.8024
      1758.441        1370.214
   7001545.690 9   5455022.00347  22142555.715    22142556.6554   22142562.8984
     -2064.629       -1608.802
 -23772101.910 9 -18497029.92748  20576298.162    20576298.7044   20576304.8394
      3002.512        2339.620
 -10054797.782 9  -7827073.44648  20398326.430    20398326.5324   20398332.1294
       898.463         700.101
 97  4 29 16 33 29.9970000  0  6 27 26 15 19  7  2                  -0.002224261
  -7860844.071 9  -5960048.70248  19563395.878    19563396.1764   19563401.1664
       -34.422         -26.822
 -16908123.282 9 -13152041.13947  22371602.314    22371603.0684   22371608.6814
      2361.350        1840.013
 -12984284.470 9 -10097510.85646  23070146.467    23070146.7824   23070153.1914
      1744.605        1359.432
   7063608.200 9   5503382.35647  22154365.811    22154366.7664   22154373.0324
     -2071.422       -1614.095
 -23861990.283 9 -18567072.79348  20559192.946    20559193.4774   20559199.6334
      2991.271        2330.861
 -10081670.819 9  -7848013.47748  20393212.566    20393212.7644   20393218.3604
       894.229         696.802
 97  4 29 16 33 59.9970000  0  6 27 26 15 19  7  2                  -0.002237057
  -7859500.133 9  -5959001.48548  19563651.568    19563651.9134   19563656.9364
       -53.053         -41.340
 -16978692.561 9 -13207030.18447  22358173.363    22358174.1614   22358179.7674
      2345.300        1827.506
 -13036322.532 9 -10138059.97846  23060243.789    23060244.2384   23060250.6514
      1726.659        1345.448
   7125937.649 9   5551950.71747  22166226.718    22166227.6774   22166234.0014
     -2081.691       -1622.097
 -23951467.067 9 -18636794.93548  20542165.996    20542166.6014   20542172.7734
      2975.926        2318.903
 -10108346.713 9  -7868799.88548  20388136.374    20388136.4924   20388142.1044
       886.176         690.527
 97  4 29 16 34 29.9970000  0  6 27 26 15 19  7  2                  -0.002249917
  -7857666.599 9  -5957572.76248  19564000.527    19564000.8264   19564005.8814
       -68.993         -53.761
 -17048852.214 9 -13261700.04347  22344822.406    22344823.2154   22344828.8174
      2332.074        1817.201
 -13087895.686 9 -10178246.85246  23050429.685    23050430.1904   23050436.5464
      1711.699        1333.791
   7188495.232 9   5600696.84847  22178131.152    22178131.9584   22178138.3774
     -2088.575       -1627.461
 -24040557.215 9 -18706215.80848  20525212.730    20525213.3264   20525219.4774
      2963.418        2309.157
 -10134847.928 9  -7889450.17548  20383093.341    20383093.4784   20383099.0894
       880.869         686.391
 97  4 29 16 34 59.9970000  0  6 27 26 15 19  7  2                  -0.002262836
  -7855333.696 9  -5955754.92848  19564444.519    19564444.7654   19564449.8294
       -86.087         -67.081
 -17118587.282 9 -13316039.05947  22331552.237    22331553.1144   22331558.6574
      2317.202        1805.612
 -13138998.697 9 -10218067.37546  23040705.108    23040705.6174   23040711.9854
      1695.432        1321.116
   7251280.300 9   5649620.23547  22190078.717    22190079.5914   22190086.0064
     -2096.644       -1633.749
 -24129243.133 9 -18775321.69548  20508336.337    20508336.9304   20508343.0984
      2949.288        2298.146
 -10161171.807 9  -7909962.28948  20378084.049    20378084.2104   20378089.8314
       874.357         681.317
 97  4 29 16 35 29.9970000  0  6 27 26 15 19  7  2                  -0.002275805
  -7852502.779 9  -5953549.03048  19564983.196    19564983.4644   19564988.5624
      -102.717         -80.039
 -17187884.255 9 -13370036.70147  22318365.534    22318366.3524   22318371.8674
      2302.093        1793.839
 -13189620.076 9 -10257512.59546  23031072.551    23031072.6944   23031079.0474
      1679.047        1308.348
   7314286.584 9   5698715.99347  22202068.246    22202069.3094   22202075.7674
     -2104.198       -1639.635
 -24217516.815 9 -18844106.36148  20491538.309    20491538.9764   20491545.1254
      2935.468        2287.378
 -10187315.878 9  -7930334.29148  20373108.988    20373109.1554   20373114.7744
       868.273         676.576
 97  4 29 16 35 59.9970000  0  6 27 26 15 19  7  2                  -0.002288795
  -7849191.196 9  -5950968.59048  19565613.295    19565613.6564   19565618.7754
      -117.225         -91.344
 -17256708.783 9 -13423666.20047  22305268.655    22305269.4804   22305274.9914
      2286.606        1781.771
 -13239750.983 9 -10296575.65246  23021533.205    23021533.0834   23021539.4814
      1663.569        1296.288
   7377517.508 9   5747986.79347  22214100.498    22214101.7514   22214108.2464
     -2110.808       -1644.785
 -24305384.920 9 -18912574.99348  20474817.577    20474818.2214   20474824.3634
      2923.005        2277.666
 -10213285.693 9  -7950570.50848  20368167.151    20368167.2864   20368172.8944
       863.596         672.932
 97  4 29 16 36 29.9970000  0  6 27 26 15 19  7  2                  -0.002301770
  -7845423.538 9  -5948032.77248  19566330.227    19566330.6144   19566335.7644
      -133.454        -103.990
 -17325025.321 9 -13476899.87247  22292268.485    22292269.2654   22292274.8004
      2268.254        1767.471
 -13289383.843 9 -10335250.61746  23012088.402    23012088.3214   23012094.6444
      1645.587        1282.275
   7440988.576 9   5797444.71647  22226178.832    22226179.9374   22226186.3974
     -2120.325       -1652.201
 -24392848.237 9 -18980728.20548  20458173.891    20458174.4974   20458180.6644
      2908.190        2266.122
 -10239081.073 9  -7970670.80248  20363258.431    20363258.5954   20363264.2054
       856.619         667.495
 97  4 29 16 36 59.9970000  0  6 27 26 15 19  7  2                  -0.002314737
  -7841268.172 9  -5944794.83848  19567120.996    19567121.3334   19567126.5314
      -144.647        -112.712
 -17392872.152 9 -13529767.53047  22279357.678    22279358.5034   22279363.9594
      2253.722        1756.147
 -13338559.808 9 -10373569.56746  23002730.272    23002730.4074   23002736.8064
      1631.629        1271.399
   7504668.654 9   5847065.51447  22238296.982    22238297.9644   22238304.3794
     -2126.282       -1656.843
 -24479953.634 9 -19048602.51848  20441598.215    20441598.8734   20441605.0714
      2897.751        2257.988
 -10264762.785 9  -7990682.52448  20358371.261    20358371.4834   20358377.1174
       854.183         665.597
 97  4 29 16 37 29.9970000  0  6 27 26 15 19  7  2                  -0.002327660
  -7836701.614 9  -5941236.49048  19567989.989    19567990.3184   19567995.5334
      -159.550        -124.325
 -17460210.571 9 -13582239.02647  22266543.691    22266544.4654   22266549.8524
      2235.798        1742.180
 -13387235.965 9 -10411499.05346  22993467.386    22993467.6624   22993474.0004
      1613.793        1257.501
   7568605.529 9   5896886.40647  22250463.695    22250464.7894   22250471.2114
     -2135.935       -1664.365
 -24566670.760 9 -19116174.28348  20425096.542    20425097.1404   20425103.3224
      2883.649        2246.999
 -10290290.326 9  -8010574.11248  20353513.486    20353513.7454   20353519.4014
       847.841         660.655
 97  4 29 16 37 59.9970000  0  6 27 26 15 19  7  2                  -0.002340539
  -7831707.570 9  -5937345.04148  19568940.322    19568940.6634   19568945.9124
      -173.535        -135.222
 -17527028.002 9 -13634304.55347  22253828.685    22253829.5224   22253834.8994
      2218.800        1728.935
 -13435393.973 9 -10449024.77746  22984303.311    22984303.4924   22984309.8264
      1596.648        1244.141
   7632816.682 9   5946921.02047  22262682.399    22262683.7734   22262690.2214
     -2144.876       -1671.332
 -24652977.034 9 -19183425.90548  20408673.051    20408673.6054   20408679.7874
      2869.970        2236.340
 -10315634.785 9  -8030323.03648  20348690.618    20348690.8544   20348696.5144
       841.690         655.862
 97  4 29 16 38 29.9970000  0  6 27 26 15 19  7  2                  -0.002353412
  -7826316.675 9  -5933144.35448  19569966.261    19569966.5474   19569971.7884
      -186.039        -144.965
 -17593378.019 9 -13686005.85547  22241202.653    22241203.5084   22241208.8484
      2204.629        1717.893
 -13483072.195 9 -10486176.65046  22975230.461    22975230.6124   22975236.9154
      1581.780        1232.556
   7697254.766 9   5997132.47447  22274944.750    22274945.9844   22274952.4384
     -2151.087       -1676.172
 -24738904.744 9 -19250382.54348  20392321.497    20392322.0814   20392328.2494
      2858.338        2227.276
 -10340823.424 9  -8049950.54148  20343897.418    20343897.6304   20343903.2804
       837.560         652.644
 97  4 29 16 38 59.9970000  0  6 27 26 15 19  7  2                  -0.002366287
  -7820492.696 9  -5928606.20348  19571074.496    19571074.8294   19571080.0864
      -201.834        -157.273
 -17659253.545 9 -13737337.42447  22228666.943    22228667.8024   22228673.1944
      2187.605        1704.627
 -13530254.561 9 -10522942.13546  22966251.956    22966252.1094   22966258.3624
      1564.179        1218.841
   7761927.379 9   6047526.66547  22287251.817    22287252.8344   22287259.2674
     -2159.912       -1683.048
 -24824427.334 9 -19317023.49848  20376047.051    20376047.6324   20376053.8004
      2843.701        2215.871
 -10365834.605 9  -8069439.76948  20339137.951    20339138.1554   20339143.8194
       830.229         646.932
 97  4 29 16 39 29.9970000  0  6 27 26 15 19  7  2                  -0.002379174
  -7814203.728 9  -5923705.72448  19572271.222    19572271.6114   19572276.8704
      -217.447        -169.439
 -17724643.247 9 -13788290.43847  22216223.680    22216224.5604   22216229.9754
      2171.784        1692.299
 -13576928.053 9 -10559311.09246  22957370.432    22957370.4754   22957376.6654
      1547.409        1205.773
   7826837.946 9   6098106.28247  22299604.091    22299604.9104   22299611.3834
     -2167.360       -1688.852
 -24909525.727 9 -19383333.92048  20359853.335    20359853.9434   20359860.0634
      2829.619        2204.898
 -10390638.573 9  -8088767.53548  20334417.918    20334418.1314   20334423.7764
       823.606         641.771
 97  4 29 16 39 59.9970000  0  6 27 26 15 19  7  2                  -0.002392079
  -7807456.197 9  -5918447.91948  19573555.239    19573555.6344   19573560.9204
      -233.042        -181.591
 -17789554.828 9 -13838870.88647  22203871.417    22203872.3204   22203877.7314
      2155.142        1679.331
 -13623106.022 9 -10595293.91946  22948583.049    22948583.0914   22948589.2544
      1530.442        1192.552
   7891967.628 9   6148856.63547  22311998.006    22311998.6874   22312005.1274
     -2175.116       -1694.896
 -24994207.089 9 -19449319.37848  20343739.015    20343739.6434   20343745.7294
      2815.153        2193.626
 -10415266.494 9  -8107958.11748  20329731.420    20329731.5914   20329737.2314
       817.745         637.204
 97  4 29 16 40 29.9970000  0  6 27 26 15 19  7  2                  -0.002404989
  -7800240.486 9  -5912825.30048  19574928.319    19574928.7544   19574934.0504
      -248.114        -193.335
 -17853976.415 9 -13889069.52247  22191612.300    22191613.2944   22191618.6934
      2139.648        1667.258
 -13668782.443 9 -10630885.93946  22939891.158    22939891.1574   22939897.2434
      1514.494        1180.125
   7957324.476 9   6199783.99047  22324435.050    22324435.7364   22324442.0964
     -2182.204       -1700.419
 -25078461.665 9 -19514972.27448  20327705.887    20327706.5124   20327712.5794
      2801.672        2183.121
 -10439736.241 9  -8127025.45048  20325074.988    20325075.1354   20325080.8154
       813.553         633.937
 97  4 29 16 40 59.9970000  0  6 27 26 15 19  7  2                  -0.002417918
  -7792582.026 9  -5906857.68348  19576385.771    19576386.1354   19576391.4584
      -263.096        -205.010
 -17917943.135 9 -13938913.71447  22179439.820    22179440.8204   22179446.2214
      2124.273        1655.278
 -13713986.525 9 -10666109.87946  22931288.929    22931289.0644   22931295.1674
      1498.458        1167.630
   8022894.850 9   6250877.74247  22336912.665    22336913.4584   22336919.7364
     -2189.718       -1706.274
 -25162317.330 9 -19580314.33448  20311748.710    20311749.2744   20311755.3884
      2788.132        2172.570
 -10464090.252 9  -8146002.59948  20320440.503    20320440.6874   20320446.3904
       809.433         630.727
 97  4 29 16 41 29.9970000  0  6 27 26 15 19  7  2                  -0.002430839
  -7784431.331 9  -5900506.50348  19577936.751    19577937.1904   19577942.5114
      -280.820        -218.821
 -17981410.747 9 -13988368.99647  22167362.342    22167363.2934   22167368.7024
      2106.294        1641.268
 -13758668.424 9 -10700926.92346  22922785.975    22922786.3044   22922792.4564
      1479.707        1153.018
   8088728.800 9   6302176.89047  22349440.221    22349441.2414   22349447.5534
     -2199.783       -1714.117
 -25245725.661 9 -19645307.81748  20295876.614    20295877.1934   20295883.3064
      2771.840        2159.875
 -10488283.212 9  -8164854.25448  20315836.733    20315836.9464   20315842.6224
       802.835         625.586
 97  4 29 16 41 59.9970000  0  6 27 26 15 19  7  2                  -0.002443736
  -7775782.817 9  -5893767.41148  19579582.494    19579582.9534   19579588.2874
      -296.492        -231.033
 -18044364.006 9 -14037423.48847  22155382.620    22155383.6834   22155389.0964
      2090.076        1628.631
 -13802819.115 9 -10735330.04346  22914384.440    22914384.7384   22914390.8384
      1462.993        1139.995
   8154837.945 9   6353690.45847  22362020.431    22362021.4484   22362027.7494
     -2208.115       -1720.609
 -25328677.336 9 -19709945.47148  20280091.363    20280091.9924   20280098.1084
      2757.586        2148.768
 -10512313.510 9  -8183579.16348  20311263.920    20311264.1384   20311269.8114
       798.259         622.020
 97  4 29 16 42 29.9970000  0  6 27 26 15 19  7  2                  -0.002456634
  -7766644.838 9  -5886646.92248  19581321.415    19581321.8764   19581327.2084
      -311.917        -243.052
 -18106830.394 9 -14086098.58847  22143495.754    22143496.7824   22143502.1504
      2075.047        1616.920
 -13846455.761 9 -10769332.59746  22906080.825    22906081.0314   22906087.0424
      1446.886        1127.444
   8221209.182 9   6405408.25847  22374650.653    22374651.5214   22374657.8294
     -2215.873       -1726.654
 -25411192.702 9 -19774243.13748  20264389.272    20264389.8364   20264395.9384
      2744.176        2138.319
 -10536180.698 9  -8202176.97048  20306722.100    20306722.3314   20306728.0244
       793.501         618.312
 97  4 29 16 42 59.9970000  0  6 27 26 15 19  7  2                  -0.002469552
  -7757034.963 9  -5879158.72048  19583150.188    19583150.6024   19583155.9204
      -328.957        -256.330
 -18168821.154 9 -14134403.07747  22131699.304    22131700.3114   22131705.7514
      2057.361        1603.138
 -13889591.317 9 -10802944.70546  22897872.444    22897872.5324   22897878.6234
      1428.543        1113.150
   8287820.069 9   6457312.78847  22387326.542    22387327.2014   22387333.4524
     -2225.012       -1733.776
 -25493288.620 9 -19838213.96348  20248766.879    20248767.4524   20248773.5454
      2728.595        2126.178
 -10559877.602 9  -8220642.09048  20302212.660    20302212.9484   20302218.6584
       785.998         612.466
 97  4 29 16 43 29.9970000  0  6 27 26 15 19  7  2                  -0.002482459
  -7746915.126 9  -5871273.15048  19585075.902    19585076.3654   19585081.6924
      -345.186        -268.976
 -18230278.841 9 -14182292.18447  22120004.284    22120005.3044   22120010.7614
      2040.247        1589.803
 -13932175.852 9 -10836127.43546  22889768.662    22889768.8964   22889774.9714
      1410.818        1099.339
   8354698.209 9   6509425.58247  22400052.977    22400053.7264   22400059.9994
     -2233.169       -1740.132
 -25574920.853 9 -19901823.47548  20233232.750    20233233.3144   20233239.4064
      2714.079        2114.867
 -10583351.214 9  -8238933.21348  20297745.877    20297746.0804   20297751.7634
       779.266         607.220
 97  4 29 16 43 59.9970000  0  6 27 26 15 19  7  2                  -0.002495366
  -7736314.200 9  -5863012.70648  19587093.230    19587093.6844   19587098.9994
      -360.158        -280.643
 -18291223.918 9 -14229781.86047  22108406.904    22108407.8924   22108413.3314
      2024.286        1577.366
 -13974224.865 9 -10868892.87246  22881766.811    22881767.2584   22881773.3804
      1393.840        1086.109
   8421821.738 9   6561729.58247  22412826.257    22412826.9184   22412833.2824
     -2240.246       -1745.646
 -25656120.732 9 -19965096.09348  20217780.883    20217781.4984   20217787.5704
      2700.649        2104.402
 -10606622.555 9  -8257066.72848  20293317.478    20293317.6904   20293323.3824
       773.499         602.726
 97  4 29 16 44 29.9970000  0  6 27 26 15 19  7  2                  -0.002508303
  -7725269.203 9  -5854406.22848  19589195.038    19589195.4774   19589200.8044
      -376.127        -293.086
 -18351696.687 9 -14276903.49747  22096899.360    22096900.2904   22096905.7404
      2007.125        1563.994
 -14015766.638 9 -10901263.04846  22873861.728    22873862.0324   22873868.2924
      1375.595        1071.892
   8489145.551 9   6614189.63447  22425637.380    22425638.2304   22425644.6714
     -2247.953       -1751.652
 -25736924.240 9 -20028059.84548  20202404.474    20202405.1124   20202411.1634
      2686.241        2093.175
 -10629719.828 9  -8275064.60548  20288922.165    20288922.4284   20288928.0924
       766.397         597.192
 97  4 29 16 44 59.9970000  0  6 27 26 15 19  7  2                  -0.002521267
  -7713795.210 9  -5845465.46848  19591378.465    19591378.9154   19591384.2744
      -389.849        -303.778
 -18411695.854 9 -14323656.09347  22085481.793    22085482.7914   22085488.2654
      1991.982        1552.194
 -14056804.999 9 -10933240.97946  22866052.595    22866052.7044   22866058.9234
      1359.338        1059.224
   8556655.719 9   6666794.90647  22438484.081    22438485.0214   22438491.5564
     -2253.687       -1756.120
 -25817339.470 9 -20090721.04548  20187102.000    20187102.6064   20187108.6854
      2673.853        2083.522
 -10652656.580 9  -8292937.40048  20284557.404    20284557.6894   20284563.3844
       761.953         593.730
 97  4 29 16 45 29.9970000  0  6 27 26 15 19  7  2                  -0.002534246
  -7701869.372 9  -5836172.61948  19593647.912    19593648.3494   19593653.7094
      -405.318        -315.832
 -18471215.152 9 -14370034.76747  22074155.623    22074156.6804   22074162.1214
      1975.724        1539.525
 -14097322.953 9 -10964813.37646  22858342.456    22858342.3034   22858348.5464
      1341.642        1045.435
   8624377.228 9   6719564.86147  22451371.117    22451371.9944   22451378.6104
     -2261.269       -1762.028
 -25897352.130 9 -20153068.55048  20171876.069    20171876.7064   20171882.7704
      2660.053        2072.769
 -10675435.535 9  -8310687.23348  20280222.784    20280222.9764   20280228.6584
       756.419         589.417
 97  4 29 16 45 59.9970000  0  6 27 26 15 19  7  2                  -0.002547229
  -7689484.212 9  -5826521.86148  19596004.761    19596005.1934   19596010.5454
      -420.165        -327.401
 -18530240.227 9 -14416028.32847  22062923.643    22062924.5894   22062930.0204
      1959.522        1526.900
 -14137310.358 9 -10995972.36346  22850733.048    22850732.9974   22850739.2054
      1324.447        1032.037
   8692327.686 9   6772513.20547  22464301.784    22464302.6104   22464309.2284
     -2268.400       -1767.584
 -25976944.378 9 -20215088.46248  20156730.150    20156730.7874   20156736.8684
      2646.301        2062.053
 -10698047.765 9  -8328307.15148  20275919.784    20275920.0114   20275925.7074
       751.390         585.499
 97  4 29 16 46 29.9970000  0  6 27 26 15 19  7  2                  -0.002560223
  -7676653.150 9  -5816523.64648  19598446.439    19598446.8824   19598452.2204
      -435.998        -339.739
 -18588780.361 9 -14461644.01747  22051783.679    22051784.7594   22051790.1674
      1942.316        1513.493
 -14176786.794 9 -11026733.19446  22843220.741    22843220.9214   22843227.0534
      1306.536        1018.080
   8760491.797 9   6825628.04547  22477272.855    22477273.8264   22477280.4754
     -2276.690       -1774.044
 -26056119.690 9 -20276783.49748  20141663.542    20141664.1914   20141670.2674
      2631.269        2050.339
 -10720510.763 9  -8345810.78748  20271645.213    20271645.4814   20271651.1804
       745.500         580.909
 97  4 29 16 46 59.9970000  0  6 27 26 15 19  7  2                  -0.002573201
  -7663355.155 9  -5806161.58748  19600976.948    19600977.4374   19600982.7594
      -451.687        -351.964
 -18646809.839 9 -14506861.79247  22040741.035    22040742.1224   22040747.5004
      1925.190        1500.148
 -14215731.127 9 -11057079.40046  22835809.722    22835810.0274   22835816.1084
      1288.588        1004.095
   8828905.806 9   6878937.60046  22490291.740    22490292.6034   22490299.3224
     -2285.345       -1780.788
 -26134844.485 9 -20338127.47448  20126682.713    20126683.3874   20126689.4554
      2615.949        2038.402
 -10742809.036 9  -8363186.06948  20267402.055    20267402.2964   20267407.9804
       739.899         576.545
 97  4 29 16 47 29.9970000  0  6 27 26 15 19  7  2                  -0.002586152
  -7649576.818 9  -5795425.23748  19603598.960    19603599.4044   19603604.6694
      -466.668        -363.637
 -18704308.563 9 -14551665.98647  22029799.496    22029800.4714   22029805.8014
      1908.174        1486.889
 -14254121.537 9 -11086993.97146  22828504.456    22828504.5984   22828510.5984
      1270.844         990.268
   8897588.718 9   6932456.70347  22503361.986    22503362.6054   22503369.3144
     -2293.360       -1787.034
 -26213094.625 9 -20399101.59148  20111792.280    20111792.9194   20111798.9734
      2600.802        2026.599
 -10764915.946 9  -8380412.23548  20263195.337    20263195.4964   20263201.1724
       733.937         571.899
 97  4 29 16 47 59.9970000  0  6 27 26 15 19  7  2                  -0.002599102
  -7635367.491 9  -5784353.05048  19606302.938    19606303.3654   19606308.6454
      -481.208        -374.967
 -18761312.681 9 -14596084.77847  22018952.024    22018952.9494   22018958.2974
      1891.670        1474.029
 -14291994.270 9 -11116505.17146  22821297.545    22821297.6664   22821303.6074
      1253.493         976.748
   8966494.395 9   6986149.37647  22516474.410    22516474.9864   22516481.7114
     -2300.864       -1792.881
 -26290910.545 9 -20459737.35848  20096984.417    20096985.0454   20096991.0614
      2586.403        2015.379
 -10786860.473 9  -8397511.86248  20259019.296    20259019.5894   20259025.2484
       728.701         567.819
 97  4 29 16 48 29.9970000  0  6 27 26 15 19  7  2                  -0.002612041
  -7620705.214 9  -5772927.91448  19609093.125    19609093.5204   19609098.8024
      -495.821        -386.354
 -18817810.071 9 -14640108.71347  22008200.887    22008201.8654   22008207.2164
      1875.206        1461.199
 -14329331.681 9 -11145599.22946  22814192.587    22814192.5974   22814198.5164
      1236.029         963.139
   9035641.962 9   7040030.52647  22529633.024    22529633.4094   22529640.1834
     -2308.540       -1798.862
 -26368272.292 9 -20520019.22148  20082263.030    20082263.5974   20082269.5774
      2571.611        2003.853
 -10808637.957 9  -8414481.33048  20254875.163    20254875.4884   20254881.1114
       723.641         563.876
 97  4 29 16 48 59.9970000  0  6 27 26 15 19  7  2                  -0.002624967
  -7605589.758 9  -5761149.65048  19611969.495    19611969.9254   19611975.1824
      -511.907        -398.889
 -18873797.449 9 -14683735.23247  21997546.868    21997547.8694   21997553.1574
      1857.271        1447.224
 -14366128.677 9 -11174272.18746  22807190.307    22807190.3324   22807196.2724
      1217.080         948.374
   9105029.704 9   7094098.84647  22542837.050    22542837.5194   22542844.2854
     -2317.091       -1805.525
 -26445187.271 9 -20579952.95548  20067626.540    20067627.1964   20067633.1364
      2556.102        1991.768
 -10830252.672 9  -8431323.96048  20250762.091    20250762.3204   20250767.9584
       717.280         558.919
 97  4 29 16 49 29.9970000  0  6 27 26 15 19  7  2                  -0.002637888
  -7590013.643 9  -5749012.43448  19614933.579    19614933.9894   19614939.2484
      -526.627        -410.359
 -18929267.677 9 -14726958.77847  21986991.225    21986992.2354   21986997.4874
      1840.605        1434.238
 -14402380.430 9 -11202520.27346  22800291.739    22800291.7464   22800297.7634
      1199.609         934.760
   9174640.140 9   7148340.68647  22556083.505    22556083.9884   22556090.8004
     -2323.674       -1810.655
 -26521662.591 9 -20639544.10148  20053073.761    20053074.4354   20053080.3764
      2542.140        1980.888
 -10851693.354 9  -8448030.98748  20246681.978    20246682.3094   20246687.9414
       712.186         554.950
 97  4 29 16 49 59.9970000  0  6 27 26 15 19  7  2                  -0.002650797
  -7573965.721 9  -5736507.57748  19617987.458    19617987.8274   19617993.0844
      -543.042        -423.150
 -18984204.488 9 -14769766.67047  21976537.024    21976538.1114   21976543.3764
      1822.109        1419.825
 -14438086.787 9 -11230343.37146  22793496.991    22793496.9934   22793503.0754
      1181.014         920.271
   9244473.875 9   7202756.52047  22569372.489    22569372.9624   22569379.7134
     -2331.657       -1816.876
 -26597691.113 9 -20698787.08448  20038606.017    20038606.6554   20038612.6024
      2526.567        1968.754
 -10872968.295 9  -8464608.85648  20242633.585    20242633.8224   20242639.4564
       706.387         550.431
 97  4 29 16 50 29.9970000  0  6 27 26 15 19  7  2                  -0.002663693
  -7557437.543 9  -5723628.49548  19621132.600    19621133.0274   19621138.2944
      -558.743        -435.384
 -19038602.922 9 -14812155.05847  21966185.428    21966186.4154   21966191.7084
      1804.605        1406.186
 -14473249.385 9 -11257742.75246  22786805.468    22786805.7114   22786811.8354
      1163.265         906.440
   9314529.452 9   7257345.22347  22582703.564    22582704.1624   22582710.9134
     -2338.594       -1822.281
 -26673260.889 9 -20757672.60948  20024225.513    20024226.2004   20024232.1194
      2511.694        1957.164
 -10894076.909 9  -8481057.12848  20238616.580    20238616.9534   20238622.6124
       700.886         546.145
 97  4 29 16 50 59.9970000  0  6 27 26 15 19  7  2                  -0.002676598
  -7540441.896 9  -5710385.15048  19624366.764    19624367.2134   19624372.4574
      -574.650        -447.779
 -19092483.444 9 -14854139.87347  21955932.257    21955933.3124   21955938.5644
      1787.180        1392.608
 -14507884.982 9 -11284731.49046  22780214.685    22780214.7784   22780220.8724
      1145.488         892.588
   9384786.961 9   7312091.27947  22596072.990    22596073.7914   22596080.4844
     -2345.604       -1827.743
 -26748400.672 9 -20816223.07148  20009926.914    20009927.5944   20009933.5094
      2497.267        1945.922
 -10915024.464 9  -8497379.89848  20234630.465    20234630.7264   20234636.4094
       695.267         541.766
 97  4 29 16 51 29.9970000  0  6 27 26 15 19  7  2                  -0.002689508
  -7522969.450 9  -5696770.27448  19627691.637    19627692.1074   19627697.3114
      -590.578        -460.191
 -19145843.720 9 -14895719.30747  21945778.247    21945779.1704   21945784.4514
      1769.974        1379.201
 -14541993.853 9 -11311309.77946  22773723.802    22773724.0524   22773730.1124
      1128.097         879.037
   9455260.391 9   7367005.58247  22609483.645    22609484.5124   22609491.1484
     -2353.012       -1833.516
 -26823103.814 9 -20874433.29748  19995711.412    19995712.0604   19995717.9864
      2482.591        1934.486
 -10935811.416 9  -8513577.52148  20230674.845    20230675.1094   20230680.7904
       690.387         537.964
 97  4 29 16 51 59.9970000  0  6 27 26 15 19  7  2                  -0.002702402
  -7504990.721 9  -5682760.89448  19631112.879    19631113.3504   19631118.5914
      -608.886        -474.457
 -19198670.260 9 -14936882.84047  21935725.677    21935726.6074   21935731.9194
      1751.057        1364.460
 -14575550.584 9 -11337457.82946  22767338.345    22767338.4604   22767344.4984
      1108.138         863.484
   9525991.291 9   7422120.51147  22622943.303    22622944.2004   22622950.8054
     -2363.071       -1841.354
 -26897336.987 9 -20932277.31548  19981585.286    19981585.9464   19981591.8964
      2465.429        1921.114
 -10956430.821 9  -8529644.59348  20226751.134    20226751.3894   20226757.0414
       683.257         532.408
 97  4 29 16 52 29.9970000  0  6 27 26 15 19  7  2                  -0.002715277
  -7486486.569 9  -5668342.09448  19634634.173    19634634.5954   19634639.8474
      -624.593        -486.696
 -19250961.758 9 -14977629.46647  21925774.880    21925775.8504   21925781.1664
      1734.982        1351.934
 -14608528.036 9 -11363154.49946  22761062.833    22761062.9634   22761069.0084
      1090.383         849.649
   9597000.059 9   7477451.95746  22636455.835    22636456.7664   22636463.3894
     -2370.679       -1847.282
 -26971084.837 9 -20989743.15248  19967551.506    19967552.1554   19967558.1084
      2451.231        1910.050
 -10976859.487 9  -8545563.03748  20222863.629    20222863.9574   20222869.6084
       678.626         528.799
 97  4 29 16 52 59.9970000  0  6 27 26 15 19  7  2                  -0.002728158
  -7467511.276 9  -5653556.16648  19638245.037    19638245.5064   19638250.7384
      -640.585        -499.157
 -19302762.366 9 -15017993.57347  21915917.532    21915918.5174   21915923.8504
      1718.139        1338.810
 -14640969.065 9 -11388433.17446  22754889.261    22754889.6904   22754895.7444
      1072.154         835.445
   9668239.955 9   7532963.51246  22650012.352    22650013.2974   22650019.9104
     -2378.656       -1853.498
 -27044404.098 9 -21046875.02548  19953599.270    19953599.9344   19953605.9054
      2436.440        1898.525
 -10997145.696 9  -8561370.47348  20219003.323    20219003.6264   20219009.2784
       673.611         524.892
 97  4 29 16 53 29.9970000  0  6 27 26 15 19  7  2                  -0.002741042
  -7448065.830 9  -5638403.88648  19641945.310    19641945.8414   19641951.0904
      -655.281        -510.609
 -19354062.337 9 -15057967.58148  21906155.413    21906156.4054   21906161.8094
      1702.333        1326.493
 -14672865.753 9 -11413287.70546  22748819.648    22748819.9474   22748825.9314
      1054.679         821.828
   9739699.978 9   7588646.58846  22663610.845    22663611.7404   22663618.3664
     -2384.885       -1858.352
 -27117276.435 9 -21103658.64748  19939732.066    19939732.7884   19939738.7724
      2422.105        1887.355
 -11017282.007 9  -8577061.10348  20215171.555    20215171.8314   20215177.4764
       669.272         521.511
 97  4 29 16 53 59.9970000  0  6 27 26 15 19  7  2                  -0.002753943
  -7428179.104 9  -5622907.75348  19645729.607    19645730.1804   19645735.4294
      -670.159        -522.202
 -19404877.124 9 -15097563.52048  21896485.735    21896486.6934   21896492.1024
      1685.517        1313.390
 -14704224.192 9 -11437722.81846  22742852.306    22742852.6494   22742858.6034
      1036.176         807.410
   9811354.445 9   7644481.18546  22677245.912    22677247.1034   22677253.8514
     -2391.725       -1863.682
 -27189710.227 9 -21160100.54548  19925948.333    19925949.0744   19925955.0644
      2407.139        1875.693
 -11037270.579 9  -8592636.61348  20211367.783    20211368.1174   20211373.8254
       663.530         517.036
 97  4 29 16 54 29.9970000  0  6 27 26 15 19  7  2                  -0.002766823
  -7407816.351 9  -5607040.69548  19649604.568    19649605.0914   19649610.3454
      -686.236        -534.729
 -19455140.480 9 -15136729.77248  21886920.900    21886921.9124   21886927.3324
      1666.459        1298.539
 -14734995.923 9 -11461700.75146  22736996.678    22736996.9694   22737002.8944
      1016.330         791.945
   9883243.537 9   7700498.59446  22690925.993    22690927.2584   22690934.0004
     -2399.796       -1869.971
 -27261662.970 9 -21216167.60248  19912256.177    19912256.9194   19912262.9184
      2390.844        1862.995
 -11057051.079 9  -8608049.99148  20207603.561    20207603.9794   20207609.7014
       656.217         511.338
 97  4 29 16 54 59.9970000  0  6 27 26 15 19  7  2                  -0.002779700
  -7387016.745 9  -5590833.22248  19653562.512    19653563.1194   19653568.3934
      -701.409        -546.552
 -19504874.939 9 -15175483.89948  21877456.705    21877457.7244   21877463.1964
      1648.277        1284.372
 -14765217.612 9 -11485250.09846  22731245.444    22731245.8484   22731251.8674
       997.464         777.245
   9955330.362 9   7756670.07746  22704643.608    22704645.0014   22704651.6194
     -2406.889       -1875.498
 -27333171.409 9 -21271888.44648  19898648.541    19898649.3044   19898655.3114
      2375.348        1850.921
 -11076653.571 9  -8623324.65648  20203873.333    20203873.7394   20203879.5004
       649.808         506.344
 97  4 29 16 55 29.9970000  0  6 27 26 15 19  7  2                  -0.002792621
  -7365850.887 9  -5574340.36648  19657590.247    19657590.8384   19657596.1394
      -708.670        -552.210
 -19554153.681 9 -15213882.92748  21868079.312    21868080.2664   21868085.7714
      1638.055        1276.406
 -14794959.892 9 -11508425.89146  22725585.678    22725586.0274   22725592.1034
       986.325         768.565
  10027540.082 9   7812937.33846  22718384.746    22718386.1574   22718392.7464
     -2406.124       -1874.902
 -27404304.001 9 -21327316.42648  19885112.405    19885113.1944   19885119.2014
      2367.848        1845.076
 -11096154.700 9  -8638520.34148  20200162.521    20200162.8014   20200168.5674
       651.323         507.524
 97  4 29 16 55 59.9970000  0  6 27 26 15 19  7  2                  -0.002805598
  -7344340.337 9  -5557578.91548  19661683.572    19661684.1574   19661689.4764
      -725.219        -565.106
 -19602999.682 9 -15251944.73948  21858784.147    21858785.1454   21858790.6764
      1618.555        1261.212
 -14824240.951 9 -11531242.28446  22720013.648    22720013.9914   22720020.0974
       965.985         752.716
  10099856.523 9   7869287.75446  22732146.178    22732147.4724   22732154.1894
     -2414.578       -1881.489
 -27475087.435 9 -21382472.33048  19871642.734    19871643.5354   19871649.5434
      2351.237        1832.133
 -11115578.373 9  -8653655.66948  20196466.329    20196466.6034   20196472.3614
       643.759         501.630
 97  4 29 16 56 29.9970000  0  6 27 26 15 19  7  2                  -0.002818556
  -7322354.629 9  -5540447.21048  19665867.318    19665867.9024   19665873.2454
      -741.182        -577.544
 -19651289.073 9 -15289572.83948  21849595.035    21849595.9694   21849601.4714
      1600.180        1246.894
 -14852941.156 9 -11553606.07246  22714551.969    22714552.5144   22714558.7024
       946.707         737.694
  10172397.130 9   7925812.82246  22745950.389    22745951.5204   22745958.2884
     -2421.988       -1887.263
 -27545398.626 9 -21437260.25648  19858262.923    19858263.7554   19858269.7784
      2335.590        1819.940
 -11134804.434 9  -8668637.01148  20192807.632    20192808.0224   20192813.7804
       637.444         496.710
 97  4 29 16 56 59.9970000  0  6 27 26 15 19  7  2                  -0.002831496
  -7299866.698 9  -5522924.16348  19670146.703    19670147.2224   19670152.5744
      -757.968        -590.624
 -19699022.005 9 -15326767.33748  21840511.703    21840512.6864   21840518.1914
      1582.016        1232.740
 -14881046.364 9 -11575506.25346  22709203.512    22709204.2054   22709210.5064
       927.006         722.342
  10245174.560 9   7982522.42746  22759799.486    22759800.6304   22759807.3824
     -2429.762       -1893.321
 -27615220.551 9 -21491666.93548  19844976.182    19844977.0354   19844983.0914
      2319.174        1807.149
 -11153831.384 9  -8683463.20348  20189186.887    20189187.3014   20189193.0584
       631.265         491.895
 97  4 29 16 57 29.9970000  0  6 27 26 15 19  7  2                  -0.002844436
  -7276901.555 9  -5505029.26548  19674516.772    19674517.3404   19674522.7394
      -773.485        -602.716
 -19746235.253 9 -15363556.88248  21831527.289    21831528.3264   21831533.8134
      1565.098        1219.557
 -14908587.603 9 -11596966.96246  22703962.782    22703963.2334   22703969.5494
       908.612         708.009
  10318157.193 9   8039391.94846  22773687.691    22773688.8804   22773695.6344
     -2436.132       -1898.285
 -27684576.995 9 -21545710.90148  19831778.024    19831778.9204   19831784.9814
      2304.173        1795.459
 -11172703.300 9  -8698168.59148  20185595.655    20185596.0754   20185601.8514
       626.421         488.120
 97  4 29 16 57 59.9970000  0  6 27 26 15 19  7  2                  -0.002857372
  -7253444.027 9  -5486750.68648  19678980.517    19678981.1624   19678986.5974
      -790.392        -615.890
 -19792916.979 9 -15399932.25548  21822643.996    21822645.1334   21822650.5794
      1546.910        1205.384
 -14935557.553 9 -11617982.52346  22698830.547    22698831.0254   22698837.3104
       889.316         692.974
  10391351.112 9   8096426.09546  22787616.400    22787617.4024   22787624.0074
     -2443.503       -1904.028
 -27753459.499 9 -21599385.56148  19818670.168    19818671.0264   19818677.0644
      2288.068        1782.910
 -11191409.925 9  -8712745.18048  20182035.775    20182036.3394   20182042.0824
       620.626         483.605
 97  4 29 16 58 29.9970000  0  6 27 26 15 19  7  2                  -0.002870304
  -7229485.872 9  -5468082.01448  19683539.609    19683540.2434   19683545.6884
      -805.946        -628.010
 -19839056.668 9 -15435885.26448  21813863.950    21813865.0534   21813870.5174
      1529.995        1192.204
 -14961960.798 9 -11638556.49846  22693806.067    22693806.6584   22693812.9674
       871.722         679.264
  10464754.895 9   8153623.78646  22801584.735    22801585.7334   22801592.3454
     -2449.206       -1908.472
 -27821876.685 9 -21652697.63948  19805650.795    19805651.6424   19805657.6874
      2273.955        1771.913
 -11209955.316 9  -8727196.13848  20178506.816    20178507.2834   20178513.0484
       616.654         480.510
 97  4 29 16 58 59.9970000  0  6 27 26 15 19  7  2                  -0.002883238
  -7205032.645 9  -5449027.57148  19688192.768    19688193.5254   19688199.0024
      -823.652        -641.807
 -19884665.549 9 -15471424.65548  21805184.860    21805186.0124   21805191.4874
      1511.133        1177.506
 -14987809.779 9 -11658698.57846  22688887.255    22688887.8044   22688894.0324
       852.032         663.921
  10538351.511 9   8210971.73246  22815589.790    22815590.7304   22815597.4484
     -2456.767       -1914.364
 -27889843.813 9 -21705659.02348  19792716.991    19792717.8554   19792723.9254
      2257.756        1759.290
 -11228351.265 9  -8741530.64448  20175006.324    20175006.6664   20175012.4424
       610.200         475.481
 97  4 29 16 59 29.9970000  0  6 27 26 15 19  7  2                  -0.002896180
  -7180082.769 9  -5429586.12648  19692940.553    19692941.3534   19692946.8354
      -839.990        -654.538
 -19929735.376 9 -15506544.00248  21796608.457    21796609.5634   21796615.0064
      1493.190        1163.525
 -15013096.811 9 -11678402.76646  22684075.312    22684075.9174   22684082.0354
       833.359         649.371
  10612144.268 9   8268472.52446  22829631.828    22829633.0624   22829639.8464
     -2463.167       -1919.351
 -27957357.791 9 -21758267.29948  19779869.446    19779870.3324   19779876.4184
      2242.714        1747.569
 -11246571.059 9  -8755727.88248  20171539.357    20171539.5504   20171545.3414
       603.977         470.631
 97  4 29 16 59 59.9970000  0  6 27 26 15 19  7  2                  -0.002909127
  -7154642.462 9  -5409762.53048  19697781.688    19697782.4874   19697787.9744
      -856.346        -667.283
 -19974263.996 9 -15541241.62948  21788134.911    21788136.0174   21788141.4834
      1474.998        1149.349
 -15037818.158 9 -11697666.16146  22679371.079    22679371.6074   22679377.7614
       814.242         634.474
  10686140.264 9   8326131.67346  22843713.098    22843714.0944   22843720.9954
     -2470.347       -1924.946
 -28024410.605 9 -21810516.22948  19767109.736    19767110.6334   19767116.6954
      2227.090        1735.395
 -11264593.189 9  -8769771.09748  20168109.827    20168110.0414   20168115.8354
       597.156         465.316
 97  4 29 17  0 29.9970000  0  6 27 26 15 19  7  2                  -0.002922076
  -7128718.659 9  -5389562.18448  19702714.901    19702715.6384   19702721.1494
      -872.430        -679.816
 -20018254.475 9 -15575519.93048  21779763.781    21779764.9104   21779770.3814
      1457.144        1135.437
 -15061966.122 9 -11716482.75746  22674775.982    22674776.4444   22674782.5884
       794.869         619.378
  10760351.219 9   8383958.32646  22857835.174    22857836.0304   22857842.9814
     -2477.835       -1930.781
 -28090995.355 9 -21862400.43448  19754439.112    19754440.0024   19754446.0524
      2211.067        1722.909
 -11282412.523 9  -8783656.29148  20164718.624    20164719.1464   20164724.9294
       590.119         459.833
 97  4 29 17  0 59.9970000  0  6 27 26 15 19  7  2                  -0.002935019
  -7102317.969 9  -5368990.23948  19707738.806    19707739.5314   19707745.0564
      -887.634        -691.663
 -20061708.378 9 -15609380.11148  21771494.669    21771495.9194   21771501.4024
      1439.699        1121.843
 -15085521.909 9 -11734837.92046  22670293.506    22670293.9264   22670300.1674
       775.448         604.245
  10834804.763 9   8441974.01146  22872003.076    22872004.1444   22872010.9464
     -2485.795       -1936.983
 -28157088.297 9 -21913901.41248  19741862.041    19741862.9194   19741868.9574
      2195.017        1710.403
 -11300012.236 9  -8797370.35048  20161369.309    20161370.0394   20161375.8094
       583.266         454.493
 97  4 29 17  1 29.9970000  0  6 27 26 15 19  7  2                  -0.002947951
  -7075468.422 9  -5348068.53548  19712848.204    19712848.8704   19712854.3664
      -902.061        -702.905
 -20104637.846 9 -15642831.64848  21763325.546    21763326.7134   21763332.2234
      1422.585        1108.508
 -15108498.607 9 -11752741.82646  22665921.141    22665921.5634   22665927.8844
       756.604         589.562
  10909504.990 9   8500181.93746  22886218.149    22886219.1344   22886226.0094
     -2493.667       -1943.117
 -28222696.398 9 -21965024.59348  19729377.190    19729378.1074   19729384.1494
      2179.136        1698.028
 -11317416.668 9  -8810932.24548  20158057.415    20158058.1084   20158063.8514
       577.488         449.991
 97  4 29 17  1 59.9970000  0  6 27 26 15 19  7  2                  -0.002960868
  -7048183.546 9  -5326807.61348  19718040.328    19718041.0404   19718046.5314
      -917.575        -714.994
 -20147048.459 9 -15675878.88048  21755255.108    21755256.2754   21755261.7554
      1404.216        1094.194
 -15130905.730 9 -11770201.91046  22661657.253    22661657.6204   22661663.9624
       736.677         574.034
  10984436.606 9   8558570.14746  22900477.155    22900478.1324   22900485.0184
     -2502.168       -1949.741
 -28287828.530 9 -22015776.88548  19716982.966    19716983.8554   19716989.8924
      2162.556        1685.109
 -11334659.417 9  -8824368.14648  20154776.212    20154776.8984   20154782.6484
       571.669         445.456
 97  4 29 17  2 29.9970000  0  6 27 26 15 19  7  2                  -0.002973748
  -7020430.571 9  -5305181.93948  19723321.610    19723322.2824   19723327.7544
      -932.209        -726.397
 -20188907.069 9 -15708495.97848  21747289.764    21747290.8524   21747296.2754
      1386.783        1080.610
 -15152717.407 9 -11787198.00446  22657506.373    22657506.9574   22657513.2744
       717.887         559.392
  11059610.557 9   8617147.19246  22914782.440    22914783.3784   22914790.1894
     -2508.855       -1954.952
 -28352471.197 9 -22066147.77748  19704681.850    19704682.7434   19704688.7804
      2147.412        1673.308
 -11351739.152 9  -8837677.03048  20151526.048    20151526.7494   20151532.4814
       567.407         442.135
 97  4 29 17  2 59.9970000  0  6 27 26 15 19  7  2                  -0.002986598
  -6992212.714 9  -5283194.02048  19728691.291    19728692.0014   19728697.4614
      -948.989        -739.472
 -20230212.014 9 -15740681.65048  21739429.715    21739430.7954   21739436.2344
      1367.091        1065.266
 -15173949.214 9 -11803742.25146  22653466.052    22653466.6404   22653473.0164
       697.766         543.714
  11135000.080 9   8675892.22346  22929128.563    22929129.5594   22929136.4414
     -2516.764       -1961.115
 -28416641.418 9 -22116150.53248  19692470.651    19692471.5124   19692477.5304
      2130.785        1660.352
 -11368674.966 9  -8850873.76448  20148303.283    20148303.9874   20148309.7214
       561.937         437.873
 97  4 29 17  3 29.9970000  0  6 27 26 15 19  7  2                  -0.002999428
  -6963514.778 9  -5260832.01248  19734152.397    19734153.0624   19734158.5114
      -964.886        -751.859
 -20270964.727 9 -15772437.01548  21731674.723    21731675.8644   21731681.2984
      1349.136        1051.275
 -15194614.302 9 -11819844.90346  22649533.675    22649534.1424   22649540.6244
       679.221         529.263
  11210575.245 9   8734781.90646  22943509.969    22943511.0424   22943518.0554
     -2521.985       -1965.183
 -28480349.027 9 -22165792.81048  19680347.555    19680348.3614   19680354.3654
      2115.809        1648.682
 -11385483.105 9  -8863971.01248  20145104.883    20145105.5314   20145111.2424
       557.862         434.698
 97  4 29 17  3 59.9970000  0  6 27 26 15 19  7  2                  -0.003012235
  -6934298.328 9  -5238065.97448  19739712.121    19739712.7754   19739718.2174
      -981.899        -765.116
 -20311136.233 9 -15803739.48648  21724030.446    21724031.5164   21724036.9274
      1330.077        1036.424
 -15214683.797 9 -11835483.46146  22645714.658    22645715.1104   22645721.5244
       659.757         514.096
  11286335.144 9   8793815.53746  22957926.658    22957927.7214   22957934.7894
     -2527.629       -1969.581
 -28543572.572 9 -22215057.89248  19668316.551    19668317.3474   19668323.3564
      2100.088        1636.432
 -11402124.347 9  -8876938.21648  20141938.331    20141938.8174   20141944.5224
       552.508         430.526
 97  4 29 17  4 29.9960000  0  6 27 26 15 19  7  2                  -0.003025034
  -6904570.962 9  -5214901.80748  19745369.087    19745369.7274   19745375.1924
      -999.005        -778.445
 -20350738.381 9 -15834598.30448  21716494.436    21716495.4864   21716500.9324
      1311.310        1021.800
 -15234168.533 9 -11850666.35246  22642006.738    22642007.2934   22642013.7064
       640.224         498.876
  11362266.939 9   8852983.11046  22972376.180    22972377.0594   22972384.2064
     -2533.723       -1974.330
 -28606318.906 9 -22263951.12248  19656376.335    19656377.1384   19656383.1324
      2084.028        1623.918
 -11418591.742 9  -8889769.95148  20138804.800    20138805.1794   20138810.8924
       546.178         425.593
 97  4 29 17  4 59.9960000  0  6 27 26 15 19  7  2                  -0.003037835
  -6874330.185 9  -5191337.58448  19751123.766    19751124.3674   19751129.8504
     -1016.709        -792.241
 -20389783.591 9 -15865023.14348  21709064.389    21709065.4514   21709070.8984
      1292.184        1006.897
 -15253068.472 9 -11865393.56646  22638410.455    22638410.7434   22638417.1464
       620.004         483.120
  11438385.188 9   8912295.97046  22986861.111    22986861.9394   22986869.0074
     -2540.701       -1979.767
 -28668579.314 9 -22312465.70548  19644528.539    19644529.3504   19644535.3504
      2066.875        1610.552
 -11434863.744 9  -8902449.43348  20135708.438    20135708.7214   20135714.4154
       538.955         419.965
 97  4 29 17  5 29.9960000  0  6 27 26 15 19  7  2                  -0.003050649
  -6843594.469 9  -5167387.69648  19756972.598    19756973.1934   19756978.7094
     -1033.207        -805.096
 -20428291.944 9 -15895029.65248  21701736.472    21701737.5754   21701743.0024
      1274.019         992.742
 -15271387.075 9 -11879667.80746  22634924.633    22634924.8424   22634931.2064
       600.228         467.710
  11514692.209 9   8971755.92946  23001381.604    23001382.7774   23001389.6624
     -2547.469       -1985.041
 -28730351.565 9 -22360599.90948  19632773.651    19632774.4824   19632780.4844
      2050.254        1597.601
 -11450938.508 9  -8914975.22648  20132649.495    20132649.7654   20132655.4924
       531.791         414.382
 97  4 29 17  5 59.9960000  0  6 27 26 15 19  7  2                  -0.003063447
  -6812359.452 9  -5143048.73748  19762916.390    19762917.0354   19762922.5524
     -1048.562        -817.061
 -20466233.399 9 -15924594.42548  21694516.497    21694517.5524   21694522.9954
      1256.015         978.713
 -15289093.705 9 -11893465.17746  22631554.937    22631555.4114   22631561.7754
       580.734         452.520
  11591225.615 9   9031392.30446  23015945.487    23015946.5474   23015953.4454
     -2554.378       -1990.424
 -28791608.479 9 -22408332.55248  19621116.758    19621117.6474   19621123.6234
      2033.951        1584.897
 -11466788.175 9  -8927325.61548  20129633.372    20129633.6794   20129639.4004
       525.423         409.421
 97  4 29 17  6 29.9960000  0  6 27 26 15 19  7  2                  -0.003076237
  -6780669.707 9  -5118355.44448  19768946.722    19768947.4034   19768952.9364
     -1064.902        -829.794
 -20503638.038 9 -15953740.89448  21687398.558    21687399.6444   21687405.1014
      1236.800         963.740
 -15306216.106 9 -11906807.31947  22628296.662    22628297.1564   22628303.4604
       559.891         436.279
  11667977.535 9   9091198.94246  23030551.069    23030551.9694   23030558.9864
     -2563.261       -1997.346
 -28852372.146 9 -22455680.84148  19609553.807    19609554.6884   19609560.6534
      2016.125        1571.006
 -11482448.376 9  -8939528.37048  20126653.320    20126653.6534   20126659.3544
       517.859         403.526
 97  4 29 17  6 59.9960000  0  6 27 26 15 19  7  2                  -0.003089010
  -6748540.745 9  -5093319.90648  19775060.684    19775061.3664   19775066.9244
     -1079.615        -841.258
 -20540503.760 9 -15982467.43648  21680383.282    21680384.3144   21680389.7404
      1218.238         949.276
 -15322755.497 9 -11919695.16047  22625149.371    22625149.8174   22625156.1274
       540.088         420.848
  11744950.580 9   9151177.87546  23045198.477    23045199.4994   23045206.5864
     -2570.866       -2003.272
 -28912645.856 9 -22502647.34648  19598084.107    19598084.9764   19598090.9344
      1999.544        1558.086
 -11497934.554 9  -8951595.52648  20123706.293    20123706.7384   20123712.3904
       512.013         398.971
 97  4 29 17  7 29.9960000  0  6 27 26 15 19  7  2                  -0.003101746
  -6715954.096 9  -5067927.73748  19781261.737    19781262.4234   19781268.0074
     -1093.992        -852.461
 -20576795.988 9 -16010747.09548  21673477.042    21673478.1144   21673483.5444
      1200.056         935.109
 -15338679.720 9 -11932103.65247  22622119.089    22622119.5414   22622125.8874
       520.385         405.495
  11822159.467 8   9211340.58246  23059890.899    23059891.8754   23059899.0594
     -2577.404       -2008.367
 -28972404.547 9 -22549212.54548  19586712.436    19586713.2954   19586719.2374
      1983.304        1545.432
 -11513227.375 9  -8963512.01748  20120796.266    20120796.6354   20120802.2634
       506.381         394.583
 97  4 29 17  7 59.9960000  0  6 27 26 15 19  7  2                  -0.003114491
  -6682972.606 9  -5042227.89048  19787537.930    19787538.6134   19787544.2004
     -1107.334        -862.858
 -20612576.295 9 -16038627.85948  21666668.165    21666669.3304   21666674.7974
      1182.958         921.785
 -15354055.057 9 -11944084.44846  22619193.116    22619193.7264   22619200.0444
       502.247         391.361
  11899521.237 8   9271622.43846  23074612.164    23074613.3914   23074620.5734
     -2582.338       -2012.211
 -29031716.479 9 -22595429.61548  19575425.743    19575426.6194   19575432.5484
      1968.509        1533.903
 -11528390.600 9  -8975327.52048  20117910.868    20117911.1884   20117916.7624
       502.039         391.199
 97  4 29 17  8 29.9960000  0  6 27 26 15 19  7  2                  -0.003127215
  -6649518.459 9  -5016159.74448  19793904.057    19793904.7494   19793910.3574
     -1122.906        -874.992
 -20647788.076 9 -16066065.60948  21659967.631    21659968.7604   21659974.2574
      1164.677         907.541
 -15368826.871 9 -11955594.96647  22616382.190    22616382.7234   22616389.0764
       482.737         376.159
  11977089.533 9   9332065.21946  23089372.900    23089374.2364   23089381.1934
     -2588.508       -2017.019
 -29090529.703 9 -22641258.08448  19564233.986    19564234.8334   19564240.7644
      1952.653        1521.548
 -11543360.296 9  -8986992.21848  20115062.267    20115062.5134   20115068.0984
       496.111         386.580
 97  4 29 17  8 59.9960000  0  6 27 26 15 19  7  2                  -0.003139924
  -6615563.420 9  -4989701.28548  19800365.549    19800366.2164   19800371.8254
     -1139.864        -888.206
 -20682425.934 9 -16093056.14848  21653376.244    21653377.3924   21653382.9074
      1145.524         892.616
 -15382988.949 9 -11966630.35747  22613687.043    22613687.7684   22613694.1454
       462.375         360.292
  12054854.724 9   9392661.43046  23104171.323    23104172.5764   23104179.4524
     -2594.836       -2021.950
 -29148844.867 9 -22686698.45348  19553137.025    19553137.8574   19553143.7654
      1936.006        1508.576
 -11558121.709 9  -8998494.62048  20112253.198    20112253.4704   20112259.0964
       488.959         381.007
 97  4 29 17  9 29.9960000  0  6 27 26 15 19  7  2                  -0.003152644
  -6581123.617 9  -4962865.08948  19806919.266    19806919.8844   19806925.5294
     -1156.039        -900.810
 -20716523.089 9 -16119625.36448  21646887.739    21646888.8934   21646894.4374
      1127.742         878.760
 -15396571.284 9 -11977213.99847  22611102.428    22611103.1874   22611109.4964
       443.327         345.450
  12132780.418 9   9453382.69246  23119000.037    23119001.4954   23119008.3554
     -2600.096       -2026.049
 -29206693.145 9 -22731775.01648  19542128.887    19542129.7264   19542135.6054
      1920.713        1496.659
 -11572699.706 9  -9009854.09948  20109478.968    20109479.4034   20109485.0214
       483.053         376.405
 97  4 29 17  9 59.9960000  0  6 27 26 15 19  7  2                  -0.003165359
  -6546176.658 9  -4935633.71248  19813569.432    19813570.0814   19813575.7704
     -1174.275        -915.019
 -20750064.328 9 -16145761.39548  21640505.063    21640506.2264   21640511.7324
      1107.943         863.332
 -15409568.499 9 -11987341.70947  22608629.140    22608629.8824   22608636.2074
       422.717         329.390
  12210894.415 9   9514250.70246  23133864.774    23133866.1554   23133873.0314
     -2607.874       -2032.110
 -29264065.147 9 -22776480.45648  19531211.385    19531212.2124   19531218.0694
      1903.624        1483.343
 -11587085.747 9  -9021064.00448  20106741.323    20106741.8524   20106747.4794
       475.583         370.584
 97  4 29 17 10 29.9960000  0  6 27 26 15 19  7  2                  -0.003178056
  -6510701.372 9  -4907990.64848  19820320.092    19820320.8104   19820326.5044
     -1190.443        -927.618
 -20783035.365 9 -16171453.11248  21634230.928    21634232.0384   21634237.5524
      1090.262         849.555
 -15421963.430 9 -11997000.10247  22606270.493    22606271.2124   22606277.5454
       403.772         314.627
  12289217.188 9   9575281.39846  23148769.044    23148770.4804   23148777.3804
     -2613.440       -2036.447
 -29320941.689 9 -22820799.83048  19520388.121    19520388.9754   19520394.8194
      1888.196        1471.322
 -11601271.780 9  -9032118.05748  20104041.776    20104042.3584   20104047.9664
       470.232         366.415
 97  4 29 17 10 59.9960000  0  6 27 26 15 19  7  2                  -0.003190741
  -6474731.315 9  -4879962.04648  19827164.971    19827165.6974   19827171.3834
     -1207.057        -940.564
 -20815449.376 9 -16196710.78548  21628062.752    21628063.8504   21628069.3684
      1071.075         834.604
 -15433766.103 9 -12006196.98047  22604024.630    22604025.2424   22604031.5174
       383.445         298.788
  12367731.090 9   9636461.03046  23163709.976    23163711.1414   23163718.1514
     -2620.526       -2041.968
 -29377324.995 9 -22864734.85848  19509658.694    19509659.5764   19509665.3964
      1871.079        1457.984
 -11615271.658 9  -9043027.05748  20101377.662    20101378.2614   20101383.8874
       463.639         361.277
 97  4 29 17 11 29.9960000  0  6 27 26 15 19  7  2                  -0.003203415
  -6438300.206 9  -4851574.18848  19834097.512    19834098.3084   19834104.0214
     -1222.715        -952.765
 -20847316.523 9 -16221542.32748  21621998.670    21621999.7454   21622005.2874
      1052.372         820.030
 -15444988.667 9 -12014941.82947  22601888.992    22601889.6304   22601895.9234
       363.670         283.379
  12446433.304 9   9697787.39346  23178686.424    23178687.7054   23178694.8004
     -2627.330       -2047.270
 -29433221.796 9 -22908290.79548  19499021.953    19499022.7684   19499028.5724
      1854.342        1444.942
 -11629110.568 9  -9053810.62548  20098744.362    20098744.8234   20098750.4424
       457.839         356.758
 97  4 29 17 11 59.9960000  0  6 27 26 15 19  7  2                  -0.003216059
  -6401379.656 9  -4822804.94848  19841123.253    19841124.0624   19841129.7784
     -1237.905        -964.601
 -20878604.960 9 -16245922.93048  21616044.611    21616045.7434   21616051.2614
      1034.263         805.919
 -15455599.393 9 -12023209.91247  22599869.664    22599870.4704   22599876.7794
       344.312         268.295
  12525356.332 9   9759285.79046  23193705.238    23193706.3244   23193713.5184
     -2633.310       -2051.930
 -29488596.126 9 -22951439.61348  19488484.533    19488485.3834   19488491.1584
      1838.025        1432.227
 -11642753.539 9  -9064441.51448  20096148.295    20096148.6534   20096154.2624
       452.420         352.535
 97  4 29 17 12 29.9960000  0  6 27 26 15 19  7  2                  -0.003228694
  -6364008.235 9  -4793684.37848  19848234.895    19848235.6394   19848241.3464
     -1252.331        -975.842
 -20909350.720 9 -16269880.67148  21610193.985    21610195.0544   21610200.5694
      1016.561         792.125
 -15465624.611 9 -12031021.76447  22597961.999    22597962.7774   22597969.1004
       325.165         253.375
  12604452.932 9   9820919.44646  23208756.919    23208757.9584   23208765.2304
     -2638.638       -2056.082
 -29543484.782 9 -22994209.98848  19478039.514    19478040.3834   19478046.1394
      1822.412        1420.061
 -11656236.355 9  -9074947.61448  20093582.570    20093582.9614   20093588.5164
       447.608         348.785
 97  4 29 17 12 59.9960000  0  6 27 26 15 19  7  2                  -0.003241343
  -6326239.663 9  -4764254.33848  19855421.951    19855422.7654   19855428.4874
     -1265.946        -986.451
 -20939594.319 9 -16293447.11248  21604438.875    21604439.9134   21604445.4494
       999.420         778.769
 -15475110.983 9 -12038413.73647  22596156.945    22596157.5054   22596163.8734
       306.875         239.123
  12683679.854 9   9882654.65746  23223833.116    23223834.4294   23223841.7014
     -2643.339       -2059.745
 -29597942.791 9 -23036644.79148  19467676.426    19467677.3254   19467683.0744
      1807.863        1408.724
 -11669611.550 9  -9085369.85148  20091037.374    20091037.7774   20091043.3254
       443.913         345.906
 97  4 29 17 13 29.9960000  0  6 27 26 15 19  7  2                  -0.003253977
  -6288029.305 9  -4734480.05248  19862693.167    19862693.9334   19862699.6934
     -1281.404        -998.497
 -20969294.886 9 -16316590.41548  21598786.979    21598788.1014   21598793.6564
       980.661         764.151
 -15484018.156 9 -12045354.38047  22594461.783    22594462.4834   22594468.9114
       286.989         223.628
  12763069.492 9   9944516.63746  23238940.561    23238941.8254   23238949.2034
     -2649.084       -2064.221
 -29651941.183 9 -23078721.45248  19457400.882    19457401.7774   19457407.5234
      1791.979        1396.347
 -11682850.965 9  -9095686.28148  20088517.966    20088518.4354   20088523.9804
       438.611         341.775
 97  4 29 17 13 59.9960000  0  6 27 26 15 19  7  2                  -0.003266585
  -6249347.766 9  -4704338.62048  19870053.994    19870054.7904   19870060.6034
     -1296.273       -1010.083
 -20998425.775 9 -16339289.81248  21593243.568    21593244.6794   21593250.2634
       962.299         749.843
 -15492319.890 9 -12051823.25747  22592882.105    22592882.7194   22592889.1964
       267.382         208.350
  12842634.406 9  10006515.19046  23254081.190    23254082.5424   23254089.9754
     -2654.194       -2068.203
 -29705453.288 9 -23120419.18548  19447217.843    19447218.7614   19447224.5234
      1776.395        1384.204
 -11695922.920 9  -9105872.22548  20086030.444    20086030.9154   20086036.4664
       433.828         338.048
 97  4 29 17 14 29.9960000  0  6 27 26 15 19  7  2                  -0.003279179
  -6210234.713 9  -4673860.93948  19877497.016    19877497.7814   19877503.5954
     -1310.744       -1021.359
 -21027006.039 9 -16361560.15148  21587804.810    21587805.9914   21587811.6094
       943.650         735.312
 -15500041.225 9 -12057839.87947  22591412.741    22591413.3794   22591419.8614
       247.968         193.222
  12922344.966 9  10068627.24246  23269249.318    23269251.0094   23269258.4484
     -2659.298       -2072.180
 -29758500.372 9 -23161754.56748  19437123.289    19437124.2194   19437129.9804
      1760.515        1371.830
 -11708856.179 9  -9115950.09648  20083569.293    20083569.7704   20083575.3524
       428.947         334.244
 97  4 29 17 14 59.9960000  0  6 27 26 15 19  7  2                  -0.003291756
  -6170682.560 9  -4643041.10348  19885023.590    19885024.3244   19885030.1084
     -1327.110       -1034.112
 -21055022.679 9 -16383391.30448  21582473.377    21582474.6034   21582480.2154
       923.244         719.411
 -15507177.196 9 -12063400.37147  22590054.791    22590055.5014   22590061.9534
       226.710         176.657
  13002214.638 9  10130863.26646  23284448.356    23284449.7644   23284457.0834
     -2666.294       -2077.632
 -29811057.733 9 -23202708.34148  19427121.840    19427122.8274   19427128.6144
      1742.316        1357.649
 -11721633.561 9  -9125906.49948  20081137.751    20081138.3174   20081143.9044
       421.841         328.707
 97  4 29 17 15 29.9960000  0  6 27 26 15 19  7  2                  -0.003304294
  -6130633.237 9  -4611833.86148  19892644.723    19892645.4694   19892651.2444
     -1342.675       -1046.240
 -21082431.666 9 -16404748.95748  21577257.644    21577258.8264   21577264.4334
       904.344         704.684
 -15513674.988 9 -12068463.59047  22588818.444    22588819.0284   22588825.4964
       206.727         161.086
  13082290.769 8  10193260.15746  23299686.797    23299687.7624   23299695.2254
     -2671.988       -2082.069
 -29863066.690 9 -23243234.79348  19417224.824    19417225.8224   19417231.6274
      1725.188        1344.302
 -11734190.781 9  -9135691.34748  20078748.116    20078748.7614   20078754.3504
       415.427         323.709
 97  4 29 17 15 59.9960000  0  6 27 26 15 19  7  2                  -0.003316842
  -6090137.116 9  -4580278.46548  19900350.886    19900351.6604   19900357.4334
     -1357.600       -1057.870
 -21109302.558 9 -16425687.31848  21572144.270    21572145.4744   21572151.0654
       886.645         690.892
 -15519598.686 9 -12073079.45347  22587691.196    22587691.8004   22587698.2304
       187.704         146.263
  13162525.799 8  10255780.85546  23314955.173    23314955.9734   23314963.4414
     -2677.459       -2086.332
 -29914585.604 9 -23283379.38948  19407421.173    19407422.1284   19407427.9054
      1709.054        1331.730
 -11746575.578 9  -9145341.84248  20076391.424    20076392.0244   20076397.6134
       409.790         319.317
 97  4 29 17 16 29.9960000  0  6 27 26 15 19  7  2                  -0.003329365
  -6049131.450 9  -4548326.02148  19908153.985    19908154.8074   19908160.5604
     -1374.977       -1071.411
 -21135595.166 9 -16446175.06148  21567140.959    21567142.1554   21567147.7584
       867.507         675.979
 -15524900.860 9 -12077211.01247  22586682.190    22586682.8554   22586689.2764
       166.928         130.074
  13242982.862 8  10318474.55246  23330265.437    23330266.5034   23330274.0204
     -2685.183       -2092.350
 -29965577.348 9 -23323113.20148  19397717.750    19397718.7124   19397724.4914
      1691.701        1318.208
 -11758734.378 9  -9154816.23848  20074077.770    20074078.2884   20074083.8904
       402.024         313.265
 97  4 29 17 16 59.9960000  0  6 27 26 15 19  7  2                  -0.003341879
  -6007619.522 9  -4515979.09248  19916053.419    19916054.2964   19916060.0274
     -1391.455       -1084.251
 -21161344.736 9 -16466239.66248  21562240.965    21562242.1634   21562247.7994
       850.221         662.510
 -15529599.987 9 -12080872.66747  22585788.067    22585788.5664   22585795.0154
       147.259         114.747
  13323646.557 8  10381329.29546  23345615.454    23345616.3494   23345623.8684
     -2691.409       -2097.202
 -30016083.159 9 -23362468.36848  19388106.814    19388107.7894   19388113.5824
      1676.347        1306.244
 -11770679.980 9  -9164124.50348  20071804.577    20071805.1464   20071810.7284
       395.337         308.055
 97  4 29 17 17 29.9960000  0  6 27 26 15 19  7  2                  -0.003354434
  -5965663.311 9  -4483285.96748  19924037.451    19924038.3294   19924044.0674
     -1407.435       -1096.703
 -21186633.930 9 -16485945.52948  21557428.528    21557429.7674   21557435.4254
       833.633         649.584
 -15533761.353 9 -12084115.30247  22584996.188    22584996.7204   22585003.0414
       128.201          99.897
  13404445.848 8  10444289.68246  23360990.904    23360991.9884   23360999.6324
     -2697.109       -2101.643
 -30066183.538 9 -23401507.60748  19378572.974    19378574.0164   19378579.7974
      1661.697        1294.829
 -11782476.275 9  -9173316.42548  20069559.769    20069560.3754   20069565.9644
       389.130         303.218
 97  4 29 17 17 59.9960000  0  6 27 26 15 19  7  2                  -0.003366988
  -5923210.937 9  -4450206.22448  19932115.867    19932116.7534   19932122.5114
     -1421.666       -1107.792
 -21211397.307 9 -16505241.68048  21552716.267    21552717.4914   21552723.1144
       818.291         637.629
 -15537328.576 9 -12086894.95647  22584317.264    22584317.9064   22584324.2074
       110.577          86.164
  13485433.580 8  10507396.90646  23376402.404    23376403.6054   23376411.1754
     -2700.856       -2104.563
 -30115820.839 9 -23440186.00948  19369127.312    19369128.3394   19369134.1374
      1648.381        1284.453
 -11794062.637 9  -9182344.76348  20067354.981    20067355.5714   20067361.1374
       384.441         299.564
 97  4 29 17 18 29.9960000  0  6 27 26 15 19  7  2                  -0.003379565
  -5880295.389 9  -4416765.56948  19940282.537    19940283.3504   19940289.1134
     -1438.542       -1120.942
 -21235660.159 9 -16524147.79948  21548099.222    21548100.4254   21548106.0534
       799.958         623.344
 -15540328.392 9 -12089232.48847  22583746.265    22583747.0374   22583753.3524
        90.141          70.240
  13566556.002 8  10570609.08546  23391839.573    23391840.5434   23391848.3334
     -2706.521       -2108.977
 -30165015.442 9 -23478519.45248  19359765.905    19359766.9094   19359772.7044
      1631.789        1271.524
 -11805471.575 9  -9191234.85148  20065183.922    20065184.5394   20065190.0944
       376.975         293.747
 97  4 29 17 18 59.9960000  0  6 27 26 15 19  7  2                  -0.003392141
  -5836884.491 9  -4382938.91848  19948543.340    19948544.1904   19948549.9654
     -1455.411       -1134.086
 -21259370.451 9 -16542623.35448  21543587.340    21543588.4784   21543594.1304
       780.764         608.388
 -15542716.814 9 -12091093.61647  22583291.766    22583292.5074   22583298.8884
        69.202          53.924
  13647833.260 8  10633941.91445  23407305.702    23407307.1914   23407314.8934
     -2711.916       -2113.181
 -30213699.519 9 -23516455.07648  19350501.624    19350502.6034   19350508.4324
      1613.701        1257.429
 -11816667.507 9  -9199958.95748  20063053.405    20063054.0374   20063059.5824
       369.563         287.971
 97  4 29 17 19 29.9960000  0  6 27 26 15 19  7  2                  -0.003404702
  -5792976.605 9  -4348725.01048  19956898.700    19956899.6184   19956905.3614
     -1470.840       -1146.109
 -21282495.823 9 -16560643.12648  21539186.643    21539187.8654   21539193.5434
       761.592         593.448
 -15544478.030 9 -12092466.01447  22582956.667    22582957.3724   22582963.7434
        49.037          38.211
  13729267.898 8  10697397.37645  23422802.307    23422803.6054   23422811.5554
     -2716.175       -2116.500
 -30261828.472 9 -23553958.14148  19341343.038    19341343.9844   19341349.8194
      1595.837        1243.509
 -11827649.350 9  -9208516.24648  20060963.714    20060964.3044   20060969.8214
       363.391         283.162
 97  4 29 17 19 59.9960000  0  6 27 26 15 19  7  2                  -0.003417276
  -5748653.026 9  -4314187.18548  19965333.257    19965334.1314   19965339.8864
     -1484.076       -1156.423
 -21305079.764 9 -16578241.01448  21534889.192    21534890.3434   21534895.9974
       744.215         579.908
 -15545673.279 9 -12093397.39847  22582729.077    22582729.9664   22582736.2804
        30.586          23.833
  13810794.964 8  10760924.86645  23438316.702    23438317.7724   23438325.8374
     -2718.912       -2118.633
 -30309461.328 9 -23591074.63748  19332278.873    19332279.7604   19332285.5964
      1579.753        1230.976
 -11838491.210 9  -9216964.45548  20058900.639    20058901.1764   20058906.6644
       359.469         280.106
 97  4 29 17 20 29.9960000  0  6 27 26 15 19  7  2                  -0.003429847
  -5703898.965 9  -4279313.91948  19973849.729    19973850.5894   19973856.3344
     -1498.768       -1167.871
 -21327107.819 9 -16595405.73948  21530697.566    21530698.5704   21530704.1734
       725.043         564.969
 -15546279.270 9 -12093869.62946  22582614.050    22582614.6744   22582620.9654
        10.504           8.185
  13892442.109 8  10824545.91146  23453853.628    23453854.9814   23453862.8424
     -2723.762       -2122.412
 -30356575.090 9 -23627786.64848  19323313.327    19323314.2574   19323320.1284
      1562.038        1217.172
 -11849185.827 9  -9225297.93048  20056865.532    20056866.1014   20056871.5554
       354.354         276.120
 97  4 29 17 20 59.9960000  0  6 27 26 15 19  7  2                  -0.003442399
  -5658725.130 9  -4244113.55648  19982446.010    19982446.9184   19982452.6634
     -1512.808       -1178.811
 -21348576.550 9 -16612134.62648  21526612.143    21526613.1874   21526618.8144
       706.336         550.392
 -15546296.925 9 -12093883.41346  22582610.716    22582611.3374   22582617.6624
        -9.358          -7.292
  13974237.959 9  10888282.84545  23469419.049    23469420.3564   23469427.9634
     -2729.306       -2126.732
 -30403183.076 9 -23664104.54548  19314444.012    19314445.0294   19314450.9254
      1545.408        1204.214
 -11859751.572 9  -9233530.98548  20054855.039    20054855.5204   20054860.9704
       349.953         272.691
 97  4 29 17 21 29.9960000  0  7  4 27 26 15 19  7  2               -0.003454935
  -2636667.43018  -2031618.78655  24074868.258    24074869.5365   24074877.6515
      4028.675        3139.227
  -5613154.033 9  -4208603.63148  19991117.902    19991118.8454   19991124.5834
     -1525.886       -1189.002
 -21369510.815 9 -16628447.05048  21522628.407    21522629.5444   21522635.2004
       688.764         536.699
 -15545741.646 9 -12093450.75646  22582716.294    22582717.0294   22582723.4294
       -28.199         -21.973
  14056189.224 8  10952140.90545  23485013.977    23485015.2794   23485022.8134
     -2734.608       -2130.863
 -30449325.477 9 -23700059.65048  19305663.487    19305664.4434   19305670.3174
      1530.311        1192.450
 -11870201.562 9  -9241673.84248  20052866.382    20052866.9644   20052872.4274
       346.066         269.662
 97  4 29 17 21 59.9960000  0  7  4 27 26 15 19  7  2               -0.003467443
  -2757573.419 8  -2125831.30445  24051859.841    24051862.0874   24051869.6344
      4032.591        3142.279
  -5567152.535 9  -4172758.33148  19999871.815    19999872.6654   19999878.4254
     -1540.115       -1200.090
 -21389900.262 9 -16644334.93948  21518748.395    21518749.5784   21518755.2504
       671.580         523.309
 -15544593.884 9 -12092556.43347  22582934.649    22582935.4374   22582941.8664
       -47.308         -36.863
  14138338.998 9  11016153.62545  23500646.746    23500647.9004   23500655.3864
     -2740.874       -2135.746
 -30494991.485 9 -23735643.54148  19296973.475    19296974.4254   19296980.3264
      1515.043        1180.553
 -11880497.427 9  -9249696.60248  20050907.180    20050907.7124   20050913.1694
       341.265         265.921
 97  4 29 17 22 29.9960000  0  7  4 27 26 15 19  7  2               -0.003479833
  -2878581.496 9  -2220123.36045  24028833.198    24028835.1774   24028841.9584
      4034.534        3143.793
  -5520701.640 9  -4136562.85148  20008711.150    20008711.9964   20008717.7784
     -1556.759       -1213.059
 -21409760.819 9 -16659810.70448  21514968.994    21514970.2034   21514975.9234
       652.360         508.332
 -15542860.968 9 -12091206.14146  22583264.428    22583265.1484   22583271.6604
       -68.296         -53.218
  14220688.439 9  11080321.94345  23516317.399    23516318.5694   23516326.0744
     -2749.158       -2142.201
 -30540188.799 9 -23770862.21448  19288372.692    19288373.6624   19288379.5624
      1498.027        1167.294
 -11890629.975 9  -9257592.10248  20048978.871    20048979.5774   20048985.0344
       334.036         260.288
 97  4 29 17 22 59.9960000  0  7  4 27 26 15 19  7  2               -0.003492331
  -2999697.228 9  -2314499.30545  24005785.935    24005787.5394   24005794.4324
      4039.729        3147.841
  -5473804.627 9  -4100019.75148  20017635.378    20017636.2244   20017642.0314
     -1569.879       -1223.282
 -21429099.185 9 -16674879.56848  21511289.038    21511290.2304   21511295.9224
       636.816         496.220
 -15540553.565 9 -12089408.20246  22583703.350    22583704.2804   22583710.8274
       -85.668         -66.754
  14303225.432 8  11144636.44645  23532023.573    23532024.9434   23532032.3764
     -2753.055       -2145.238
 -30584935.144 9 -23805729.49048  19279857.731    19279858.6904   19279864.6044
      1484.842        1157.020
 -11900583.918 9  -9265348.43148  20047084.818    20047085.4264   20047090.8594
       329.270         256.574
 97  4 29 17 23 29.9960000  0  7  4 27 26 15 19  7  2               -0.003504863
  -3120951.453 8  -2408983.10845  23982712.254    23982713.7624   23982720.6224
      4043.545        3150.814
  -5426477.160 9  -4063141.23048  20026641.474    20026642.3584   20026648.1874
     -1585.729       -1235.633
 -21447940.008 9 -16689560.73748  21507703.833    21507704.9774   21507710.6484
       618.807         482.187
 -15537696.863 9 -12087182.22746  22584247.161    22584247.9194   22584254.5114
      -105.103         -81.898
  14385895.537 9  11209054.62345  23547755.388    23547756.5584   23547764.1134
     -2758.450       -2149.441
 -30629251.238 9 -23840261.50348  19271424.692    19271425.6194   19271431.5354
      1469.087        1144.743
 -11910353.134 9  -9272960.81248  20045225.767    20045226.4174   20045231.8324
       321.721         250.692
 97  4 29 17 23 59.9960000  0  7  4 27 26 15 19  7  2               -0.003517397
  -3242320.130 8  -2503556.06445  23959617.139    23959618.1024   23959624.9024
      4047.206        3153.667
  -5378665.973 9  -4025885.78048  20035739.618    20035740.5604   20035746.3884
     -1601.989       -1248.303
 -21466236.229 9 -16703817.53948  21504222.147    21504223.3254   21504229.0094
       600.597         467.998
 -15534252.649 9 -12084498.45346  22584902.526    22584903.3444   22584909.9524
      -124.908         -97.331
  14468713.927 8  11273588.36045  23563515.473    23563516.5334   23563524.0884
     -2762.960       -2152.956
 -30673092.571 9 -23874423.57148  19263081.965    19263082.8714   19263088.7914
      1453.272        1132.420
 -11919891.566 9  -9280393.36048  20043410.763    20043411.3384   20043416.7594
       314.073         244.732
 97  4 29 17 24 29.9960000  0  7  4 27 26 15 19  7  2               -0.003529888
  -3363766.546 9  -2598189.58345  23936506.640    23936507.4954   23936514.6284
      4050.817        3156.481
  -5330334.807 9  -3988225.15548  20044936.787    20044937.7194   20044943.5354
     -1618.297       -1261.011
 -21483940.813 9 -16717613.33048  21500853.039    21500854.2744   21500859.9514
       581.326         452.981
 -15530177.380 9 -12081322.94046  22585678.136    22585678.8754   22585685.4144
      -145.250        -113.182
  14551696.773 8  11338250.26245  23579306.869    23579307.6504   23579315.3004
     -2767.664       -2156.621
 -30716421.593 9 -23908186.44048  19254836.630    19254837.6004   19254843.5424
      1436.887        1119.652
 -11929175.251 9  -9287627.40748  20041644.032    20041644.7114   20041650.1544
       306.597         238.907
 97  4 29 17 24 59.9960000  0  7  4 27 26 15 19  7  2               -0.003542354
  -3485341.303 9  -2692923.08945  23913371.425    23913372.6314   23913379.7484
      4054.719        3159.521
  -5281542.485 9  -3950205.19348  20054221.798    20054222.6124   20054228.4564
     -1633.713       -1273.023
 -21501083.203 9 -16730971.04148  21497590.985    21497592.1924   21497597.8644
       562.271         438.133
 -15525508.605 9 -12077684.95446  22586566.629    22586567.3064   22586573.8514
      -165.317        -128.818
  14634789.437 8  11402997.71645  23595119.290    23595119.6394   23595127.2804
     -2771.204       -2159.380
 -30759271.591 9 -23941576.04348  19246682.506    19246683.5044   19246689.4404
      1420.370        1106.782
 -11938261.784 9  -9294707.82248  20039914.985    20039915.6054   20039921.0514
       300.169         233.898
 97  4 29 17 25 29.9960000  0  7  4 27 26 15 19  7  2               -0.003554791
  -3607032.306 8  -2787747.20646  23890214.281    23890215.5614   23890222.9824
      4059.408        3163.175
  -5232298.800 9  -3911833.51848  20063592.494    20063593.3724   20063599.2454
     -1647.544       -1283.801
 -21517666.193 9 -16743892.86548  21494435.182    21494436.5204   21494442.2294
       544.797         424.517
 -15520245.605 9 -12073583.92746  22587568.445    22587568.7964   22587575.4524
      -184.011        -143.385
  14717995.039 8  11467833.16145  23610952.745    23610953.2914   23610960.9764
     -2774.337       -2161.821
 -30801623.914 9 -23974577.84848  19238623.156    19238624.1494   19238630.0844
      1404.631        1094.518
 -11947181.018 9  -9301657.87648  20038217.658    20038218.3424   20038223.7904
       296.022         230.666
 97  4 29 17 25 59.9960000  0  7  4 27 26 15 19  7  2               -0.003567221
  -3728850.513 8  -2882670.41145  23867032.510    23867034.1724   23867041.8334
      4062.810        3165.826
  -5182648.148 9  -3873144.72048  20073040.793    20073041.5884   20073047.4754
     -1661.329       -1294.542
 -21533722.480 9 -16756404.26748  21491379.901    21491381.1514   21491386.8324
       526.848         410.531
 -15514418.562 9 -12069043.38746  22588677.384    22588677.7114   22588684.2734
      -203.371        -158.471
  14801300.775 8  11532746.67345  23626806.305    23626805.9904   23626813.4964
     -2778.482       -2165.051
 -30843501.931 9 -24007210.06048  19230654.007    19230655.0094   19230660.9334
      1388.289        1081.784
 -11955982.455 9  -9308516.14048  20036542.953    20036543.5214   20036548.9524
       291.874         227.434
 97  4 29 17 26 29.9960000  0  8  4 27 26 15 19  9  7  2            -0.003579667
  -3850802.589 8  -2977697.94946  23843825.969    23843827.2024   23843835.1144
      4065.768        3168.131
  -5132625.277 9  -3834165.88248  20082559.819    20082560.6264   20082566.5364
     -1675.140       -1305.304
 -21549275.385 9 -16768523.43148  21488420.377    21488421.5884   21488427.2474
       508.472         396.212
 -15508047.065 9 -12064078.59146  22589889.671    22589890.2204   22589896.7444
      -222.995        -173.762
  14884704.992 8  11597736.88945  23642677.438    23642677.4524   23642684.9354
     -2783.531       -2168.985
  -1625168.59619  -1243813.04555  24061219.293    24061219.8405   24061226.4295
      4005.974        3121.538
 -30884914.317 9 -24039479.44748  19222773.469    19222774.4684   19222780.4324
      1370.936        1068.262
 -11964695.966 9  -9315305.89348  20034884.744    20034885.3894   20034890.8384
       287.250         223.831
 97  4 29 17 26 59.9960000  0  8  4 27 26 15 19  9  7  2            -0.003592098
  -3972813.790 8  -3072771.52746  23820607.974    23820609.1624   23820617.2204
      4067.692        3169.630
  -5082161.492 9  -3794843.47548  20092162.756    20092163.5744   20092169.5114
     -1689.873       -1316.784
 -21564251.341 9 -16780193.01948  21485570.501    21485571.7674   21485577.4664
       489.418         381.365
 -15501060.190 9 -12058634.28646  22591219.034    22591219.7314   22591226.2624
      -243.382        -189.648
  14968294.026 8  11662871.13945  23658583.429    23658583.8114   23658591.5424
     -2789.767       -2173.844
  -1745346.443 9  -1337458.13346  24038350.344    24038350.7734   24038357.4794
      4005.159        3120.903
 -30925778.217 9 -24071321.44048  19214997.330    19214998.3404   19215004.2874
      1352.854        1054.172
 -11973233.338 9  -9321958.39748  20033260.197    20033260.7894   20033266.2264
       281.197         219.115
 97  4 29 17 27 29.9960000  0  8  4 27 26 15 19  9  7  2            -0.003604541
  -4094911.220 8  -3167912.29245  23797373.340    23797374.7004   23797382.7254
      4071.630        3172.699
  -5031280.452 9  -3755195.93648  20101845.069    20101845.9314   20101851.8724
     -1702.981       -1326.998
 -21578697.010 9 -16791449.39848  21482821.661    21482822.8724   21482828.5794
       472.850         368.454
 -15493497.212 9 -12052741.06046  22592658.189    22592658.9104   22592665.4684
      -261.502        -203.768
  15052040.416 8  11728128.00845  23674519.923    23674520.3724   23674528.0484
     -2793.995       -2177.139
  -1865525.911 9  -1431104.45846  24015481.123    24015481.5224   24015488.3964
      4006.134        3121.663
 -30966142.668 9 -24102774.25148  19207316.272    19207317.2624   19207323.2044
      1337.638        1042.315
 -11981613.638 9  -9328488.50848  20031665.465    20031666.0624   20031671.5064
       276.664         215.582
 97  4 29 17 27 59.9960000  0  8  4 27 26 15 19  9  7  2            -0.003616977
  -4217099.519 8  -3263123.84645  23774121.560    23774122.9424   23774131.0394
      4074.071        3174.601
  -4979961.939 9  -3715207.50848  20111610.645    20111611.5284   20111617.5054
     -1718.466       -1339.064
 -21592596.831 9 -16802280.43948  21480176.708    21480177.8864   21480183.5504
       453.758         353.578
 -15485352.425 9 -12046394.48046  22594207.965    22594208.8484   22594215.3884
      -281.612        -219.438
  15135939.350 8  11793503.69745  23690485.634    23690485.8074   23690493.7224
     -2799.508       -2181.435
  -1985698.222 9  -1524745.20446  23992613.182    23992613.5674   23992620.5564
      4005.167        3120.909
 -31006023.884 9 -24133850.51048  19199727.078    19199728.0984   19199734.0304
      1321.004        1029.354
 -11989814.132 9  -9334878.50648  20030104.899    20030105.5804   20030111.0424
       269.923         210.330
 97  4 29 17 28 29.9960000  0  8  4 27 26 15 19  9  7  2            -0.003629406
  -4339410.893 8  -3358431.30845  23750846.297    23750847.7294   23750855.9404
      4079.577        3178.891
  -4928212.310 9  -3674883.14648  20121458.295    20121459.1674   20121465.1814
     -1732.153       -1349.730
 -21605966.527 9 -16812698.40048  21477632.509    21477633.6864   21477639.3694
       436.993         340.514
 -15476644.993 9 -12039609.48046  22595865.211    22595865.8294   22595872.3804
      -299.403        -233.301
  15219966.700 8  11858979.47645  23706475.889    23706475.7294   23706483.6404
     -2802.649       -2183.882
  -2105884.820 9  -1618397.07746  23969742.237    23969742.8564   23969749.8294
      4006.848        3122.219
 -31045449.334 9 -24164571.63348  19192224.702    19192225.6954   19192231.6024
      1307.001        1018.442
 -11997848.097 9  -9341138.74848  20028576.170    20028576.7764   20028582.2184
       265.164         206.621
 97  4 29 17 28 59.9960000  0  8  4 27 26 15 19  9  7  2            -0.003641808
  -4461843.921 8  -3453833.58245  23727548.031    23727549.4044   23727557.7064
      4083.269        3181.768
  -4876011.794 9  -3634207.44748  20131391.669    20131392.6234   20131398.6334
     -1747.301       -1361.533
 -21618788.692 9 -16822689.70748  21475192.449    21475193.6604   21475199.4024
       418.657         326.226
 -15467365.148 9 -12032378.45946  22597630.944    22597631.7304   22597638.3364
      -318.563        -248.231
  15304123.332 8  11924556.01145  23722490.340    23722490.4404   23722498.1264
     -2807.267       -2187.481
  -2226080.510 9  -1712056.02846  23946869.835    23946870.4284   23946877.3504
      4006.730        3122.127
 -31084427.907 9 -24194944.53648  19184807.341    19184808.3054   19184814.2184
      1292.245        1006.944
 -12005698.833 9  -9347256.21448  20027082.340    20027082.8324   20027088.2724
       259.086         201.885
 97  4 29 17 29 29.9960000  0  8  4 27 26 15 19  9  7  2            -0.003654165
  -4584379.719 8  -3549315.87945  23704230.668    23704231.4164   23704239.6114
      4086.051        3183.936
  -4823348.080 9  -3593170.81248  20141413.273    20141414.2384   20141420.2534
     -1763.307       -1374.005
 -21631060.210 9 -16832251.93848  21472857.268    21472858.4594   21472864.1904
       399.624         311.395
 -15457502.310 9 -12024693.14746  22599507.871    22599508.6094   22599515.2244
      -338.746        -263.958
  15388411.314 8  11990234.91646  23738529.788    23738529.8094   23738537.6414
     -2811.912       -2191.100
  -2346265.966 9  -1805707.00846  23923999.114    23923999.8734   23924006.8254
      4005.846        3121.438
 -31122954.021 9 -24224964.87348  19177476.009    19177477.0214   19177482.9454
      1276.295         994.516
 -12013367.475 9  -9353231.78148  20025622.931    20025623.5454   20025628.9664
       252.472         196.731
 97  4 29 17 29 59.9960000  0  8  4 27 26 15 19  9  7  2            -0.003666482
  -4707021.281 8  -3644880.59345  23680892.611    23680893.5204   23680901.8284
      4089.472        3186.602
  -4770230.770 9  -3551780.72648  20151521.181    20151522.1454   20151528.1324
     -1778.249       -1385.649
 -21642774.194 9 -16841379.72948  21470628.169    21470629.3684   21470635.0694
       381.075         296.942
 -15447054.065 9 -12016551.67946  22601496.160    22601496.8394   22601503.4434
      -358.248        -279.154
  15472832.232 8  12056017.37646  23754593.882    23754594.5144   23754602.4624
     -2816.505       -2194.679
  -2466447.827 9  -1899355.18446  23901129.348    23901130.0824   23901136.9624
      4005.711        3121.333
 -31161013.731 9 -24254621.78048  19170233.499    19170234.4774   19170240.4094
      1260.414         982.141
 -12020865.208 9  -9359074.17948  20024196.176    20024196.8114   20024202.2234
       246.865         192.362
 97  4 29 17 30 29.9960000  0  8  4 27 26 15 19  9  7  2            -0.003678783
  -4829767.043 8  -3740526.54445  23657534.624    23657535.8024   23657544.0614
      4093.189        3189.498
  -4716673.343 9  -3510047.69348  20161712.870    20161713.7784   20161719.7584
     -1792.492       -1396.747
 -21653954.124 9 -16850091.38048  21468500.717    21468501.9274   21468507.5674
       363.979         283.620
 -15436028.928 9 -12007960.67446  22603594.310    22603594.8964   22603601.4654
      -377.089        -293.836
  15557376.735 8  12121896.14846  23770682.256    23770682.8744   23770690.7694
     -2820.121       -2197.497
  -2586631.419 8  -1993004.70046  23878259.222    23878259.9174   23878266.6494
      4006.147        3121.673
 -31198596.270 9 -24283906.86148  19163081.793    19163082.7574   19163088.6774
      1244.767         969.948
 -12028196.490 9  -9364786.87148  20022801.125    20022801.7184   20022807.1254
       241.597         188.257
 97  4 29 17 30 59.9960000  0  8  4 27 26 15 19  9  7  2            -0.003691086
  -4952595.493 8  -3836236.89345  23634161.378    23634162.3034   23634170.3974
      4095.551        3191.338
  -4662686.534 9  -3467980.07348  20171986.254    20171987.1714   20171993.0864
     -1806.378       -1407.567
 -21664613.494 9 -16858397.39848  21466472.363    21466473.5474   21466479.1764
       347.014         270.401
 -15424428.018 9 -11998921.03946  22605802.083    22605802.4574   22605809.0164
      -396.055        -308.614
  15642030.880 8  12187860.37246  23786791.533    23786792.1484   23786799.9294
     -2823.259       -2199.942
  -2706804.547 8  -2086646.05446  23855391.022    23855391.7574   23855398.4984
      4005.534        3121.195
 -31235693.302 9 -24312813.62648  19156022.490    19156023.4474   19156029.3684
      1228.560         957.319
 -12035362.728 9  -9370370.96348  20021437.435    20021438.0374   20021443.4654
       236.364         184.180
 97  4 29 17 31 29.9960000  0  8  4 27 26 15 19  9  7  2            -0.003703412
  -5075491.547 8  -3931999.92445  23610774.902    23610776.2024   23610784.0364
      4097.728        3193.035
  -4608278.173 9  -3425583.97748  20182339.781    20182340.7644   20182346.6624
     -1820.650       -1418.688
 -21674763.411 9 -16866306.43848  21464540.858    21464542.0874   21464547.6964
       329.718         256.923
 -15412253.429 9 -11989434.35946  22608118.964    22608119.2114   22608125.7414
      -415.387        -323.678
  15726789.645 9  12253906.10546  23802920.672    23802921.1464   23802928.9774
     -2827.149       -2202.973
  -2826953.027 8  -2180268.19746  23832527.628    23832528.2794   23832535.0074
      4004.359        3120.280
 -31272293.784 9 -24341333.47048  19149057.692    19149058.6314   19149064.5374
      1211.733         944.208
 -12042357.109 9  -9375821.13448  20020106.423    20020107.0524   20020112.4964
       229.960         179.190
 97  4 29 17 31 59.9960000  0  8  4 27 26 15 19  9  7  2            -0.003715736
  -5198413.379 8  -4027783.06745  23587383.477    23587385.0624   23587392.6114
      4097.712        3193.022
  -4553404.567 9  -3382825.35148  20192781.989    20192782.8924   20192788.7854
     -1836.883       -1431.337
 -21684357.144 9 -16873782.08648  21462715.277    21462716.4284   21462722.0604
       310.667         242.078
 -15399462.296 9 -11979467.28246  22610553.080    22610553.2884   22610559.8544
      -436.642        -340.240
  15811694.214 8  12320065.50146  23819077.493    23819077.8544   23819085.8864
     -2832.565       -2207.194
  -2947018.462 8  -2273825.62146  23809679.729    23809680.5294   23809687.1634
      4000.672        3117.407
 -31308354.762 9 -24369432.92248  19142195.612    19142196.4494   19142202.3744
      1193.078         929.671
 -12049113.617 9  -9381085.95148  20018820.659    20018821.3304   20018826.7894
       221.045         172.243
 97  4 29 17 32 29.9960000  0  8  4 27 26 15 19  9  7  2            -0.003728086
  -5321377.458 9  -4123599.13745  23563983.970    23563985.7694   23563993.2304
      4100.585        3195.261
  -4498089.425 9  -3339722.67148  20203308.142    20203309.0484   20203314.9414
     -1850.155       -1441.679
 -21693436.373 9 -16880856.81548  21460987.522    21460988.6964   21460994.3394
       295.068         229.923
 -15386083.005 9 -11969041.89946  22613098.750    22613099.2864   22613105.8684
      -454.731        -354.336
  15896709.668 9  12386311.23546  23835254.941    23835255.7474   23835263.9024
     -2834.560       -2208.748
  -3067020.025 8  -2367333.27646  23786844.322    23786844.8364   23786851.8224
      3999.997        3116.881
 -31343906.407 9 -24397135.49348  19135430.332    19135431.1984   19135437.1024
      1177.767         917.740
 -12055646.505 9  -9386176.51948  20017577.553    20017578.1634   20017583.6224
       215.243         167.722
 97  4 29 17 32 59.9960000  0  8  4 27 26 15 19  9  7  2            -0.003740486
  -5444445.015 8  -4219495.87545  23540565.156    23540566.6174   23540574.0594
      4103.548        3197.570
  -4442396.938 9  -3296325.95848  20213906.222    20213907.0064   20213912.8824
     -1863.243       -1451.878
 -21702057.365 9 -16887574.48648  21459346.969    21459348.1834   21459353.8194
       279.108         217.487
 -15372179.993 9 -11958208.41346  22615744.404    22615744.9204   22615751.5464
      -472.640        -368.291
  15981772.446 9  12452593.86346  23851441.354    23851442.6894   23851451.0064
     -2836.879       -2210.555
  -3187013.790 8  -2460834.86546  23764009.847    23764010.8514   23764017.8084
      3999.159        3116.228
 -31379024.231 9 -24424500.01948  19128747.617    19128748.5154   19128754.3724
      1162.887         906.146
 -12062024.318 9  -9391146.25048  20016363.871    20016364.5014   20016369.9634
       209.410         163.177
